[[{"header":{"parameterUnit":"m.s-1","parameterCategory":1,"la1":30.6,"la2":28.766,"lo1":-90.7593,"lo2":-88.6598,"dy":0.0162,"dx":0.0183,"nx":116,"ny":114,"refTime":"2024-04-30T06:00:00:Z","depth":0,"parameterNumber":2,"parameterNumberName":"U-component_of_WINDS"},"data":[0.0,0.0,0.0,0.0,0.0,0.0,0.0,0.0,0.0,0.0,0.0,0.0,0.0,0.0,0.0,0.0,0.0,0.0,0.0,0.0,0.0,0.0,0.0,0.0,0.0,0.0,0.0,0.0,0.0,0.0,0.0,0.0,0.0,0.0,0.0,0.0,0.0,0.0,0.0,0.0,0.0,0.0,0.0,0.0,0.0,0.0,0.0,0.0,0.0,0.0,0.0,0.0,0.0,0.0,0.0,0.0,0.0,0.0,0.0,0.0,0.0,0.0,0.0,0.0,0.0,0.0,0.0,0.0,0.0,0.0,0.0,0.0,0.0,0.0,0.0,0.0,0.0,0.0,0.0,0.0,0.0,0.0,0.0,0.0,0.0,0.0,0.0,0.0,0.0,0.0,0.0,0.0,0.0,0.0,0.0,0.0,0.0,0.0,0.0,0.0,0.0,0.0,0.0,0.0,0.0,0.0,0.0,0.0,0.0,0.0,0.0,0.0,0.0,0.0,0.0,0.0,0.0,0.0,0.0,0.0,0.0,0.0,0.0,0.0,0.0,0.0,0.0,0.0,0.0,0.0,0.0,0.0,0.0,0.0,0.0,0.0,0.0,0.0,0.0,0.0,0.0,0.0,0.0,0.0,0.0,0.0,0.0,0.0,0.0,0.0,0.0,0.0,0.0,0.0,0.0,0.0,0.0,0.0,0.0,0.0,0.0,0.0,0.0,0.0,0.0,0.0,0.0,0.0,0.0,0.0,0.0,0.0,0.0,0.0,0.0,0.0,0.0,0.0,0.0,0.0,0.0,0.0,0.0,0.0,0.0,0.0,0.0,0.0,0.0,0.0,0.0,0.0,0.0,0.0,0.0,0.0,0.0,0.0,0.0,0.0,0.0,0.0,0.0,0.0,0.0,0.0,0.0,0.0,0.0,0.0,0.0,0.0,0.0,0.0,0.0,0.0,0.0,0.0,0.0,0.0,0.0,0.0,0.0,0.0,0.0,0.0,0.0,0.0,0.0,0.0,0.0,0.0,0.0,0.0,0.0,0.0,0.0,0.0,0.0,0.0,0.0,0.0,0.0,0.0,0.0,0.0,0.0,0.0,0.0,0.0,0.0,0.0,0.0,0.0,0.0,0.0,0.0,0.0,0.0,0.0,0.0,0.0,0.0,0.0,0.0,0.0,0.0,0.0,0.0,0.0,0.0,0.0,0.0,0.0,0.0,0.0,0.0,0.0,0.0,0.0,0.0,0.0,0.0,0.0,0.0,0.0,0.0,0.0,0.0,0.0,0.0,0.0,0.0,0.0,0.0,0.0,0.0,0.0,0.0,0.0,0.0,0.0,0.0,0.0,0.0,0.0,0.0,0.0,0.0,0.0,0.0,0.0,0.0,0.0,0.0,0.0,0.0,0.0,0.0,0.0,0.0,0.0,0.0,0.0,0.0,0.0,0.0,0.0,0.0,0.0,0.0,0.0,0.0,0.0,0.0,0.0,0.0,0.0,0.0,0.0,0.0,0.0,0.0,0.0,0.0,0.0,0.0,0.0,0.0,0.0,0.0,0.0,0.0,0.0,0.0,0.0,0.0,0.0,0.0,0.0,0.0,0.0,0.0,0.0,0.0,0.0,0.0,0.0,0.0,0.0,0.0,0.0,0.0,0.0,0.0,0.0,0.0,0.0,0.0,0.0,0.0,0.0,0.0,0.0,0.0,0.0,0.0,0.0,0.0,0.0,0.0,0.0,0.0,0.0,0.0,0.0,0.0,0.0,0.0,0.0,0.0,0.0,0.0,0.0,0.0,0.0,0.0,0.0,0.0,0.0,0.0,0.0,0.0,0.0,0.0,0.0,0.0,0.0,0.0,0.0,0.0,0.0,0.0,0.0,0.0,0.0,0.0,0.0,0.0,0.0,0.0,0.0,0.0,0.0,0.0,0.0,0.0,0.0,0.0,0.0,0.0,0.0,0.0,0.0,0.0,0.0,0.0,0.0,0.0,0.0,0.0,0.0,0.0,0.0,0.0,0.0,0.0,0.0,0.0,0.0,0.0,0.0,0.0,0.0,0.0,0.0,0.0,0.0,0.0,0.0,0.0,0.0,0.0,0.0,0.0,0.0,0.0,0.0,0.0,0.0,0.0,0.0,0.0,0.0,0.0,0.0,0.0,0.0,0.0,0.0,0.0,0.0,0.0,0.0,0.0,0.0,0.0,0.0,0.0,0.0,0.0,0.0,0.0,0.0,0.0,0.0,0.0,0.0,0.0,0.0,0.0,0.0,0.0,0.0,0.0,0.0,0.0,0.0,0.0,0.0,0.0,0.0,0.0,0.0,0.0,0.0,0.0,0.0,0.0,0.0,0.0,0.0,0.0,0.0,0.0,0.0,0.0,0.0,0.0,0.0,0.0,0.0,0.0,0.0,0.0,0.0,0.0,0.0,0.0,0.0,0.0,0.0,0.0,0.0,0.0,0.0,0.0,0.0,0.0,0.0,0.0,0.0,0.0,0.0,0.0,0.0,0.0,0.0,0.0,0.0,0.0,0.0,0.0,0.0,0.0,0.0,0.0,0.0,0.0,0.0,0.0,0.0,0.0,0.0,0.0,0.0,0.0,0.0,0.0,0.0,0.0,0.0,0.0,0.0,0.0,0.0,0.0,0.0,0.0,0.0,0.0,0.0,0.0,0.0,0.0,0.0,0.0,0.0,0.0,0.0,0.0,0.0,0.0,0.0,0.0,0.0,0.0,0.0,0.0,0.0,0.0,0.0,0.0,0.0,0.0,0.0,0.0,0.0,0.0,0.0,0.0,0.0,0.0,0.0,0.0,0.0,0.0,0.0,0.0,0.0,0.0,0.0,0.0,0.0,0.0,0.0,0.0,0.0,0.0,0.0,0.0,0.0,0.0,0.0,0.0,0.0,0.0,0.0,0.0,0.0,0.0,0.0,0.0,0.0,0.0,0.0,0.0,0.0,0.0,0.0,0.0,0.0,0.0,0.0,0.0,0.0,0.0,0.0,0.0,0.0,0.0,0.0,0.0,0.0,0.0,0.0,0.0,0.0,0.0,0.0,0.0,0.0,0.0,0.0,0.0,0.0,0.0,0.0,0.0,0.0,0.0,0.0,0.0,0.0,0.0,0.0,0.0,0.0,0.0,0.0,0.0,0.0,0.0,0.0,0.0,0.0,0.0,0.0,0.0,0.0,0.0,0.0,0.0,0.0,0.0,0.0,0.0,0.0,0.0,0.0,0.0,0.0,0.0,0.0,0.0,0.0,0.0,0.0,0.0,0.0,0.0,0.0,0.0,0.0,0.0,0.0,0.0,0.0,0.0,0.0,0.0,0.0,0.0,0.0,0.0,0.0,0.0,0.0,0.0,0.0,0.0,0.0,0.0,0.0,0.0,0.0,0.0,0.0,0.0,0.0,0.0,0.0,0.0,0.0,0.0,0.0,0.0,0.0,0.0,0.0,0.0,0.0,0.0,0.0,0.0,0.0,0.0,0.0,0.0,0.0,0.0,0.0,0.0,0.0,0.0,0.0,0.0,0.0,0.0,0.0,0.0,0.0,0.0,0.0,0.0,0.0,0.0,0.0,0.0,0.0,0.0,0.0,0.0,0.0,0.0,0.0,0.0,0.0,0.0,0.0,0.0,0.0,0.0,0.0,0.0,0.0,0.0,0.0,0.0,0.0,0.0,0.0,0.0,0.0,0.0,0.0,0.0,0.0,0.0,0.0,0.0,0.0,0.0,0.0,0.0,0.0,0.0,0.0,0.0,0.0,0.0,0.0,0.0,0.0,0.0,0.0,0.0,0.0,0.0,0.0,0.0,0.0,0.0,0.0,0.0,0.0,0.0,0.0,0.0,0.0,0.0,0.0,0.0,0.0,0.0,0.0,0.0,0.0,0.0,0.0,0.0,0.0,0.0,0.0,0.0,0.0,0.0,0.0,0.0,0.0,0.0,0.0,0.0,0.0,0.0,0.0,0.0,0.0,0.0,0.0,0.0,0.0,0.0,0.0,0.0,0.0,0.0,0.0,0.0,0.0,0.0,0.0,0.0,0.0,0.0,0.0,0.0,0.0,0.0,0.0,0.0,0.0,0.0,0.0,0.0,0.0,0.0,0.0,0.0,0.0,0.0,0.0,0.0,0.0,0.0,0.0,0.0,0.0,0.0,0.0,0.0,0.0,0.0,0.0,0.0,0.0,0.0,0.0,0.0,0.0,0.0,0.0,0.0,0.0,0.0,0.0,0.0,0.0,0.0,0.0,0.0,0.0,0.0,0.0,0.0,0.0,0.0,0.0,0.0,0.0,0.0,0.0,0.0,0.0,0.0,0.0,0.0,0.0,0.0,0.0,0.0,0.0,0.0,0.0,0.0,0.0,0.0,0.0,0.0,0.0,0.0,0.0,0.0,0.0,0.0,0.0,0.0,0.0,0.0,0.0,0.0,0.0,0.0,0.0,0.0,0.0,0.0,0.0,0.0,0.0,0.0,0.0,0.0,0.0,0.0,0.0,0.0,0.0,0.0,0.0,0.0,0.0,0.0,0.0,0.0,0.0,0.0,0.0,0.0,0.0,0.0,0.0,0.0,0.0,0.0,0.0,0.0,0.0,0.0,0.0,0.0,0.0,0.0,0.0,0.0,0.0,0.0,0.0,0.0,0.0,0.0,0.0,0.0,0.0,0.0,0.0,0.0,0.0,0.0,0.0,0.0,0.0,0.0,0.0,0.0,0.0,0.0,0.0,0.0,0.0,0.0,0.0,0.0,0.0,0.0,0.0,0.0,0.0,0.0,0.0,0.0,0.0,0.0,0.0,0.0,0.0,0.0,0.0,0.0,0.0,0.0,0.0,0.0,0.0,0.0,0.0,0.0,0.0,0.0,0.0,0.0,0.0,0.0,0.0,0.0,0.0,0.0,0.0,0.0,0.0,0.0,0.0,0.0,0.0,0.0,0.0,0.0,0.0,0.0,0.0,0.0,0.0,0.0,0.0,0.0,0.0,0.0,0.0,0.0,0.0,0.0,0.0,0.0,0.0,0.0,0.0,0.0,0.0,0.0,0.0,0.0,0.0,0.0,0.0,0.0,0.0,0.0,0.0,0.0,0.0,0.0,0.0,0.0,0.0,0.0,0.0,0.0,0.0,0.0,0.0,0.0,0.0,0.0,0.0,0.0,0.0,0.0,0.0,0.0,0.0,0.0,0.0,0.0,0.0,0.0,0.0,0.0,0.0,0.0,0.0,0.0,0.0,0.0,0.0,0.0,0.0,0.0,0.0,0.0,0.0,0.0,0.0,0.0,0.0,0.0,0.0,0.0,0.0,0.0,0.0,0.0,0.0,0.0,0.0,0.0,0.0,0.0,0.0,0.0,0.0,0.0,0.0,0.0,0.0,0.0,0.0,0.0,0.0,0.0,0.0,0.0,0.0,0.0,0.0,0.0,0.0,0.0,0.0,0.0,0.0,0.0,0.0,0.0,0.0,0.0,0.0,0.0,0.0,0.0,0.0,0.0,0.0,0.0,0.0,0.0,0.0,0.0,0.0,0.0,0.0,0.0,0.0,0.0,0.0,0.0,0.0,0.0,0.0,0.0,0.0,0.0,0.0,0.0,0.0,0.0,0.0,0.0,0.0,0.0,0.0,0.0,0.0,0.0,0.0,0.0,0.0,0.0,0.0,0.0,0.0,0.0,0.0,0.0,0.0,0.0,0.0,0.0,0.0,0.0,0.0,0.0,0.0,0.0,0.0,0.0,0.0,0.0,0.0,0.0,0.0,0.0,0.0,0.0,0.0,0.0,0.0,0.0,0.0,0.0,0.0,0.0,0.0,0.0,0.0,0.0,0.0,0.0,0.0,0.0,0.0,0.0,0.0,0.0,0.0,0.0,0.0,0.0,0.0,0.0,0.0,0.0,0.0,0.0,0.0,0.0,0.0,0.0,0.0,0.0,0.0,0.0,0.0,0.0,0.0,0.0,0.0,0.0,0.0,0.0,0.0,0.0,0.0,0.0,0.0,0.0,0.0,0.0,0.0,0.0,0.0,0.0,0.0,0.0,0.0,0.0,0.0,0.0,0.0,0.0,0.0,0.0,0.0,0.0,0.0,0.0,0.0,0.0,0.0,0.0,0.0,-2.5238,0.0,0.0,0.0,0.0,0.0,0.0,0.0,0.0,0.0,0.0,0.0,0.0,0.0,0.0,0.0,0.0,0.0,0.0,0.0,0.0,0.0,0.0,0.0,0.0,0.7899,0.8079,0.8544,0.8574,0.8963,0.986,1.0818,1.1392,1.1474,1.0845,1.0323,0.9905,0.9905,0.9905,0.9905,0.9391,0.9414,0.9931,0.9243,0.9608,1.0786,0.0,0.0,0.0,0.0,0.0,0.0,0.0,0.0,0.0,0.0,0.0,0.0,0.0,0.0,0.0,0.0,0.0,0.0,0.0,0.0,0.0,0.0,0.0,0.0,0.0,0.0,0.0,0.0,0.0,0.0,0.0,0.0,0.0,0.0,0.0,0.0,0.0,0.0,0.0,0.0,0.0,0.0,0.0,0.0,0.0,0.0,0.0,0.0,0.0,0.0,0.0,0.0,0.0,0.0,0.0,0.0,0.0,0.0,0.0,0.0,0.0,0.0,0.0,0.0,0.0,0.0,0.0,0.0,0.0,0.0,0.0,-2.5518,0.0,0.0,0.0,0.0,0.0,0.0,0.0,0.0,0.0,0.0,0.0,0.0,0.0,0.0,0.0,0.0,0.0,0.0,0.0,0.0,0.0,0.7899,0.7899,0.7899,0.7899,0.7899,0.7899,0.7899,0.7899,0.9688,1.0954,1.1445,1.0907,1.0386,0.9905,0.9905,0.9855,0.9755,0.8772,0.8762,0.9653,0.946,1.0248,1.1669,1.0184,0.0,0.0,0.0,0.0,0.0,0.0,0.0,0.0,0.0,0.0,0.0,0.0,0.0,0.0,0.0,0.0,0.0,0.0,0.0,0.0,0.0,0.0,0.0,0.0,0.0,0.0,0.0,0.0,0.0,0.0,0.0,0.0,0.0,0.0,0.0,0.0,0.0,0.0,0.0,0.0,0.0,0.0,0.0,0.0,0.0,0.0,0.0,0.0,0.0,0.0,0.0,0.0,0.0,0.0,0.0,0.0,0.0,0.0,0.0,0.0,0.0,0.0,0.0,-2.1961,-2.231,-2.2344,-2.3562,-2.4177,-2.4286,-2.4669,-2.5356,-2.6309,-2.8103,0.0,0.0,0.0,0.0,0.0,0.0,0.0,0.0,0.0,0.0,0.0,0.0,0.0,0.0,0.0,0.0,0.0,0.0,0.0,0.7899,0.7899,0.7899,0.7899,0.7899,0.7899,0.7899,0.7899,0.9242,1.0072,1.0135,1.0436,1.0386,0.9905,0.9905,0.9667,0.9214,0.8594,0.9792,1.2673,1.4506,1.3956,1.1337,0.9035,0.922,1.1128,0.0,0.0,0.0,0.0,0.0,0.0,0.0,0.0,0.0,0.0,0.0,0.0,0.0,0.0,0.0,0.0,0.0,0.0,0.0,0.0,0.0,0.0,0.0,0.0,0.0,0.0,0.0,0.0,0.0,0.0,0.0,0.0,0.0,0.0,0.0,0.0,0.0,0.0,0.0,0.0,0.0,-0.2498,-0.7641,0.0,0.0,0.0,0.0,0.0,0.0,0.0,0.0,0.0,0.0,0.0,0.0,0.0,-1.7066,-1.9464,-1.9369,-2.023,-2.2123,-2.2254,-2.231,-2.231,-2.2513,-2.289,-2.3369,-2.3431,0.0,-2.4543,-2.482,0.0,0.0,0.0,0.0,0.0,0.0,0.0,0.0,0.0,0.0,0.0,0.0,0.0,0.0,0.0,0.0,0.0,0.0,0.0,0.0,0.0,0.8574,0.8724,0.7959,0.7899,0.7899,0.7899,0.8458,0.9098,0.9868,0.9452,0.9295,0.9504,0.9034,0.8537,0.8038,0.882,1.0138,1.1966,1.3667,1.3705,1.2277,1.0421,0.9893,1.022,0.8565,0.0,0.0,0.0,0.0,0.0,0.0,0.0,0.0,0.0,0.0,0.0,0.0,0.0,0.0,0.0,0.0,0.0,0.0,0.0,0.0,0.0,0.0,0.0,0.0,0.0,0.0,0.0,0.0,0.0,0.0,0.0,0.0,0.0,0.0,0.0,0.0,0.0,0.0,0.0,-0.3068,-0.4272,-0.7759,-1.2156,-1.4387,0.0,0.0,0.0,0.0,0.0,0.0,0.0,0.0,0.0,-1.694,-1.7054,-1.7925,-1.9675,-2.0665,-2.1055,-2.0829,-2.1827,-2.231,-2.2361,-2.4019,-2.5379,-2.6457,-2.6457,-2.6631,-2.678,-2.5188,-2.6593,-2.9898,0.0,0.0,0.0,0.0,-2.8547,-2.7247,0.0,0.0,0.0,0.0,0.0,0.0,0.0,0.0,0.0,0.0,0.0,0.0,0.8078,0.9271,0.9817,0.9144,0.825,0.8018,0.8695,0.8107,0.816,0.9172,0.85,0.8351,0.8905,0.8355,0.7917,0.7612,0.9175,1.0312,1.1097,1.2382,1.2986,1.303,1.1879,1.0873,0.9925,0.8447,0.7964,0.8127,0.0,0.0,0.0,0.0,0.0,0.0,0.0,0.0,0.0,0.0,0.0,0.0,0.0,0.0,0.0,0.0,0.0,0.0,0.0,0.0,0.0,0.0,0.0,0.0,0.0,0.0,0.0,0.0,0.0,0.0,0.0,0.0,0.0,0.0,0.0,0.0,0.0,-0.5819,-0.7794,-0.902,-1.3279,-1.5392,0.0,0.0,0.0,0.0,0.0,0.0,-1.6965,-1.7015,-1.7259,-1.787,-1.7987,-1.8561,-1.969,-2.1432,-2.1661,-2.0379,-2.1691,-2.231,-2.2412,-2.5355,-2.7542,-2.8994,-2.8994,-2.8994,-2.886,-2.7008,-2.5874,-2.5668,-2.9467,-3.0198,-2.903,-2.8384,-2.7362,-2.6594,0.0,0.0,0.0,0.0,0.0,0.0,0.0,0.0,0.0,0.0,0.0,0.8062,0.8518,0.9774,1.1005,1.2184,0.9192,0.831,1.0861,0.8636,0.7266,0.7326,0.7817,0.8121,0.8155,0.8436,0.8616,0.8727,0.9571,1.0542,1.1597,1.267,1.3105,1.2958,1.2323,1.1826,1.1286,0.9412,0.8591,0.8384,0.739,0.0,0.0,0.0,0.0,0.0,0.0,0.0,0.0,0.0,0.0,0.0,0.0,0.0,0.0,0.0,0.0,0.0,0.0,0.0,0.0,0.0,0.0,0.0,0.0,0.0,0.0,0.0,0.0,0.0,0.0,0.0,0.0,0.0,0.0,0.0,0.0,0.0,0.0,-1.3066,-1.4217,0.0,0.0,0.0,0.0,-1.4916,-1.765,-1.9134,-1.8541,-1.8373,-1.8678,-1.9549,-1.838,-1.835,-1.9675,-2.1432,-2.2254,-2.218,-2.2254,-2.231,-2.2412,-2.5355,-2.7542,-2.8994,-2.8994,-2.8994,-2.9048,-2.9802,-2.8214,-2.5322,-2.5572,-2.563,-2.5581,-2.5793,-2.6752,-2.8242,0.0,0.0,0.0,0.826,0.8303,0.8049,0.7928,0.7783,0.7694,0.765,0.7872,0.8233,0.8745,0.9913,1.0829,1.1237,1.0103,0.9627,1.0194,0.824,0.7438,0.8265,0.7793,0.7564,0.765,0.7557,0.7871,0.8678,0.9126,1.0132,1.1591,1.1546,1.1714,1.1994,1.1492,1.0934,1.0335,0.8991,0.8074,0.751,0.7152,0.6835,0.0,0.0,0.0,0.0,0.0,0.0,0.0,0.0,0.0,0.0,0.0,0.0,0.0,0.0,0.0,0.0,0.0,0.0,0.0,0.0,0.0,0.0,0.0,0.0,0.0,0.0,0.0,0.0,0.0,0.0,0.0,0.0,0.0,0.0,0.0,0.0,0.0,-1.4189,-1.4881,0.0,-1.4928,-1.5268,-1.5291,-1.4941,-1.6613,-1.7526,-1.7281,-1.7619,-1.8664,-2.0483,-1.9525,-1.9508,-2.0532,-2.1721,-2.231,-2.231,-2.231,-2.3291,-2.5169,-2.6218,-2.7542,-2.8994,-2.8994,-2.8994,-2.904,-2.9357,-2.9147,-2.8571,-2.8571,-2.8571,-2.8627,-2.8937,-3.0798,-3.2645,0.0,0.3937,0.0,0.8366,0.8506,0.8133,0.7942,0.7724,0.7589,0.753,0.786,0.8341,0.9,0.993,1.0643,1.0913,1.0414,0.9925,0.9517,0.7901,0.7338,0.8183,0.7605,0.7268,0.7245,0.7472,0.7963,0.8728,0.9221,1.0002,1.1102,1.0677,1.0705,1.1094,1.0764,1.0312,0.9717,0.8588,0.7774,0.7264,0.6796,0.6634,0.6501,0.0,0.0,0.0,0.0,0.0,0.0,0.0,0.0,0.0,0.0,0.0,0.0,0.0,0.0,0.0,0.0,0.0,0.0,0.0,0.0,0.0,0.0,0.0,0.0,0.0,0.0,0.0,0.0,0.0,0.0,0.0,0.0,0.0,0.0,0.0,-1.3112,-1.4679,-1.5084,-1.5216,-1.5153,-1.5351,-1.5441,-1.544,-1.6771,-1.7474,-1.7202,-1.7878,-1.8957,-2.0513,-1.9989,-1.998,-2.0548,-2.271,-2.3291,-2.2327,-2.3308,-2.4814,-2.6691,-2.6691,-2.7542,-2.8994,-2.8994,-2.8994,-2.8994,-2.8994,-2.9551,-3.0398,-3.0398,-3.109,-3.2154,-3.2508,-3.4043,-3.5351,0.0,0.6979,0.5528,0.8322,0.8579,0.8298,0.7971,0.7724,0.7575,0.7575,0.7874,0.8403,0.9283,0.9862,1.0558,1.1492,1.0044,0.9077,0.9077,0.7708,0.6901,0.6904,0.7204,0.7229,0.693,0.8271,0.8964,0.9017,0.9857,1.024,1.0113,1.0181,1.0288,1.0366,1.0221,1.0012,0.9658,0.8302,0.7801,0.776,0.6458,0.5927,0.5733,0.0,0.0,0.0,0.0,0.0,0.0,0.0,0.0,0.0,0.0,0.0,0.0,0.0,0.0,0.0,0.0,0.0,0.0,0.0,0.0,0.0,0.0,0.0,0.0,0.0,0.0,0.0,0.0,0.0,0.0,0.0,0.0,0.0,-1.0575,-1.2605,-1.4446,-1.4797,-1.4897,-1.5155,-1.5668,-1.6231,-1.6539,-1.6532,-1.851,-1.9406,-1.865,-1.9332,-1.972,-1.9809,-1.9735,-1.972,-1.9809,-2.4408,-2.527,-2.2479,-2.5321,-2.6691,-2.6691,-2.6793,-2.763,-2.8994,-2.8994,-2.8994,-2.8994,-2.8994,-2.9551,-3.0398,-3.0398,-3.2499,-3.5553,-3.5874,-3.5976,-3.5996,0.8412,0.8772,0.8207,0.895,0.8703,0.8377,0.8285,0.7591,0.7082,0.7082,0.7331,0.7878,0.8788,0.9422,1.0047,1.066,0.9324,0.8498,0.8584,0.7347,0.6792,0.7179,0.6858,0.6917,0.748,0.785,0.8403,0.914,0.9905,1.0303,1.0242,0.9493,0.9173,0.924,0.9221,0.9159,0.9001,0.8096,0.7747,0.7707,0.72,0.6362,0.5374,0.0,0.0,0.0,0.0,0.0,0.0,0.0,0.0,0.0,0.0,0.0,0.0,0.0,0.0,0.0,0.0,0.0,0.0,0.0,0.0,0.0,0.0,0.0,0.0,0.0,0.0,0.0,0.0,0.0,0.0,0.0,-1.2479,-1.3926,-1.2383,-1.3305,-1.4496,-1.536,-1.5474,-1.568,-1.6233,-1.6913,-1.7409,-1.7648,-1.8919,-1.9603,-1.9406,-1.9603,-2.0557,-2.2458,-2.0677,-2.0602,-2.2503,-2.5285,-2.6285,-2.5507,-2.6302,-2.6691,-2.6759,-2.8958,-2.9612,-2.8994,-2.8994,-2.8994,-2.8994,-2.8994,-2.9551,-3.0398,-3.0398,-3.2643,-3.5837,-3.5691,-3.565,-3.5678,0.7023,0.84,0.9146,0.9184,0.8766,0.8374,0.8335,0.7503,0.6904,0.6904,0.6991,0.7338,0.811,0.8521,0.9066,0.992,0.8494,0.7599,0.7678,0.6936,0.6638,0.6919,0.6949,0.7176,0.7676,0.7867,0.8288,0.8984,0.9231,0.9381,0.9341,0.8415,0.8149,0.84,0.8057,0.7996,0.8156,0.7176,0.6858,0.6864,0.5679,0.547,0.5707,0.4555,0.1598,-0.2071,-0.3455,-0.4206,-0.4674,-0.6072,0.0,0.0,0.0,0.0,0.0,0.0,0.0,0.0,0.0,0.0,0.0,0.0,0.0,0.0,0.0,0.0,0.0,0.0,0.0,0.0,0.0,0.0,0.0,0.0,-1.4385,-1.5319,-1.4514,-1.463,-1.5024,-1.5615,-1.5906,-1.617,-1.6484,-1.7146,-1.7666,-1.7867,-1.9006,-1.969,-1.969,-1.969,-2.0887,-2.352,-2.2954,-2.3358,-2.4886,-2.6106,-2.6691,-2.6691,-2.6691,-2.7751,-2.97,-3.0088,-2.9804,-2.9067,-3.043,-3.0265,-2.8994,-2.8994,-3.0396,0.0,0.0,0.0,0.0,0.0,-3.5493,-3.552,0.5379,0.7069,0.8913,0.9123,0.8703,0.828,0.8153,0.7384,0.6786,0.6691,0.6643,0.6784,0.7225,0.7372,0.7909,0.9094,0.7542,0.6516,0.6521,0.6403,0.6391,0.6533,0.7225,0.7735,0.7973,0.8189,0.8362,0.8495,0.8234,0.8039,0.7957,0.7308,0.7337,0.7953,0.7043,0.6864,0.7246,0.6036,0.5555,0.5336,0.2934,0.3701,0.6117,0.3855,-0.0105,-0.4519,-0.468,-0.5174,-0.6257,-0.9356,0.0,0.0,0.0,0.0,0.0,0.0,0.0,0.0,0.0,0.0,0.0,0.0,0.0,0.0,0.0,0.0,0.0,0.0,0.0,0.0,0.0,0.0,0.0,0.0,-1.6522,-1.6522,-1.6522,-1.6095,-1.5781,-1.5781,-1.622,-1.6522,-1.6522,-1.7146,-1.7585,-1.7463,-1.8855,-1.969,-1.969,0.0,0.0,0.0,0.0,-2.6691,-2.6691,-2.6691,-2.6691,-2.6708,-2.723,-2.9523,-3.3164,-3.0687,-2.9525,-2.969,-3.2559,-3.2192,-2.9525,-2.9525,-3.19,-3.5185,-3.2148,-3.2821,-3.5493,-3.5493,-3.5493,-3.5493,0.7215,0.8292,0.8571,0.8829,0.8348,0.7849,0.7675,0.6884,0.6109,0.5456,0.572,0.5959,0.5966,0.6595,0.7251,0.7817,0.6371,0.5422,0.5413,0.5393,0.5992,0.7374,0.7253,0.7952,0.9758,0.8706,0.7873,0.7321,0.7841,0.7799,0.7224,0.7063,0.7602,0.8592,0.7197,0.6668,0.6703,0.6073,0.4933,0.3306,0.1274,0.2223,0.4522,0.0872,-0.2191,-0.4625,-0.5769,-0.6318,-0.6697,-0.8546,-0.8196,-0.6895,-0.6433,-0.598,0.0,0.0,0.0,0.0,0.0,0.0,0.0,0.0,0.0,0.0,0.0,0.0,0.0,0.0,0.0,0.0,0.0,0.0,0.0,-1.6136,-1.6522,-1.6522,-1.6522,-1.6421,-1.6358,-1.6358,-1.6459,-1.6522,-1.6522,-1.7146,-1.7353,-1.6752,-1.8574,-1.969,-1.969,-2.1695,-2.3832,-2.6019,-2.6505,-2.6691,-2.6691,-2.6691,-2.6691,-2.6759,0.0,0.0,-3.0008,-3.1971,-3.2871,-3.2908,-3.3532,-3.344,-3.2871,-3.2871,-3.3907,-3.5416,-3.4762,-3.4916,-3.5493,-3.5493,-3.5493,-3.5493,0.6402,0.767,0.8485,0.8415,0.8065,0.7715,0.7439,0.6789,0.6089,0.536,0.4901,0.4725,0.4934,0.5421,0.5728,0.5705,0.4844,0.4527,0.5069,0.5108,0.5508,0.6403,0.6238,0.7002,0.8816,0.7991,0.7371,0.6979,0.7098,0.6923,0.6459,0.6459,0.676,0.7228,0.5892,0.539,0.5415,0.3666,0.1929,0.0219,-0.1101,-0.0996,-0.0222,-0.2225,-0.3622,-0.468,-0.61,-0.7058,-0.7782,-0.8482,-0.8383,-0.8043,-0.8856,-0.8514,-0.7974,0.0,0.0,0.0,0.0,0.0,0.0,0.0,0.0,0.0,0.0,0.0,0.0,0.0,0.0,-1.3353,-1.4407,0.0,-1.7987,-1.671,-1.7527,-1.7869,-1.667,-1.6522,-1.6522,-1.6522,-1.6752,-1.6909,-1.6909,-1.7463,-1.8004,-1.8272,-2.0378,-2.1635,-2.1635,-2.2892,-2.4561,-2.6641,-2.6691,-2.6691,-2.6691,-2.8197,-2.8941,-2.8941,-2.9817,-3.004,-2.9746,-3.251,-3.3807,-3.3807,-3.3807,-3.3807,-3.3807,-3.3807,-3.4141,-3.4696,-3.527,-3.5493,-3.5493,-3.5493,-3.5493,-3.5493,0.5826,0.7086,0.8465,0.8129,0.7745,0.7373,0.7097,0.6584,0.5954,0.5214,0.4266,0.3744,0.4004,0.4304,0.4321,0.3867,0.3632,0.3869,0.4726,0.4991,0.5128,0.522,0.5477,0.6069,0.6973,0.6859,0.674,0.6664,0.6258,0.591,0.569,0.569,0.558,0.5336,0.4409,0.3868,0.3453,0.0721,-0.1436,-0.3135,-0.3793,-0.4484,-0.5037,-0.4927,-0.5081,-0.5441,-0.6317,-0.7315,-0.8344,-0.8613,-0.8758,-0.9271,-1.2008,-1.1914,-1.0449,-0.873,-0.9199,0.0,0.0,0.0,0.0,0.0,0.0,0.0,0.0,-1.3414,-1.3107,-1.1512,-1.2776,-1.4638,-1.6233,-1.9637,-2.0983,-1.7132,-1.8117,-1.8741,-1.6764,-1.6522,-1.6522,-1.6522,-1.6879,-1.7229,-1.7422,-1.7666,-1.8398,-1.9894,-2.2219,-2.3595,-2.3595,-2.3991,-2.4957,-2.6657,-2.6691,-2.6691,-2.6691,-2.9685,-3.119,-3.1157,-2.8847,-2.8876,-3.1029,-3.2921,-3.3807,-3.3807,-3.3807,-3.3807,-3.3807,-3.3807,-3.3807,-3.3976,-3.5774,-3.6084,-3.5493,-3.5493,-3.5493,-3.5493,0.8468,0.8422,0.8412,0.8364,0.7212,0.6249,0.6157,0.5636,0.4885,0.3857,0.402,0.3921,0.3148,0.3719,0.3984,0.357,0.3508,0.3548,0.3668,0.4567,0.5166,0.5284,0.625,0.6402,0.5561,0.5869,0.5845,0.5476,0.5422,0.5221,0.4836,0.4836,0.4467,0.3836,0.3976,0.2717,0.0391,-0.127,-0.3589,-0.6137,-0.6727,-0.6987,-0.7025,-0.6539,-0.7187,-0.815,-0.702,-0.6691,-0.7009,-0.8362,-0.8798,-0.9271,-1.2008,-1.2754,-1.2256,-1.0508,-1.0137,-1.0272,-1.0004,-0.8985,-0.87,-1.1752,-1.3541,-1.4479,0.0,-1.4624,-1.465,-1.4434,-1.6131,-1.7426,-1.666,-1.6926,-1.7132,-1.6602,-1.6751,-1.682,-1.6534,-1.6522,-1.6522,-1.6522,-1.6552,-1.6951,-1.7907,-1.7188,-1.7516,-1.9575,-2.2148,-2.3595,-2.3595,-2.5341,-2.6454,-2.6691,-2.6691,-2.6691,-2.6691,-2.9685,-3.119,-3.119,-3.1386,-3.219,-3.3405,-3.3688,-3.3807,-3.3807,-3.3807,-3.3807,-3.3807,-3.3807,-3.3807,-3.4205,-3.8327,-3.8123,-3.5493,-3.5493,-3.5493,-3.5493,0.8214,0.8789,0.8152,0.6425,0.6105,0.596,0.5539,0.5088,0.4504,0.3617,0.3495,0.3364,0.3055,0.3461,0.3556,0.3068,0.333,0.3506,0.3506,0.3931,0.4514,0.5262,0.5105,0.4791,0.4339,0.4461,0.4706,0.4942,0.4957,0.4792,0.4526,0.4184,0.3536,0.2509,0.1777,0.0579,-0.0995,-0.3359,-0.5734,-0.7866,-0.7645,-0.7848,-0.8209,-0.7943,-0.8268,-0.8699,-0.8103,-0.826,0.0,-0.7961,-0.8964,-1.0621,-1.1778,-1.2155,-1.2008,-1.1283,-1.0908,-1.0688,-1.0237,-1.0247,-1.0696,-1.1756,-1.3542,-1.5371,-1.6489,-1.6274,-1.5831,-1.5831,-1.6233,-1.6572,-1.6522,-1.7665,-1.816,0.0,-1.8811,-1.9651,-1.6901,-1.7034,-1.7188,-1.6552,-1.7034,-1.7626,-1.8066,-1.8263,-1.8727,-1.9639,-2.2113,-2.3595,-2.3595,-2.5566,-2.6691,-2.6691,-2.6691,-2.6691,-2.6691,-2.9685,-3.0903,-3.0366,-3.1175,-3.1823,-3.2282,-3.2282,-3.2854,-3.3807,-3.3807,-3.3207,-3.2366,-3.3372,-3.4926,-3.6915,-3.949,-3.9642,-3.8411,-3.8411,-3.8411,-3.8123,0.7732,0.833,0.6882,0.38,0.3905,0.4573,0.5027,0.4724,0.4211,0.3591,0.3114,0.2885,0.2982,0.3196,0.3175,0.2783,0.2912,0.2989,0.2904,0.3268,0.3823,0.4555,0.3775,0.3331,0.3331,0.3501,0.3873,0.4403,0.4408,0.432,0.414,0.3289,0.2254,0.1099,-0.046,-0.1798,-0.3023,-0.5617,-0.7498,-0.8745,-0.8128,-0.8163,-0.8584,-0.8744,-0.8704,-0.8544,-0.8377,-0.9096,-1.0046,-0.9059,-1.0174,-1.2047,-1.2005,-1.1659,-1.1292,-1.1701,-1.1535,-1.1149,-1.0708,-1.1494,-1.2408,-1.2331,-1.4013,-1.6085,-1.7638,-1.7463,-1.698,-1.699,-1.6607,-1.6401,-1.6727,-1.857,-1.9234,-1.6865,-1.9398,-2.0456,-1.6982,-1.7146,-1.7585,-1.7394,-1.7544,-1.7907,-1.8496,-1.9244,-1.969,-1.969,-2.2113,-2.3595,-2.3595,-2.5566,-2.6691,-2.6691,-2.7503,-2.7943,-2.7943,-3.0108,-3.0818,-3.0108,-3.0835,-3.119,-3.1207,-3.1613,-3.2728,-3.4303,-3.4303,-3.3125,-3.1359,-3.3454,-3.6046,-3.8792,-3.9668,-4.0212,-4.0473,-4.0138,-4.0004,-3.9661,0.0,0.691,0.4144,0.0727,0.0161,0.1299,0.4602,0.4483,0.3897,0.3542,0.3035,0.2697,0.2719,0.2842,0.2901,0.2901,0.2259,0.172,0.1387,0.271,0.3276,0.2783,0.273,0.274,0.274,0.3313,0.3615,0.3622,0.3636,0.364,0.3598,0.1808,0.053,-0.0402,-0.2288,-0.4337,-0.6539,-0.8068,-0.8752,-0.8784,-0.8504,-0.821,-0.7968,-0.8591,-0.845,-0.7835,-0.7244,-0.8273,-1.0239,-1.2324,-1.3082,-1.315,-1.3088,-1.1808,-1.0597,-1.1881,-1.1966,-1.1628,-1.1807,-1.2563,-1.352,-1.4622,-1.572,-1.6708,-1.7297,-1.779,-1.813,-1.814,-1.8362,-1.8401,-1.7701,-1.8817,-1.9082,-1.6873,-1.6615,-1.667,-1.6522,-1.6522,-1.7312,-1.9369,-1.7787,-1.7394,0.0,-1.969,-1.969,-1.969,-2.2113,-2.3595,-2.3595,-2.5566,-2.6691,-2.6691,-2.9533,-3.1055,-3.1055,-3.114,-3.1173,-3.114,-3.119,-3.119,-3.1241,-3.2679,-3.4159,-3.5559,-3.5559,-3.3889,-3.141,-3.4329,-3.6798,-3.8707,-3.875,-3.9457,-4.0353,-3.9208,-3.875,-3.8732,0.0,0.0,0.4028,0.0591,0.1878,0.3528,0.3968,0.424,0.4087,0.3216,0.2682,0.0,0.0,0.0,0.0,0.0,0.2783,0.2567,0.1679,0.1724,0.1871,0.2084,0.25,0.2712,0.2712,0.1725,0.1229,0.1229,0.1194,0.1641,0.2379,0.0982,-0.0222,-0.1206,-0.2928,-0.4488,-0.6001,-0.6654,-0.7484,-0.8363,-0.7736,-0.7715,-0.7993,-0.7713,-0.7261,-0.6833,0.0,-0.8521,-1.0018,-1.0772,-1.1064,-1.1158,-1.1151,-1.1073,-1.1082,-1.1671,-1.2062,-1.2297,-1.2014,-1.3706,-1.5612,-1.6016,-1.748,-1.8926,-1.9092,-1.8923,-1.8898,-1.9328,-1.8248,-1.7144,-1.6927,-1.7289,-1.7375,-1.6635,-1.6522,-1.6522,-1.6522,-1.6522,-1.7312,-1.9442,-1.9043,0.0,0.0,0.0,0.0,-1.969,-2.0513,-2.1754,-2.3505,-2.4251,-2.6212,-2.958,-3.0666,-3.0869,-3.0192,-3.0852,-3.0954,-3.048,-3.097,-3.1715,-3.2645,-3.2154,-3.3288,-3.5622,-3.5622,-3.5064,-3.4218,-3.5216,-3.6808,-3.8707,-3.8707,-3.896,-3.9268,-3.8833,-3.8707,-3.8707,0.0,0.0,0.0,0.0389,0.2831,0.0,0.0,0.0,0.0,0.0,0.0,0.0,0.0,0.0,0.0,0.0,0.0,0.2498,0.1535,0.1319,0.1305,0.1476,0.1242,0.1082,0.1082,0.0385,-0.0226,-0.0648,-0.1065,-0.0634,0.0497,-0.0651,-0.157,-0.2367,-0.3684,-0.4785,-0.563,-0.5841,-0.6717,-0.7905,-0.7146,-0.7158,-0.7636,-0.7277,-0.6612,0.0,-0.7265,-0.8298,-0.917,-0.941,-0.9741,-1.0084,-1.0498,-1.0954,-1.1286,-1.1185,-1.162,-1.2256,-1.2934,-1.4822,-1.6762,-1.7278,-1.8679,-1.9898,-1.9668,-1.9318,-1.9159,-1.948,-1.8552,-1.7686,-1.7666,-1.7034,-1.6522,-1.6522,-1.7146,-1.7394,-1.6595,-1.6522,-1.7345,-1.9565,-2.1421,-2.2275,0.0,0.0,0.0,-2.086,-2.2189,-2.3771,-2.5422,-2.603,-2.7834,-3.1083,-3.119,-3.0886,-3.0226,-3.0869,-3.0954,-3.0497,-3.1009,-3.1715,-3.2611,-3.2219,-3.3328,-3.5622,-3.5622,-3.5622,-3.5622,-3.5622,-3.6808,-3.8817,-3.9974,-3.9717,-3.8707,-3.8707,-3.9441,-4.0134,0.0,0.0,0.0,0.0,0.0,0.0,0.0,0.0,0.0,0.0,0.0,0.0,0.0,0.0,0.0,0.0,0.0,0.0,0.0892,0.1336,0.1356,0.0784,-0.0884,-0.1803,-0.1803,-0.0673,-0.0677,-0.1894,-0.2981,-0.2966,-0.1953,-0.2918,-0.3527,-0.3845,-0.4613,-0.5148,-0.5492,-0.5659,-0.6368,-0.7344,-0.6749,-0.6651,-0.6887,-0.7121,-0.6458,-0.5617,-0.7145,-0.7637,-0.7686,-0.8484,-0.9321,-1.0185,-1.1196,-1.1443,-1.1282,-1.0624,-1.0853,-1.1865,-1.4306,-1.5939,-1.7219,-1.8532,-1.9358,-1.9775,-1.922,-1.9081,-1.8984,-1.88,-1.9249,-1.967,-1.9679,-1.8027,-1.668,-1.668,-1.8478,-1.9179,-1.7041,-1.6901,-1.7839,0.0,0.0,0.0,0.0,0.0,0.0,-2.3112,0.0,-2.9008,-2.913,-3.0429,-3.119,-3.119,-3.119,-3.119,-3.119,-3.119,-3.119,-3.1168,-3.1264,-3.1307,-3.132,-3.2752,-3.4205,-3.5622,-3.5622,-3.5622,-3.5622,-3.5622,-3.6808,-3.9001,-4.2047,-4.1479,-3.8946,-3.8946,-4.0789,-4.2632,0.0,0.0,0.0,0.0,0.0,0.0,0.0,0.0,0.0,0.0,0.0,0.0,0.0,0.0,0.0,0.0,0.0,0.0,0.0291,-0.0466,-0.0957,-0.1107,-0.1549,-0.1803,-0.1803,-0.1496,-0.1909,-0.3065,-0.3366,-0.3552,-0.3672,-0.409,-0.4247,-0.4249,-0.4291,-0.4249,-0.4148,-0.4567,-0.5123,-0.5784,-0.6447,-0.655,-0.6184,-0.4958,-0.5567,-0.7145,-0.7549,-0.6927,-0.6137,-0.752,-0.9596,-1.1753,-1.262,-1.2896,-1.2825,-1.2561,-1.3422,-1.4328,-1.3622,-1.6632,-2.0132,-2.0785,-2.1088,-2.1171,-2.1063,-2.0362,-1.9735,-1.9747,-1.8475,-1.7836,-1.9428,-1.9244,-1.8893,-1.8893,-2.0976,0.0,-2.0585,-2.2033,0.0,-2.4114,0.0,-2.5697,-2.5811,-2.6126,0.0,0.0,-2.7897,-2.9465,-3.0565,-3.0987,-3.119,-3.119,-3.119,-3.119,-3.119,-3.119,-3.0975,-3.0535,-3.1034,-3.1605,-3.217,-3.1909,-3.3152,-3.5622,-3.5622,-3.5622,-3.5622,-3.5622,-3.6808,-3.8781,-3.9606,-4.0891,-4.2268,-4.2268,-4.1743,-4.0787,0.0,0.0,0.0,0.0,0.0,0.0,0.0,0.0,0.0,0.0,0.0,0.0,0.0,0.0,0.0,0.0,0.0,0.0,0.0,-0.1136,-0.1803,-0.1803,-0.1803,-0.1803,-0.1803,-0.2066,-0.2468,-0.3016,-0.3522,-0.3884,-0.4131,-0.4361,-0.4477,-0.4475,-0.4241,-0.3915,-0.3644,-0.4844,-0.5249,0.0,0.0,-0.6166,-0.6163,-0.4739,-0.5174,-0.6664,-0.7423,-0.7658,-0.7844,-0.9623,-1.1052,-1.2419,-1.39,-1.3925,-1.3399,-1.3317,-1.5065,-1.7413,-1.8927,-2.0775,-2.2318,-2.2519,-2.2019,-2.1346,-2.0934,-2.0372,-1.9656,-1.8701,-1.7816,-1.7706,-1.9406,-1.969,-1.9603,-1.9281,0.0,0.0,-2.2127,-2.3614,-2.5016,0.0,-2.6081,0.0,-2.672,-2.737,-2.8133,0.0,-2.9928,-3.0649,-3.1157,-3.119,-3.1495,-3.2154,-3.2797,-3.2547,-3.1292,-3.1248,-3.1077,-3.079,-3.1505,-3.1873,-3.1987,-3.2365,-3.3433,-3.5013,0.0,-3.5622,-3.5622,-3.5622,-3.6671,-3.8376,-3.8609,-4.0671,-4.3356,-4.2386,-4.1196,-4.007,0.0,0.0,0.0,0.0,0.0,0.0,0.0,0.0,0.0,0.0,0.1891,0.1803,0.0,0.0,0.0,0.0,0.0,0.0,0.0,0.0,-0.1869,-0.2022,-0.1891,-0.1847,-0.1909,-0.2415,-0.2616,-0.2551,-0.3584,-0.4045,-0.4006,-0.4319,-0.4573,-0.4767,-0.4529,-0.4231,-0.4032,-0.5837,-0.6016,-0.5108,-0.5108,-0.563,-0.6295,0.0,-0.5108,-0.5341,-0.7073,-0.8744,-1.0451,-1.2659,-1.3008,-1.293,-1.5071,-1.4834,-1.3806,-1.3806,-1.6095,-1.9894,-2.5987,-2.5933,-2.4132,-2.3752,-2.2574,-2.1199,-2.0263,-1.9905,-1.9234,-1.7313,-1.7666,-1.8612,-1.953,-1.969,-1.9479,-1.8855,0.0,-2.1332,-2.2322,-2.3201,-2.4343,-2.6036,-2.7055,-2.7667,-2.7736,-2.825,-2.9383,-3.1394,-3.2177,-3.2256,-3.1529,-3.1562,-3.2141,-3.3369,-3.446,-3.3859,-3.1406,-3.1323,-3.1355,-3.1404,-3.2056,-3.1998,-3.1413,-3.334,-3.4259,-3.4421,-3.525,0.0,-3.5808,-3.5791,-3.6485,-3.7653,-3.8329,-4.0413,-4.281,-4.0844,-4.007,-4.007,0.0,0.0,0.0,0.0,0.0,0.0,0.0,0.0,0.0,0.0,0.2389,0.1803,0.0,0.0,0.0,0.0,0.0,0.0,0.0,0.0,0.0,-0.3153,-0.2307,-0.2033,-0.2528,-0.2493,-0.2724,-0.3309,-0.3723,-0.4159,-0.4563,-0.5059,-0.5423,-0.5667,-0.5627,-0.5775,-0.6094,-0.6448,-0.6016,-0.5108,-0.5108,-0.5204,-0.5328,-0.5166,0.0,0.0,-0.7073,-0.7911,-0.8714,-1.2102,-1.3927,-1.5005,-1.6026,-1.617,-1.5966,-1.5966,-1.6429,-1.8464,-2.5654,-2.7285,-2.6391,-2.4177,-2.3393,-2.2848,-2.1624,-2.0489,-1.9597,-1.9213,-1.9281,-1.9479,-1.969,-1.969,-1.9639,-1.953,-2.0333,-2.1192,-2.1758,-2.3329,-2.4762,0.0,-2.6811,-2.7981,-2.896,-2.9726,0.0,0.0,0.0,-3.3795,-3.3068,-3.3423,-3.3645,-3.3549,-3.2628,-3.1887,-3.1406,-3.1397,-3.1369,-3.1413,-3.1519,-3.1576,-3.1602,-3.3035,-3.4317,-3.5385,-3.5537,0.0,-3.6823,-3.6654,-3.6366,-3.6113,-3.7518,-3.9141,-4.0642,-4.0254,-4.007,-4.007,0.0,0.0,0.0,0.0,0.0,0.0,0.4837,0.4656,0.413,0.3563,0.3025,0.2676,0.2676,0.2154,0.0819,0.0,0.0,0.0,0.0,0.0,0.0,-0.3442,-0.2982,-0.2713,-0.281,-0.2783,-0.3004,-0.3507,0.0,-0.4512,-0.4924,-0.5526,-0.5973,-0.6272,-0.6272,-0.6099,-0.5815,-0.5815,-0.5537,-0.5049,-0.4486,-0.4273,-0.4333,-0.4893,0.0,0.0,-0.665,-0.7629,-0.8549,-1.0312,-1.2798,-1.5304,-1.622,-1.6522,-1.6748,-1.789,-1.9045,-2.1069,-2.6228,-2.7625,-2.726,-2.5989,-2.4118,-2.2531,-2.2093,-2.0825,-1.969,-1.969,-1.969,-1.969,-1.969,-1.969,-1.969,-1.969,-2.0034,-2.0752,-2.2024,-2.3295,-2.4597,-2.5959,-2.6976,-2.7946,0.0,0.0,0.0,0.0,0.0,-3.4189,-3.3467,-3.3743,-3.3484,-3.2555,-3.2275,-3.1945,-3.1435,-3.1435,-3.1448,-3.1448,-3.1867,-3.1867,-3.1627,-3.3677,-3.5005,-3.5622,-3.5622,0.0,-3.6383,-3.7077,-3.7144,-3.6806,-3.6738,-3.8091,-4.007,-4.007,-4.007,-4.007,0.0,0.0,0.0,0.0,0.0,0.0,0.36,0.4637,0.4712,0.3631,0.3503,0.3503,0.3503,0.2245,0.0646,0.0,0.0,0.0,0.0,0.0,0.0,0.0,-0.3181,-0.3074,-0.295,0.0,0.0,-0.3674,-0.4412,0.0,0.0,0.0,0.0,0.0,-0.6599,-0.6034,-0.5108,-0.5108,-0.5108,0.0,0.0,-0.3506,-0.3647,0.0,0.0,0.0,0.0,-0.8223,-0.9442,-0.9442,-1.1588,-1.4479,-1.5906,-1.6411,-1.6948,-1.9158,-2.1396,-2.3872,-2.6806,-2.7625,-2.749,-2.6905,-2.4258,-2.1858,-2.1986,-2.1007,-2.007,-2.007,-1.9945,-1.9854,-1.9854,-1.966,-1.953,-1.953,-1.953,-2.0124,-2.1847,-2.2984,-2.4238,0.0,-2.7006,0.0,-2.8725,0.0,0.0,0.0,0.0,0.0,-3.3752,-3.3496,-3.2879,-3.1796,-3.2312,-3.2256,-3.1539,-3.1482,-3.1482,-3.1539,-3.2201,-3.2201,-3.1582,-3.4041,-3.5654,-3.6569,-3.6569,0.0,0.0,-3.728,-3.8091,-3.8261,-3.7043,-3.8007,-4.007,-4.007,-4.007,-4.007,0.0,0.0,0.0,0.0,0.0,0.0,0.0427,0.3101,0.4724,0.3647,0.35,0.35,0.35,0.1511,0.0067,0.0,0.0,0.0,0.0,0.0,0.0,0.0,0.0,0.0,0.0,0.0,0.0,-0.4232,-0.4788,0.0,0.0,0.0,0.0,0.0,0.0,-0.6034,-0.5108,-0.5108,0.0,0.0,0.0,0.0,0.0,0.0,0.0,0.0,0.0,-1.0427,-1.152,-1.152,-1.1769,-1.2526,-1.5051,-1.6159,-1.6948,-1.9158,-2.1574,-2.4146,-2.6852,-2.7625,-2.704,-2.4567,-2.3106,-2.2052,-2.1293,-2.1181,-2.1244,-2.1244,-2.0715,-2.0246,-2.0246,-1.9543,-1.8968,-1.8968,-1.8968,-1.9243,-2.0063,-2.2138,-2.3894,-2.4717,0.0,0.0,-2.9323,0.0,0.0,0.0,0.0,0.0,-3.4477,-3.336,-3.2641,-3.2477,-3.1951,-3.1582,-3.1482,-3.1482,-3.1482,-3.1482,-3.2197,-3.2167,-3.1569,-3.3034,-3.5911,-3.9665,-3.9665,0.0,0.0,-3.728,-3.8684,-3.9868,-3.9715,-3.9834,-4.007,-4.007,-4.007,-4.007,0.0,0.0,0.0,0.0,0.0,0.0,-0.0,0.1149,0.1872,0.1458,0.1401,0.1401,0.1401,-0.0091,-0.1086,-0.1073,-0.1513,0.0,0.0,0.0,0.0,0.0,0.0,0.0,0.0,0.0,-0.4058,-0.4175,-0.5001,0.0,0.0,0.0,0.0,0.0,0.0,0.0,-0.413,-0.413,0.0,0.0,0.0,0.0,0.0,0.0,0.0,0.0,0.0,0.0,-1.1897,-1.2553,-1.2336,-1.2095,-1.3728,-1.4363,-1.4938,-1.7174,-1.9486,-2.2235,-2.6465,-2.7625,-2.6606,-2.2308,-2.1311,-2.1323,-2.1244,-2.0858,-2.0619,-2.1069,-2.0715,-2.0143,-1.9564,-1.914,-1.8779,-1.8458,-1.8072,-1.8299,-1.9688,-2.0738,-2.2184,-2.4358,-2.5674,0.0,0.0,0.0,0.0,0.0,0.0,0.0,-3.3391,-3.2477,-3.1951,-3.1951,-3.164,-3.1482,-3.1482,-3.1352,-3.1287,-3.1287,-3.1482,-3.1933,-3.2706,-3.2437,-3.323,-3.5015,-3.6653,0.0,0.0,-3.8183,-3.9546,-3.9901,-3.8076,-3.8486,-4.007,-4.007,-4.007,-4.007,0.0,0.0,0.0,0.0,0.0,-0.0,-0.0,-0.0,-0.0248,-0.0936,-0.0424,-0.0,-0.0,-0.1071,-0.1942,-0.2279,-0.2,0.0,0.0,0.0,0.0,0.0,0.0,0.0,0.0,-0.3626,-0.4159,-0.4398,-0.526,-0.5638,0.0,0.0,0.0,0.0,0.0,0.0,0.0,0.0,0.0,0.0,0.0,0.0,0.0,0.0,0.0,0.0,0.0,0.0,0.0,0.0,0.0,-1.1966,-1.289,-1.3198,-1.3604,-1.567,-1.747,-1.9866,-2.4589,-2.5952,-2.5172,-2.1574,-2.0709,-2.0857,-2.1303,-2.0578,-1.9989,-2.0698,-2.0302,-1.9641,-1.9207,-1.8712,-1.8302,-1.7907,-1.7474,-1.7619,-1.8941,-1.962,-2.0864,0.0,0.0,0.0,0.0,0.0,0.0,0.0,0.0,0.0,-3.2272,-3.1796,-3.1482,-3.1482,-3.1482,-3.1409,-3.1161,-3.1148,-3.0979,-3.0731,-3.1119,-3.1858,-3.2901,-3.2766,-3.2706,-3.2811,-3.4696,0.0,0.0,-3.8816,-3.9558,-3.8525,-3.6368,-3.6829,-3.887,-3.9782,-4.007,-4.007,0.0,0.0,0.0,0.0,0.0,-0.0,-0.0,-0.0,-0.0838,-0.3169,-0.1445,-0.0,-0.0,-0.1075,-0.2258,-0.3379,-0.2459,0.0,0.0,0.0,0.0,0.0,0.0,0.0,-0.2697,-0.2719,-0.3494,-0.5088,-0.563,-0.6129,-0.6582,-0.6599,-0.6081,-0.5069,0.0,0.0,0.0,0.0,-0.4109,0.0,0.0,0.0,-0.7885,0.0,0.0,0.0,0.0,0.0,0.0,0.0,0.0,0.0,0.0,-1.3198,-1.356,-1.5298,-1.6135,-1.7319,-2.0811,-2.2049,-2.2454,-2.2852,-2.1868,-2.0925,-2.1401,-2.0451,-1.9679,-2.0365,-1.95,-1.8807,-1.945,-1.8324,-1.7312,-1.7312,-1.7299,-1.7299,-1.7312,-1.8917,-2.0302,0.0,0.0,0.0,0.0,0.0,0.0,0.0,0.0,0.0,-3.1524,-3.1524,-3.1482,-3.1482,-3.1482,-3.1087,-3.0329,-3.0826,-3.0688,-2.9799,-3.1503,-3.1988,-3.1586,-3.4262,-3.5474,0.0,0.0,0.0,0.0,-3.8816,-3.8302,-3.5569,-3.5504,-3.5504,-3.591,-3.8978,-4.007,-4.007,0.0,0.0,0.0,0.0,0.0,0.0,0.0548,-0.0,-0.0261,-0.1012,-0.0465,-0.0315,-0.1135,-0.1566,-0.2258,-0.34,-0.2459,0.0,0.0,0.0,0.0,0.0,0.0,-0.2263,-0.3223,-0.3971,-0.4228,-0.3999,-0.5598,-0.6099,-0.5574,-0.5574,-0.4604,-0.2895,-0.4078,-0.4191,0.0,-0.4293,-0.5184,0.0,0.0,-0.7665,-0.7957,0.0,0.0,0.0,0.0,0.0,0.0,0.0,0.0,0.0,0.0,0.0,0.0,-1.3425,-1.4974,-1.6348,-1.7774,-1.8012,-1.8365,-2.0418,-1.9601,-1.8522,-1.9495,-1.9214,-1.8925,-1.962,-1.9146,-1.8584,-1.8584,-1.7894,-1.7188,-1.6795,-1.6752,-1.6879,-1.7229,0.0,0.0,0.0,0.0,0.0,0.0,0.0,0.0,0.0,0.0,0.0,-3.0703,-3.0703,-3.0896,-3.1467,-3.097,-3.0727,-3.084,-3.0174,-2.9927,-3.0174,-3.0421,-3.0526,-3.0352,-3.1242,-3.3003,0.0,0.0,0.0,0.0,-3.8816,-3.8302,-3.5504,-3.5504,-3.5504,-3.5619,-3.66,-3.6935,-3.6935,0.0,0.0,0.0,0.0,0.0,0.0,0.3478,0.2385,0.1458,0.017,-0.0,-0.0464,-0.1666,-0.1801,-0.2262,-0.3405,-0.285,0.0,0.0,0.0,0.0,0.0,-0.1803,-0.2709,-0.4631,-0.5327,-0.5346,-0.467,-0.559,-0.5723,-0.5088,-0.4686,-0.3976,-0.3105,-0.4481,-0.4726,0.0,-0.5223,-0.6206,-0.7171,-0.7952,-0.8267,-0.8459,0.0,0.0,0.0,0.0,0.0,0.0,0.0,0.0,0.0,0.0,0.0,0.0,0.0,-1.3445,-1.458,-1.5864,-1.6221,-1.6597,-1.8339,-1.8194,-1.7787,-1.8535,-1.8141,-1.7748,-1.8254,-1.7974,-1.762,-1.7534,-1.7194,-1.6879,-1.6552,-1.6522,-1.6637,-1.6951,0.0,0.0,0.0,0.0,0.0,0.0,0.0,0.0,0.0,0.0,0.0,-3.0329,-3.0011,-3.0011,-3.0524,-3.024,-3.0087,-3.0146,-2.9781,-2.9371,-2.8905,-2.9466,-2.9792,-2.9869,-3.1294,-3.3227,0.0,0.0,0.0,0.0,-3.7557,-3.7219,-3.5504,-3.5504,-3.5504,-3.5504,-3.5504,-3.5504,-3.5294,0.0,0.0,0.0,0.0,0.0,0.0,0.0,0.6229,0.3869,0.0449,-0.0,-0.0436,-0.1549,-0.1668,-0.21,-0.3156,-0.3401,0.0,0.0,0.0,0.0,-0.1971,-0.2037,-0.3475,-0.6535,-0.6599,-0.6564,-0.6483,-0.5555,-0.5108,-0.5069,-0.4089,-0.415,-0.5108,-0.5108,-0.5175,-0.5356,-0.6359,-0.7237,-0.8026,-0.8644,-0.9027,0.0,0.0,0.0,0.0,0.0,0.0,0.0,0.0,0.0,0.0,0.0,0.0,0.0,0.0,0.0,0.0,0.0,-1.6057,-1.6594,-1.6652,-1.7481,-1.825,-1.8224,-1.7183,0.0,-1.6473,-1.6241,-1.6109,-1.6452,-1.6468,-1.6471,-1.6509,-1.6522,-1.6522,-1.6522,-1.7718,0.0,0.0,0.0,0.0,0.0,0.0,0.0,0.0,0.0,0.0,-3.0076,-2.931,-2.8821,-2.8734,-2.9244,-2.916,-2.8486,-2.9437,-2.8736,-2.6531,-2.8533,-2.9549,-2.9934,-3.3322,-3.5115,0.0,0.0,0.0,0.0,-3.5504,-3.5504,-3.5439,-3.5213,-3.5294,-3.5504,-3.5504,-3.5359,-3.4572,0.0,0.0,0.0,0.0,0.0,0.0,0.0,0.0,0.0,0.0,-0.0,-0.0109,-0.04,-0.0425,-0.0526,0.0,0.0,0.0,0.0,0.0,0.0,-0.4244,-0.4332,-0.5039,-0.6564,-0.6599,-0.6224,-0.5442,-0.5224,-0.5108,-0.5088,-0.4853,-0.4853,-0.5108,-0.5108,-0.5904,-0.729,-0.804,-0.8473,-0.8679,-0.8835,-1.028,0.0,0.0,0.0,0.0,-0.8135,-0.8304,0.0,0.0,0.0,0.0,0.0,0.0,0.0,0.0,-1.2455,-1.1939,-1.2568,0.0,-1.4679,-1.5323,-1.62,-1.6765,0.0,-1.6009,-1.5771,-1.577,-1.536,-1.5349,-1.6334,-1.6147,-1.6019,-1.6446,-1.6522,-1.6522,-1.6522,0.0,0.0,0.0,0.0,0.0,0.0,0.0,0.0,0.0,0.0,-2.9029,-2.7751,-2.7511,-2.6922,-2.5995,-2.6445,-2.7284,-2.8486,-2.7257,-2.6701,-2.6663,-2.617,-2.7347,-2.9729,-2.8976,-3.1149,0.0,0.0,0.0,-3.5504,-3.5504,-3.5504,-3.5213,-3.229,-3.2932,-3.5504,-3.5504,-3.3644,-3.1009,0.0,0.0,0.0,0.0,0.0,0.0,0.0,0.0,0.0,0.0,-0.0,-0.0,-0.0,-0.0,-0.0636,0.0,0.0,0.0,-0.3527,-0.3376,-0.3851,-0.5049,-0.5108,-0.5574,-0.6582,-0.7306,-0.6815,-0.5108,-0.5108,-0.5108,-0.5108,-0.5108,-0.5108,-0.5156,-0.6323,-0.7402,-0.8396,-0.9009,-0.9257,-0.9257,-0.9257,0.0,0.0,0.0,0.0,0.0,-0.8485,-0.8358,0.0,-1.2253,-1.2687,-1.1876,0.0,0.0,0.0,0.0,-1.2799,-1.2154,-1.205,-1.2894,-1.4055,-1.5143,-1.5898,-1.6239,-1.5734,-1.5491,-1.5254,-1.485,-1.4734,-1.4823,-1.5272,-1.5159,-1.5217,-1.596,-1.6131,-1.6523,0.0,0.0,0.0,0.0,0.0,0.0,0.0,0.0,0.0,0.0,0.0,-2.8382,-2.7422,-2.6517,-2.5723,-2.4992,-2.4809,-2.554,-2.7213,-2.6419,-2.5978,-2.5876,-2.5378,-2.6065,-2.7782,-2.8318,-3.0443,0.0,0.0,0.0,-3.3769,-3.4996,-3.4505,-3.2648,-3.0583,-3.1084,-3.2861,-3.2861,-3.1576,-2.9534,0.0,0.0,0.0,0.0,0.0,0.0,0.0,0.0,0.0,0.0,0.0,0.0,0.0,0.0,0.0,0.0,0.0,-0.4646,-0.3569,-0.4507,-0.5166,-0.5309,-0.5328,-0.5848,-0.6921,-0.8,-0.7489,-0.5328,-0.5185,-0.5108,-0.5108,-0.5262,-0.5502,-0.5902,-0.8055,-0.9033,-0.9047,-0.9508,-0.9698,-0.9698,-0.9698,0.0,0.0,0.0,0.0,0.0,0.0,0.0,0.0,-1.1855,-1.2113,-1.1574,-1.2795,0.0,0.0,0.0,0.0,0.0,-1.2396,-1.3061,-1.4023,-1.5117,-1.576,-1.595,-1.5447,-1.5137,-1.469,-1.3967,-1.4162,-1.4387,-1.4087,-1.4113,-1.4542,-1.5444,0.0,0.0,0.0,0.0,0.0,0.0,0.0,0.0,0.0,0.0,0.0,0.0,0.0,-2.766,-2.7536,-2.5782,-2.4732,-2.4673,-2.3636,-2.3711,-2.5011,-2.5757,-2.5675,-2.4769,-2.5165,-2.5261,-2.5205,-2.8756,-3.0758,-3.1659,0.0,0.0,-3.1646,-3.3416,-3.2236,-2.9315,-2.9666,-2.9578,-2.9327,-2.9666,-2.9792,-2.9131,0.0,0.0,0.0,0.0,0.0,0.0,0.0,0.0,0.0,0.0,0.0,0.0,0.0,0.0,0.0,0.0,-0.5108,-0.4646,-0.3569,-0.4507,-0.548,-0.6343,-0.6378,-0.7044,-0.8522,-0.7489,-0.6752,-0.6378,-0.5518,-0.5108,-0.5127,-0.5961,-0.7301,-0.8999,-0.9411,-0.9585,-0.9593,-0.9675,-0.9698,-0.9698,-0.9698,0.0,0.0,0.0,0.0,0.0,0.0,0.0,0.0,-0.9433,-0.9484,-0.9664,-1.147,0.0,0.0,0.0,0.0,0.0,-1.259,-1.3187,-1.3641,-1.3606,-1.4371,-1.4954,-1.4328,-1.4117,-1.3934,-1.3425,-1.3364,-1.3556,-1.3988,-1.4475,-1.4987,0.0,0.0,0.0,0.0,0.0,0.0,0.0,0.0,0.0,0.0,0.0,0.0,0.0,0.0,-2.609,-2.5307,-2.4316,-2.3602,-2.3265,-2.1953,-2.1353,-2.156,-2.3145,-2.3886,-2.3738,-2.4236,-2.4224,-2.3892,-2.6116,-2.8797,-3.1655,0.0,-3.4034,-3.1307,-2.8885,-2.7554,-2.7155,-2.9051,-2.8637,-2.7205,-2.9089,-2.9792,-2.9131,0.0,0.0,0.0,0.0,0.0,0.0,0.0,0.0,0.0,0.0,0.0,0.0,0.0,0.0,0.0,0.0,-0.5404,-0.4893,-0.4386,-0.5327,-0.6486,-0.7778,-0.7849,-0.8175,-0.888,-0.7383,-0.6343,-0.5797,-0.5328,-0.5366,-0.5932,-0.7544,-0.886,-0.9922,-0.9922,-0.9832,-0.9698,-0.9698,-0.9698,-0.9698,0.0,0.0,0.0,0.0,0.0,0.0,0.0,0.0,0.0,0.0,-0.9975,-1.1388,-1.1692,0.0,0.0,0.0,0.0,0.0,-1.2414,-1.2953,-1.3318,-1.3104,-1.3882,-1.4564,-1.4019,-1.3676,-1.3493,-1.3606,-1.3152,-1.3012,-1.3839,0.0,-1.4466,0.0,0.0,0.0,0.0,0.0,0.0,0.0,0.0,0.0,0.0,0.0,0.0,0.0,0.0,0.0,-2.428,-2.3245,-2.2434,-2.1773,-2.0585,-1.9991,-1.9991,-2.1381,-2.2232,-2.2719,-2.3489,-2.3675,-2.3509,-2.555,-2.7351,-2.8862,0.0,-2.9995,-2.8684,-2.7162,-2.6533,-2.6634,-2.7595,-2.7369,-2.6798,-2.8963,-2.9792,-2.9534,0.0,0.0,0.0,0.0,0.0,0.0,0.0,0.0,0.0,0.0,0.0,0.0,0.0,0.0,0.0,0.0,-0.5087,-0.5204,-0.5442,-0.6516,-0.7768,-0.9162,-0.9223,-0.9125,-0.8902,-0.7383,-0.6117,-0.5108,-0.5108,-0.5093,-0.5125,-0.8312,-0.9925,-1.016,-1.0117,-0.9941,-0.9698,-0.9698,-0.9698,-0.9698,0.0,0.0,0.0,0.0,0.0,0.0,0.0,0.0,0.0,0.0,0.0,0.0,0.0,0.0,0.0,-1.1876,-1.179,-1.1844,-1.2088,-1.2454,-1.2691,-1.2455,-1.3377,-1.4287,-1.4006,-1.3621,-1.3467,-1.3915,-1.34,-1.302,-1.3628,-1.3697,0.0,0.0,0.0,0.0,0.0,0.0,0.0,0.0,0.0,0.0,0.0,0.0,0.0,0.0,0.0,0.0,-2.3592,-2.2301,-2.1261,-2.0667,-1.9596,-1.8984,-1.8984,-1.9748,-2.0732,-2.2036,-2.2893,-2.3411,-2.3641,-2.5073,-2.5963,-2.6533,-2.6533,-2.6533,-2.6533,-2.6533,-2.6533,-2.6533,-2.6533,-2.6533,-2.6798,-2.8963,-2.9792,-2.9792,0.0,0.0,0.0,0.0,0.0,0.0,0.0,0.0,0.0,0.0,0.0,0.0,0.0,0.0,-0.0464,-0.0464,-0.3319,-0.5499,-0.643,-0.7902,-0.9176,-1.0163,-1.0209,-0.9786,-0.8918,-0.7383,-0.6117,-0.5108,-0.5108,-0.3509,-0.0621,-0.7069,-1.0153,-1.0272,-1.0153,-0.9941,-0.9698,-0.9698,-0.9698,-0.9698,-0.9698,0.0,0.0,0.0,0.0,0.0,0.0,0.0,0.0,0.0,0.0,0.0,0.0,0.0,-1.3086,-1.2092,-1.176,-1.1719,-1.173,-1.1596,-1.1355,-1.1044,-1.2475,-1.398,-1.4075,-1.4058,-1.4038,-1.3998,-1.4104,-1.3974,0.0,-1.4313,0.0,0.0,0.0,0.0,0.0,0.0,0.0,0.0,0.0,0.0,0.0,0.0,0.0,0.0,0.0,0.0,-2.2779,-2.1152,-2.0239,-2.017,-1.8841,-1.8105,-1.8105,-1.8164,-1.9493,-2.2036,-2.2531,-2.3268,-2.409,-2.3591,-2.4506,-2.6533,-2.6533,-2.6533,-2.6533,-2.6533,-2.6533,-2.6533,-2.6533,-2.6533,-2.6798,-2.8963,-2.9792,-2.9792,0.0,0.0,0.0,0.0,0.0,0.0,0.0,0.0,0.0,0.0,0.0,1.0293,1.0293,0.0,-0.0,-0.0,-0.3705,-0.6853,-0.8784,-0.89,-0.9057,-0.9423,-0.9757,-0.9763,-0.9412,-0.8493,-0.7371,-0.6034,-0.3277,-0.1265,-0.0156,-0.7016,-1.0244,-1.0293,-1.0155,-0.9941,-0.9713,-0.9881,-0.996,-0.9944,-0.9757,-0.9768,0.0,0.0,0.0,0.0,0.0,0.0,0.0,0.0,-1.0982,-1.1805,-1.1805,-1.2071,-1.232,-1.1806,-1.1535,-1.1333,-1.1123,-1.1412,-1.1611,-1.1097,-1.1966,-1.2996,-1.3021,-1.2991,-1.3163,-1.3762,-1.3662,-1.3487,0.0,0.0,0.0,0.0,0.0,0.0,0.0,0.0,0.0,0.0,0.0,0.0,0.0,0.0,0.0,0.0,0.0,0.0,-2.0231,-1.9068,-1.8145,-1.7494,-1.6779,-1.6693,-1.7129,-1.7466,-1.8562,-2.0342,-2.1025,-2.2135,-2.354,-2.3203,-2.359,-2.4393,-2.4393,-2.3768,-2.2999,-2.5499,-2.5052,-2.3073,-2.5569,-2.7306,-2.8637,-2.9478,-2.9792,-2.9792,0.0,0.0,0.0,0.0,0.0,0.0,0.0,0.0,0.248,0.0,0.0,0.0,0.0,0.6082,0.3246,0.0,-0.3033,-0.7726,-0.9429,-0.8938,-0.8583,-0.8583,-0.9422,-0.9829,-0.971,-0.87,-0.6968,-0.452,-0.1478,-0.1096,-0.3293,-0.8064,-1.0293,-1.0293,-1.0155,-1.0006,-0.9832,-1.0011,-1.0094,-1.0082,-0.9904,-0.9819,0.0,0.0,0.0,0.0,0.0,0.0,0.0,0.0,-1.1205,-1.1205,-1.1205,-1.149,-1.1732,-1.1395,-1.117,-1.0948,-1.0534,-1.0672,-1.0854,-1.0462,-1.1005,-1.1722,-1.1869,-1.2352,-1.3128,-1.4264,-1.3614,-1.3296,-1.4606,0.0,0.0,0.0,0.0,0.0,0.0,0.0,0.0,0.0,0.0,0.0,0.0,0.0,0.0,0.0,0.0,0.0,0.0,-1.7041,-1.6132,-1.5451,-1.5195,-1.5384,-1.5839,-1.6486,-1.722,-1.8132,-1.8945,-2.0569,-2.2689,-2.2689,-2.2884,-2.3078,-2.2555,-2.1341,-2.0019,-2.3257,-2.3806,-2.2702,-2.5417,-2.7821,-2.9792,-2.9792,-2.9792,-2.9792,0.0,0.0,0.0,0.0,0.0,0.0,0.0,0.0,0.2519,0.9316,1.0254,0.0,0.0,0.0,0.0,0.0,-0.0882,-0.787,-0.7855,-0.787,-0.7885,-0.7899,-0.9438,-1.0115,-0.9695,-0.7628,-0.4395,0.0,0.0,-0.3422,-1.0002,-1.0219,-1.0293,-1.0293,-1.0158,-1.0094,-1.009,-1.0098,-1.0098,-1.0098,-1.0098,-1.0098,-1.0074,0.0,0.0,0.0,0.0,0.0,0.0,0.0,-0.9905,-0.9905,-0.9905,-1.076,-1.163,-1.0825,-1.0647,-1.0576,-0.9944,-0.9277,-0.8698,-0.8708,-0.9392,-1.0206,-1.0702,-1.2389,-1.4306,-1.5676,-1.4351,-1.3621,-1.602,-1.6479,0.0,0.0,0.0,0.0,0.0,0.0,0.0,0.0,0.0,0.0,0.0,0.0,0.0,0.0,0.0,0.0,0.0,-1.5212,-1.4279,-1.4279,-1.4271,-1.4271,-1.4279,-1.5053,-1.5514,-1.5514,-1.635,-1.8562,-2.1877,-2.1877,-2.2322,-2.3017,-2.1353,-1.9628,-1.8144,-1.9919,-2.2977,-2.6533,-2.6533,-2.7821,-2.9792,-2.9869,-2.9869,-2.9792,0.0,0.0,0.0,0.0,0.0,0.0,0.0,0.0,0.5923,0.3392,0.671,0.0,0.0,0.0,0.0,0.0,0.0,-0.5599,-0.4858,-0.5507,-0.652,-0.7841,-0.9438,-0.9932,-0.9159,-0.4418,-0.1315,0.0,0.0,-0.1019,-0.31,-0.8006,-1.0293,-1.0293,-1.0266,-1.007,-0.9838,-1.0119,-1.024,-1.024,-1.024,-1.024,-1.0454,0.0,0.0,0.0,0.0,0.0,0.0,0.0,0.0,0.0,-0.9905,-1.0701,-1.1399,-1.0027,-1.0145,-1.0397,-0.8981,-0.9156,-0.9661,-0.9347,-0.9844,-1.0507,-1.0621,-1.1967,-1.3342,-1.3801,-1.3827,-1.3769,-1.3963,0.0,0.0,0.0,0.0,0.0,0.0,0.0,0.0,0.0,0.0,0.0,0.0,0.0,0.0,0.0,0.0,0.0,0.0,-1.3566,-1.2936,-1.2856,-1.2623,-1.2804,-1.3302,-1.3891,-1.4597,-1.5514,-1.5753,-1.7476,-2.0522,-2.1253,-2.2113,-2.3078,-2.2567,-2.0707,-1.8241,-2.1129,-2.3996,-2.6533,-2.6533,-2.7821,-3.0152,-3.2791,-3.2074,-2.9566,0.0,0.0,0.0,0.0,0.0,0.0,0.9385,0.737,0.5288,0.3742,0.6664,0.888,0.0,0.0,0.0,0.0369,-0.2741,-0.3991,-0.2891,-0.4248,-0.594,-0.7812,-0.9073,-1.0045,-1.0672,-0.7445,-0.5887,-0.6113,-0.4766,-0.4102,-0.418,-0.8359,-1.0293,-1.0293,-1.0293,-1.0166,-0.9952,-1.0197,-1.027,-1.0229,-1.0229,-1.0245,-1.0484,0.0,0.0,0.0,0.0,0.0,0.0,0.0,0.0,0.0,-0.9542,-0.9936,-1.0305,-0.9329,-0.9345,-0.9448,-0.8387,-0.8286,-0.8464,-0.8382,-0.9179,-1.0288,-1.1302,-1.2224,0.0,0.0,-1.4781,-1.512,-1.3921,0.0,0.0,0.0,0.0,0.0,0.0,0.0,0.0,0.0,0.0,0.0,0.0,0.0,0.0,0.0,0.0,0.0,0.0,-1.2014,-1.1452,-1.1374,-1.1195,-1.1351,-1.1804,-1.2553,-1.3296,-1.4018,-1.4342,-1.5894,-1.8437,-1.9565,-2.0648,-2.1729,-2.1279,-1.9868,-1.8319,-2.2692,-2.5247,-2.6533,-2.6533,-2.7281,-2.895,-3.2558,-3.1604,-2.8273,0.0,0.0,0.0125,0.0526,0.0,0.0,0.8578,0.403,0.2552,0.7989,0.8698,0.8162,0.0,0.0,0.0,0.0,-0.2047,-0.2912,-0.1869,-0.3687,-0.5654,-0.7561,-0.8711,-1.0591,-1.3352,-1.4185,-1.4849,-1.5391,-1.1973,-1.0469,-1.0762,-1.0408,-0.992,-0.9355,-0.9355,-0.9355,-0.9395,-1.0019,-1.0199,-1.0085,-1.0383,-1.0396,-1.0233,-1.0152,0.0,0.0,0.0,0.0,0.0,0.0,0.0,0.0,-0.8926,-0.8678,-0.8687,-0.8772,-0.8531,-0.8174,-0.8017,-0.6958,-0.6034,-0.6348,-0.7781,0.0,-1.2011,-1.2559,-1.3099,-1.4685,0.0,-1.6461,-1.4797,0.0,0.0,0.0,0.0,0.0,0.0,0.0,0.0,0.0,0.0,0.0,0.0,0.0,0.0,0.0,0.0,0.0,0.0,-1.0512,-1.0013,-1.0074,-1.0074,-1.008,-1.0094,-1.1088,-1.1665,-1.1727,-1.2565,-1.4056,-1.5958,-1.7195,-1.8386,-1.9486,-1.8462,-1.8008,-1.8388,-2.3569,-2.6046,-2.6533,-2.6533,-2.6714,-2.7284,-3.0011,-2.9129,-2.6533,0.0,0.0,0.1089,0.457,0.0,0.0,0.603,0.5499,0.5639,0.6931,0.7101,0.6969,0.6651,0.2655,0.0,0.0,-0.1333,-0.2066,-0.1825,-0.225,-0.3475,-0.5613,-1.0029,-1.2735,-1.3392,-1.4589,-1.5274,-1.5391,-1.1973,-1.168,-1.4238,-1.1231,-0.7107,-0.2207,-0.2207,-0.2207,-0.2558,-0.7886,-1.0001,-1.0001,-1.2548,-1.2062,-0.9857,-1.0148,-1.1918,0.0,0.0,0.0,0.0,0.0,0.0,0.0,-0.7994,-0.7813,-0.784,-0.8594,-0.8918,-0.8717,-0.7266,-0.6576,-0.6135,-0.551,-0.7102,-0.8952,-0.9518,-1.0081,-1.0818,-1.2068,-1.2378,0.0,0.0,0.0,0.0,0.0,0.0,0.0,0.0,0.0,0.0,0.0,0.0,0.0,0.0,0.0,0.0,0.0,0.0,0.0,-0.9313,-0.9079,-0.9172,-0.9773,-0.978,-0.9879,-1.0025,-1.0349,-1.0627,-1.087,-1.2324,-1.358,-1.463,-1.5289,-1.6571,-1.8327,-1.8144,-1.8008,-1.8105,-1.9332,-2.2469,-2.6533,-2.6533,-2.8117,-3.0208,-2.8298,-2.7095,-2.6533,0.0,0.0,0.0,0.0,0.0,0.0,0.0,0.0,0.5835,0.3719,0.3443,0.4064,0.5704,0.2356,0.0,0.0,-0.1092,-0.1926,-0.2218,-0.3017,-0.4348,-0.6271,-1.0369,-1.263,-1.263,-1.3316,-1.3674,-1.3674,-0.8103,-0.848,-1.439,-1.239,-0.7379,0.0,0.0,-0.2388,-0.6646,-1.0184,-1.1603,-1.1623,-1.3294,-1.2962,-1.1555,-1.242,-1.3244,-1.392,-1.3544,0.0,0.0,0.0,0.0,0.0,0.0,0.0,-0.7349,-0.7947,-0.7476,-0.6491,-0.5503,-0.5029,-0.4936,-0.5652,0.0,-0.7575,-0.6279,-0.8223,-0.9725,-0.7802,0.0,0.0,0.0,0.0,0.0,0.0,0.0,0.0,0.0,0.0,0.0,0.0,0.0,0.0,0.0,0.0,0.0,0.0,0.0,-0.8246,-0.808,-0.7963,-0.8074,-0.8425,-0.8483,-0.8679,-0.9144,-0.9443,-0.9864,-1.0363,-1.1745,-1.3,-1.4052,-1.5207,-1.6424,-1.7607,-1.7891,-1.8008,-1.8144,-1.9738,-2.2174,-2.487,-2.487,-2.6632,-2.8876,-2.7162,-2.6533,-2.6533,0.0,0.0,0.0,0.0,0.0,0.0,0.0,0.0,0.0,0.0476,0.0,0.1079,0.3909,0.169,-0.009,0.0,0.0,0.0,-0.2675,-0.4048,-0.5564,-0.7205,-0.9742,-1.1312,-1.1805,-1.0473,-0.9762,-0.9762,-0.3212,-0.3819,-1.1091,-1.1091,-0.7112,-0.0041,-0.0936,-0.571,-1.3122,-1.3122,-1.3122,-1.3122,-1.3122,-1.3243,-1.3551,-1.4891,-1.4703,-1.3712,-1.3476,-1.1737,-0.9331,-0.8109,0.0,0.0,0.0,0.0,-0.7036,-0.7258,-0.5976,-0.4182,-0.2946,-0.2439,-0.2899,-0.5652,-0.6455,0.0,-0.1249,-0.451,-0.7211,-0.2838,0.0,0.0,0.0,0.0,0.0,0.0,0.0,0.0,0.0,0.0,0.0,0.0,0.0,0.0,0.0,0.0,0.0,0.0,0.0,-0.6993,-0.7003,-0.6897,-0.6859,-0.7028,-0.7028,-0.7258,-0.7823,-0.851,-0.9174,-0.974,-1.1085,-1.2448,-1.3872,-1.5579,-1.6529,-1.6821,-1.7666,-1.8327,-1.9034,-2.1279,-2.2567,-2.3078,-2.3078,-2.4255,-2.5887,-2.5887,-2.5887,-2.5887,0.0,0.0,0.0,0.0,0.0,0.0,0.0,0.0,0.0,0.0,0.0,0.0174,0.0635,0.0267,-0.0425,-0.1471,-0.1714,-0.2064,-0.2675,0.0,0.0,-0.5554,-0.7297,-0.9355,-1.1747,-0.5068,-0.1573,-0.1573,-0.053,-0.0624,-0.1795,-0.1795,-0.1163,-0.0203,-0.4688,-0.8668,-1.2009,-1.2009,-1.2009,-1.2009,-1.2009,-1.2572,-1.3551,-1.4891,-1.5287,-1.4973,-1.3819,-1.1074,-0.7976,-0.7783,-0.4592,0.0,0.0,0.0,-0.6995,-0.7026,-0.6851,-0.524,0.0854,0.165,-0.0141,0.0,-0.4832,-0.22,0.0,0.0,0.1191,0.0,0.0,0.0,0.0,0.0,0.0,0.0,0.0,0.0,0.0,0.0,0.0,0.0,0.0,0.0,0.0,0.0,0.0,0.0,-0.5735,-0.5067,-0.4886,-0.5419,-0.6018,-0.6628,-0.6688,-0.6529,-0.622,-0.7622,-0.8297,-0.8241,-1.0373,-1.221,-1.3803,-1.4622,-1.5207,-1.5732,-1.7324,-1.9672,-2.2237,-1.9738,-2.0451,-2.3078,-2.3078,-2.3314,-2.3577,-2.3577,-2.3577,-2.3577,0.0,0.0,0.0,0.0,0.0,0.0,0.0,0.0,0.0,0.0,0.0,0.0,0.0,0.0,-0.0217,-0.0733,-0.1711,-0.2427,-0.2695,-0.174,-0.1532,-0.2309,-0.3023,-0.396,-0.5154,0.1862,0.5146,0.43,0.3424,0.2482,0.1507,0.1507,0.2029,0.2856,0.0592,-0.219,-0.5182,-0.5182,-0.6849,-0.9511,-0.9511,-1.0713,-1.2568,-1.3148,-0.7042,0.0687,-0.8249,-0.983,-0.7257,-0.4363,-0.1863,-0.0,-0.0,0.0,0.0,0.0,-0.6085,-0.4422,-0.1321,0.0045,-0.0184,0.0,-0.2264,0.1134,0.7546,0.0,0.0,0.0,0.0,0.0,0.0,0.0,0.0,0.0,0.0,0.0,0.0,0.0,0.0,0.0,0.0,0.0,0.0,0.0,0.0,0.0,-0.3746,-0.3685,-0.447,-0.4794,-0.5073,-0.5411,-0.5407,-0.534,-0.5109,-0.6332,-0.7646,-0.911,-0.9627,-1.0118,-1.06,-1.1833,-1.3506,-1.5537,-1.7575,-1.8987,-1.9791,-2.0549,-2.0632,-2.044,-2.2372,-2.3078,-2.3078,-2.3078,-2.3078,-2.3078,0.0,0.0,0.0,0.0,0.0,0.0,0.0,0.0,0.0,0.0,0.0,0.0838,0.0698,0.0,0.0,0.0,-0.1238,-0.2009,-0.2009,-0.0334,0.067,0.067,0.1099,0.1551,0.196,0.6798,0.8981,0.8269,0.6275,0.4403,0.2716,0.3138,0.4521,0.6584,0.6584,0.4853,0.1928,0.152,-0.1381,-0.5732,-0.5732,-0.698,-0.8789,-0.8789,0.1827,1.4595,-0.1594,-0.6673,-0.515,-0.1289,0.1183,0.2549,0.2111,-0.1974,0.0,0.0,0.0,-0.2387,-0.095,0.0784,0.2041,0.1432,0.4466,0.79,0.0,0.0,0.0,0.0,0.0,0.0,0.0,0.0,0.0,0.0,0.0,0.0,0.0,0.0,0.0,0.0,0.0,0.0,0.0,0.0,0.0,0.0,-0.1809,-0.2119,-0.3299,-0.3691,-0.4089,-0.4497,-0.4144,-0.3901,-0.3935,-0.5214,-0.7032,-0.925,-0.8663,-0.817,-0.7827,-0.9295,-1.1645,-1.4737,-1.7387,-1.8251,-1.7978,-2.0974,-2.0909,-1.9157,-2.2005,-2.3078,-2.3078,-2.3078,-2.3078,-2.3185,0.0,0.0,0.0,0.0,0.0,0.0,0.0,0.0,0.0,0.0,0.0,0.3118,0.2602,0.2562,0.1882,0.0134,-0.0101,-0.0134,-0.0134,0.1538,0.2547,0.2547,0.4135,0.0,0.7266,0.7647,0.8467,0.979,0.6768,0.4403,0.2746,0.4398,0.6917,1.0031,1.0031,0.9009,0.7207,0.5681,0.2917,-0.0401,-0.0401,-0.0498,-0.0626,-0.0626,0.8108,1.8508,0.4499,-0.0484,-0.0353,-0.0089,0.4332,0.9488,0.7807,0.1444,-0.5395,0.0,0.0,0.0,0.6346,0.8006,0.0,1.3467,1.7919,2.0378,0.0,0.0,0.0,0.0,0.0,0.0,0.0,0.0,0.0,0.0,0.0,0.0,0.0,0.0,0.0,0.0,0.0,0.0,0.0,0.0,0.0,0.0,-0.0111,-0.0167,-0.0223,-0.156,-0.3019,-0.4438,-0.3074,-0.2341,-0.2341,-0.4684,-0.635,-0.7234,-0.7341,-0.7296,-0.7167,-0.7985,-0.9762,-1.2461,-1.6126,-1.8306,-1.9389,-1.9814,-2.0494,-2.1443,-2.2605,-2.3078,-2.3078,-2.3078,-2.3078,-2.3518,0.0,0.0,0.0,0.0,0.0,0.0,0.0,0.0,0.0,0.0,0.0,0.0,0.0,0.3364,0.2444,0.1773,0.174,0.2194,0.3325,0.3995,0.4827,0.5861,0.651,0.7116,0.7695,0.8623,0.9384,0.9905,0.6819,0.4985,0.4371,0.5017,0.7101,1.0351,1.1616,1.0509,0.7453,0.3549,0.2902,0.4616,0.6045,0.3957,0.0465,0.4742,1.0895,1.6901,1.4192,0.0,1.014,1.014,1.0199,1.0176,0.9561,0.2118,-0.5795,-0.2804,0.0365,0.3435,0.5858,1.0447,0.0,1.8293,1.9427,1.9515,0.0,0.0,0.0,0.0,0.0,0.0,0.0,0.0,0.0,0.0,0.0,0.0,0.0,0.0,0.0,0.0,0.0,0.0,0.0,0.0,0.0,0.0,0.0,0.2443,0.1479,-0.0,-0.1952,-0.4448,-0.399,-0.2736,-0.0831,-0.3602,-0.6064,-0.8201,-0.713,-0.6362,-0.6069,-0.7996,-0.9631,-1.1214,-1.5157,-1.739,-1.8359,-1.9364,-2.0037,-2.0589,-2.2422,-2.3078,-2.3078,-2.3078,-2.4355,-2.6361,0.0,0.0,0.0,0.9577,0.0,1.0293,0.9922,0.8019,0.6242,0.5243,0.0,0.0,0.0,0.0,0.356,0.356,0.356,0.4296,0.5983,0.6575,0.7308,0.84,0.8439,0.8786,0.9526,1.0504,1.0646,0.9905,0.7923,0.639,0.5322,0.6438,0.6913,0.7012,1.0608,1.124,0.9316,0.5883,0.5865,0.8277,1.0407,0.7789,0.3206,0.8848,1.3179,1.6555,0.0,0.0,0.0,1.7311,1.5774,1.3574,1.2484,0.5213,-0.2334,0.0787,0.3263,0.5137,0.6156,1.1235,1.6793,0.0,1.9635,1.9634,1.9279,0.0,0.0,0.0,0.0,0.0,0.0,0.0,0.0,0.0,0.0,0.0,0.0,0.0,0.0,0.0,0.0,0.0,0.0,0.0,0.0,0.0,0.0,0.0,0.3073,0.205,0.0112,-0.2921,-0.2977,-0.2012,-0.0,-0.1995,-0.4177,-0.6588,-0.5611,-0.5303,-0.5758,-0.7807,-0.9595,-1.1255,-1.4232,-1.6242,-1.7468,-1.915,-1.9798,-2.0024,-2.2259,-2.3078,-2.3245,-2.4239,-2.644,-2.9305,0.9621,1.0936,1.2174,1.3191,1.3379,1.3051,1.1961,0.8905,0.6337,0.5323,0.0,0.0,0.0,0.0,0.0,0.5363,0.5426,0.6106,0.7684,0.9112,0.9905,0.9905,0.9944,1.1004,1.3216,1.3301,1.2197,1.0006,1.0276,0.8676,0.5511,0.8785,0.6709,0.0596,0.7295,1.1356,1.3129,1.3129,1.2054,1.0544,1.2461,1.0906,0.7898,1.1793,1.5169,1.7985,1.8912,1.9185,0.0,2.0192,0.0,0.0,0.0,1.1033,0.5392,0.5366,0.5642,0.6357,0.0,0.0,0.0,1.6083,0.0,0.0,2.0137,0.0,0.0,0.0,0.0,0.0,0.0,0.0,0.0,0.0,0.0,0.0,0.0,0.0,0.0,0.0,0.0,0.0,0.0,0.0,0.0,0.0,0.6211,0.6447,0.4646,0.4501,0.3091,0.0112,-0.0,-0.0,-0.0,-0.0,-0.0781,-0.2287,-0.2766,-0.4152,-0.6267,-0.7448,-0.9624,-1.251,-1.3489,-1.5079,-1.7135,-1.9032,-1.9798,-2.0024,-2.2259,-2.3125,-2.359,-2.6606,-2.9364,-3.1992,0.9816,1.1548,1.2815,1.2336,1.2889,1.3051,1.1961,1.0199,0.8501,0.0,0.0,0.0,0.534,0.5309,0.5618,0.6466,0.7981,0.9114,0.9544,0.9779,0.9905,0.9905,1.0784,1.2463,1.5016,1.5074,1.417,1.2284,1.2349,1.1209,0.894,0.9858,0.9268,0.752,0.9434,1.0611,1.1094,1.1094,1.1616,1.2461,1.2978,0.8742,0.3074,1.177,1.6784,1.9092,0.0,1.6846,1.5395,0.0,1.2845,0.6884,0.0,1.4424,1.2621,1.146,1.0799,1.077,1.2121,0.0,0.0,0.0,0.0,0.0,2.2758,2.2545,0.0,0.0,0.0,0.0,0.0,0.0,0.0,0.0,0.0,0.0,0.0,0.0,0.0,0.0,0.0,0.0,0.0,0.0,0.0,0.0,0.5572,0.547,0.5964,0.4003,0.1956,0.0056,-0.0,-0.0,-0.0,-0.0,-0.1287,-0.3881,-0.3981,-0.5128,-0.7275,-0.9479,-1.1487,-1.3233,-1.5732,-1.7571,-1.8911,-1.9542,-1.9798,-2.0024,-2.2259,-2.4412,-2.6683,-2.9426,-3.2154,-3.4544,1.0592,1.1785,1.2668,1.2494,1.298,1.3051,1.1961,1.0195,0.8434,0.0,0.0,0.0,0.5309,0.5718,0.6647,0.8254,0.9549,1.0283,1.0283,1.0908,1.1299,1.1299,1.1991,1.3471,1.574,1.5799,1.5299,1.4278,1.3547,1.2603,1.1505,1.0687,1.0283,1.0283,1.0283,1.0764,1.1505,1.1505,1.2162,1.3198,1.3198,1.0889,0.8033,1.3672,1.7102,1.8801,0.0,0.0,1.5308,1.5798,1.2624,0.0,0.0,1.7191,1.6503,1.5909,1.4778,1.4005,1.5146,1.6405,1.7934,2.0226,0.0,0.0,2.3835,2.3787,2.3136,0.0,0.0,0.0,0.0,0.0,0.0,0.0,0.0,0.0,0.0,0.0,0.0,0.0,0.0,0.0,0.0,0.5437,0.5701,0.6122,0.5374,0.5156,0.5675,0.4113,0.2178,0.0056,-0.0,-0.0,-0.0,-0.0,-0.2128,-0.6295,-0.6225,-0.7404,-0.9694,-1.1196,-1.3031,-1.5087,-1.7322,-1.882,-1.9838,-2.1496,-2.2574,-2.3163,-2.4463,-2.6065,-2.7904,-3.0552,-3.3219,-3.5622,0.0,1.1579,1.193,1.3034,1.3105,1.2692,1.1717,0.9367,0.7116,0.0,0.5309,0.5363,0.549,0.6622,0.8162,1.0118,1.0505,1.0621,1.0621,1.2234,1.3198,1.3198,1.3198,1.3934,1.5477,1.5712,1.5799,1.5799,1.4052,1.3198,1.3163,1.1207,1.0283,1.0283,1.0283,1.1394,1.3198,1.3425,1.3668,1.3921,1.3921,1.5372,0.0,0.0,1.667,1.7589,1.7589,1.7681,1.7405,1.4766,1.668,0.0,2.0733,1.9614,1.8271,1.9149,1.7942,1.656,1.7617,1.8943,2.0194,2.0974,2.2248,0.0,2.3914,2.452,2.4834,0.0,0.0,0.0,0.0,0.0,0.0,0.0,0.0,0.0,0.0,0.0,0.0,0.0,0.0,0.0,0.6691,0.6091,0.5701,0.5651,0.5542,0.5261,0.4648,0.4529,0.319,0.0335,0.0112,-0.0,-0.0,-0.0336,-0.3193,-0.8508,-0.8741,-1.0104,-1.2502,-1.2716,-1.442,-1.7283,-1.8523,-1.9443,-2.0412,-2.3917,-2.6281,-2.7625,-2.7625,-2.7805,-2.8344,-3.1016,-3.3531,-3.5622,1.021,1.0285,1.065,1.1909,1.1261,1.0503,1.0297,0.8794,0.7116,0.5522,0.5309,0.5638,0.658,0.8446,0.9834,1.0244,1.1715,1.2638,1.2638,1.2978,1.3198,1.3198,1.3198,1.3357,1.3715,1.5074,1.5799,1.5799,1.4052,1.3198,1.3163,1.1207,1.0283,1.0283,1.0283,1.1394,1.3301,1.469,1.6509,1.8425,1.8425,1.7545,1.6285,1.7101,1.6901,1.6176,1.6176,1.6876,1.7726,1.7151,1.7968,1.988,2.3503,2.2507,2.0223,2.144,2.0837,1.9909,2.066,2.1149,0.0,0.0,0.0,0.0,2.4118,2.4542,2.4388,0.0,0.0,0.0,0.0,0.0,0.0,0.0,0.0,0.0,0.0,0.0,0.0,0.0,0.0,0.0,0.6897,0.702,0.7015,0.6421,0.5814,0.5429,0.532,0.4805,0.3641,0.184,0.0615,-0.0,-0.0,-0.2413,-0.4705,-0.69,-0.8758,-1.0657,-1.2534,-1.4107,-1.5962,-1.8005,-1.9795,-2.1184,-2.2228,-2.356,-2.5481,-2.7625,-2.7625,-2.8876,-3.1071,-3.3777,-3.5161,-3.5622,0.9905,0.9905,1.0084,1.0736,1.0335,0.9659,0.8926,0.8184,0.7333,0.6283,0.6146,0.6373,0.6954,0.8973,1.0283,1.0283,1.209,1.3198,1.3198,1.3198,1.3198,1.3198,1.3198,1.3198,1.3198,1.4907,1.5359,1.4501,1.3648,1.3198,1.3198,1.2198,1.1763,1.1796,1.2901,1.4532,1.6508,1.7357,1.9009,2.0926,2.005,0.0,1.5955,1.7296,1.7384,1.6799,1.6799,1.7224,1.7811,1.7811,1.9723,0.0,2.4941,2.3874,2.1989,0.0,2.2675,2.1934,0.0,0.0,0.0,2.3849,0.0,0.0,0.0,2.4723,2.4592,0.0,0.0,0.0,0.0,0.0,0.0,0.0,0.0,0.0,0.0,0.0,0.0,0.0,0.0,0.0,0.7966,0.8528,0.8345,0.6745,0.5923,0.5487,0.5487,0.4864,0.3811,0.2232,0.0783,-0.0728,-0.2244,-0.5191,-0.6973,-0.7574,-1.0475,-1.259,-1.3972,-1.5892,-1.7549,-1.9054,-2.099,-2.26,-2.3892,-2.4654,-2.605,-2.7625,-2.7625,-2.919,-3.1531,-3.1552,-3.2389,-3.3626,0.9905,0.9905,0.9905,0.9905,0.9659,0.9089,0.7889,0.7451,0.7351,0.7588,0.7634,0.7634,0.7634,0.9222,1.0606,1.1433,1.2941,1.3837,1.3837,1.3837,1.3837,1.3837,1.3423,1.3198,1.3198,1.4596,1.4596,1.3198,1.3198,1.3198,1.3198,1.3198,1.3423,1.3811,1.3496,1.57,1.969,1.969,2.0514,2.1691,0.0,1.8286,1.6313,1.7384,1.7811,1.7811,1.7811,1.791,1.8172,1.8819,2.0749,2.3186,2.4999,2.4486,0.0,0.0,0.0,0.0,0.0,0.0,0.0,0.0,0.0,2.4861,0.0,0.0,0.0,0.0,0.0,0.0,0.0,0.0,0.0,0.0,0.0,0.0,0.0,0.0,0.0,0.0,0.0,0.0,0.0,1.064,1.0095,0.7564,0.6689,0.6196,0.6108,0.5073,0.3811,0.2232,0.0224,-0.23,-0.531,-0.7433,-0.8875,-0.9705,-1.2455,-1.4471,-1.5917,-1.762,-1.9066,-2.0297,-2.2227,-2.382,-2.5236,-2.6145,-2.698,-2.7625,-2.7625,-2.8876,-3.0563,-2.8869,-2.9524,-3.1613,0.9905,0.9905,0.9905,0.9905,0.8816,0.7889,0.7725,0.6504,0.6628,0.9533,0.9913,0.9913,0.9913,1.0157,1.1789,1.5484,1.6006,1.6145,1.6145,1.6145,1.6145,1.6145,1.4237,1.3198,1.3198,1.3391,1.3391,1.3198,1.3198,1.3198,1.3198,1.3198,1.4237,1.5731,0.6139,0.8512,1.969,1.969,1.9818,0.0,1.9782,1.8842,0.0,1.7726,1.7811,1.7811,1.7811,1.8358,1.9567,0.0,1.9298,1.5413,0.0,2.462,2.4152,0.0,0.0,0.0,0.0,0.0,0.0,0.0,2.5191,0.0,0.0,0.0,0.0,0.0,0.0,0.0,0.0,0.0,0.0,0.0,0.0,0.0,0.0,0.0,0.0,0.0,0.0,0.0,0.0,1.3779,1.2846,1.0428,0.9466,0.8751,0.8287,0.5855,0.3811,0.2232,-0.1845,-0.5365,-0.8294,-0.7749,-0.9414,-1.3199,-1.3348,-1.4946,-1.782,-1.9027,-2.0309,-2.1665,-2.3494,-2.4807,-2.5727,-2.6971,-2.7535,-2.7625,-2.7625,-2.7754,-2.8268,-3.0092,-3.0958,-3.1613,1.0157,0.9905,0.9943,1.008,0.9637,0.9209,0.9209,0.8628,0.8721,1.0108,1.0283,1.0283,1.0283,1.1319,1.2695,1.4412,0.0,1.2397,0.0,0.0,1.5028,1.6423,0.9454,0.854,1.4963,1.5101,1.5101,1.5101,1.5101,1.5101,1.5101,1.5101,1.6271,1.818,1.4569,1.1204,0.8768,1.6443,2.0277,0.0,0.0,0.0,0.0,1.9756,1.9333,1.7811,1.7811,1.8436,1.951,0.0,2.063,0.0,0.0,0.0,0.0,0.0,0.0,0.0,0.0,0.0,0.0,0.0,0.0,0.0,2.5344,0.0,2.5305,0.0,0.0,0.0,0.0,0.0,0.0,0.0,2.4266,0.0,0.0,0.0,0.0,0.0,0.0,0.0,0.0,0.0,0.0,0.0,1.1504,1.0368,0.8521,0.5919,0.3784,0.223,-0.2181,-0.5865,-0.8732,-0.8771,-1.0089,-1.2594,-1.4283,-1.5991,-1.7687,-1.9143,-2.0321,-2.1262,-2.3198,-2.4389,-2.5161,-2.6857,-2.7625,-2.766,-2.8352,-2.8222,-2.771,-2.8748,-3.1067,-3.3931,1.1136,1.0387,1.006,1.0286,1.0283,1.0283,1.0283,1.0724,1.0996,1.0996,1.0996,1.0996,1.0996,1.2881,0.0,0.0,1.3516,1.068,0.0,0.0,1.4652,1.6423,0.8813,0.0,1.6346,1.6522,1.6522,1.6522,1.6522,1.6522,1.6522,1.7118,1.8224,1.9747,2.1023,1.3552,0.0824,0.0,1.9794,2.1343,1.8667,1.7672,1.8048,2.0221,1.9884,1.8214,1.8214,1.8681,1.9448,2.047,2.2498,0.0,2.5037,0.0,0.0,0.0,0.0,0.0,2.5308,0.0,0.0,0.0,0.0,0.0,0.0,0.0,0.0,0.0,0.0,0.0,0.0,0.0,0.0,2.4591,0.0,2.4228,0.0,0.0,0.0,0.0,0.0,0.0,0.0,0.0,0.0,0.0,0.0,1.2318,1.0084,0.6481,0.3603,0.1643,-0.2329,-0.5826,-0.8682,-0.9456,-1.0712,-1.2482,-1.5098,-1.6811,-1.7836,-1.9331,-2.042,-2.1104,-2.2855,-2.4044,-2.4924,-2.6586,-2.7509,-2.7944,-2.881,-2.8717,-2.8171,-2.8898,-3.1913,-3.5622,1.311,1.1589,1.0292,1.0312,1.0283,1.0283,1.0283,1.1719,1.2803,1.2803,0.0,0.0,0.0,0.0,0.0,0.0,0.0,1.3786,1.5827,0.0,1.6423,1.6522,1.617,1.6158,0.0,1.6522,1.6522,1.6522,1.6522,1.6522,1.6552,1.8612,1.9639,1.969,1.9747,1.2411,0.0704,1.1392,1.7419,1.9909,2.1456,2.0364,1.7805,0.0,1.8485,1.9259,1.9259,0.0,0.0,2.3412,2.4452,0.0,0.0,0.0,0.0,0.0,0.0,0.0,0.0,0.0,0.0,2.534,0.0,0.0,0.0,0.0,2.5558,0.0,0.0,0.0,0.0,0.0,2.4937,2.4799,2.4623,0.0,0.0,0.0,0.0,0.0,0.0,0.0,0.0,0.0,0.0,0.0,1.593,1.5101,1.4138,0.7977,0.3132,0.0157,-0.2828,-0.5764,-0.8652,-0.9377,-1.1285,-1.4412,-1.5748,-1.7317,-1.8983,-2.0137,-2.104,-2.1822,-2.2908,-2.4217,-2.5625,-2.6289,-2.7312,-2.8463,-2.8511,-2.8873,-2.9656,-3.224,-3.4216,-3.5622,1.3198,1.2685,1.2177,1.2053,1.2002,1.2002,1.2002,1.25,0.0,0.0,0.0,0.0,0.0,1.602,1.5393,0.0,0.0,1.2024,1.3986,1.4118,0.0,0.0,0.0,1.4989,0.0,1.6522,1.6522,1.6522,1.6522,1.7229,1.8612,1.9369,1.969,1.969,1.969,1.7206,0.0,0.0,0.0,0.0,0.0,1.8701,1.7811,0.0,0.0,1.8678,2.1516,2.1143,0.0,2.3246,2.4495,2.4559,2.4444,2.462,2.4858,2.4818,2.4741,0.0,0.0,0.0,2.5084,2.5398,0.0,0.0,0.0,0.0,0.0,0.0,0.0,0.0,0.0,0.0,2.4855,2.4818,2.4528,2.4247,0.0,0.0,0.0,0.0,0.0,0.0,0.0,0.0,0.0,0.0,1.7965,0.0,1.4912,1.225,0.7189,-0.0675,-0.1931,-0.5061,-1.0509,-1.0814,-1.2203,-1.4689,-1.6657,-1.7896,-1.8518,-1.9597,-2.0446,-2.1144,-2.197,-2.3295,-2.4934,-2.6111,-2.7327,-2.8559,-2.9361,-2.9585,-2.9704,-3.2196,-3.5412,-3.8772,1.4362,1.4362,1.4077,1.3194,0.0,1.2881,1.2881,0.0,0.0,0.0,1.4247,0.0,1.4357,0.0,1.3211,0.0,1.0283,1.0762,1.1885,1.3386,0.0,1.6423,1.5114,0.0,0.0,0.0,1.6522,1.6522,1.6522,1.7585,1.969,1.969,1.969,1.9726,2.0345,2.0632,2.0588,1.976,1.9401,0.0,0.0,1.7811,0.0,0.0,1.9676,2.0435,0.0,2.2832,2.1397,2.3652,2.4495,2.4578,2.4444,2.4524,2.4629,2.4607,2.4594,2.4642,2.4809,2.493,0.0,2.5388,2.5487,0.0,2.5641,0.0,0.0,0.0,0.0,0.0,0.0,0.0,2.4804,2.4804,2.4528,2.4284,0.0,2.3816,0.0,0.0,0.0,0.0,0.0,0.0,0.0,1.9778,1.8636,1.7168,0.0,1.3382,0.8686,0.0766,-0.2438,-0.6231,-1.0808,-1.1837,-1.323,-1.5025,-1.7159,-1.8287,-1.853,-1.9409,-2.0012,-2.0416,-2.1329,-2.2531,-2.3993,-2.5791,-2.7284,-2.8573,-2.9794,-3.0208,-3.026,-3.2177,-3.5898,-4.0158,1.6522,1.6522,1.5815,0.0,1.3011,0.0,0.0,0.0,1.2881,0.0,1.2899,1.2256,1.0508,1.0283,1.0283,1.0283,1.0283,0.0,1.0283,1.4187,0.0,0.0,1.6522,1.6522,1.6522,0.0,0.0,1.6522,1.6522,1.7585,1.969,1.9782,1.9818,1.9909,2.1554,2.231,2.231,2.231,2.2226,2.1854,1.913,1.8031,1.8352,2.1228,2.3067,2.4151,2.419,2.419,2.4266,2.4639,2.4528,2.4284,2.4654,2.4512,2.419,2.419,2.4393,2.461,2.461,2.4861,2.5158,2.534,0.0,0.0,0.0,0.0,2.5835,0.0,0.0,0.0,0.0,0.0,0.0,2.479,2.4607,2.4409,2.419,0.0,0.0,0.0,0.0,0.0,0.0,0.0,2.0783,1.8782,1.805,1.706,0.0,1.1639,0.7804,0.4243,-0.389,-0.8718,-0.9695,-1.2241,-1.42,-1.5485,-1.7305,-1.8434,-1.8995,-1.956,-1.9798,-1.9926,-2.1069,-2.2035,-2.3007,-2.5442,-2.7242,-2.8608,-2.9861,-3.0733,-3.1393,-3.2459,-3.57,-3.9722,1.6522,1.6522,1.5763,0.0,1.2946,1.3515,0.0,0.0,0.0,0.0,1.3021,1.24,1.0517,1.0283,1.0283,1.0283,1.0283,0.0,0.0,0.0,0.0,1.6522,1.6522,1.6522,1.6522,1.6522,0.0,1.6522,1.6522,1.7585,1.9726,2.1039,2.1615,2.1661,2.2106,2.231,2.231,2.231,2.1025,1.9096,2.0568,2.1143,2.1245,0.0,2.279,2.3522,2.4016,2.419,2.4209,2.4321,2.4284,2.4209,2.4321,2.4284,2.419,2.419,2.4461,2.476,2.4823,2.4966,2.5168,2.5413,2.5522,2.5601,0.0,0.0,0.0,0.0,0.0,0.0,0.0,0.0,0.0,2.4591,2.441,2.4172,0.0,0.0,0.0,0.0,0.0,0.0,0.0,2.1529,2.0926,1.9439,1.8086,1.6981,1.6225,0.0,0.957,0.6257,0.1255,-0.4177,-0.9986,-1.1815,-1.3412,-1.4769,-1.748,-1.8871,-1.8995,-1.956,-2.0055,-2.056,-2.0854,-2.2456,-2.4946,-2.6016,-2.7775,-2.9903,-3.0673,-3.151,-3.2527,-3.4235,-3.6876,-3.9718,1.6522,1.5656,0.0,1.3162,0.0,0.0,1.4709,0.0,0.0,1.2881,1.3916,0.0,1.0624,1.1057,1.1579,1.1579,1.1579,0.0,1.2943,0.0,0.0,1.6522,1.6522,1.6522,1.6522,1.6522,0.0,1.6522,0.0,1.7585,1.9762,2.1493,2.1886,2.1197,2.1945,2.1886,2.1229,2.1991,2.1329,1.9925,2.1634,2.231,0.0,2.231,2.266,2.33,2.3976,2.419,2.419,2.419,2.419,2.419,2.419,2.419,2.419,2.419,2.4478,2.4814,2.4885,2.5063,2.5258,2.5414,2.5509,2.5563,2.564,2.566,2.5879,0.0,0.0,0.0,0.0,0.0,0.0,0.0,0.0,0.0,0.0,0.0,0.0,0.0,0.0,0.0,0.0,2.049,1.9921,1.8979,1.7652,1.6469,1.5636,0.0,0.8363,0.5356,0.0155,-0.512,-1.0375,-1.2888,-1.4671,-1.5733,-1.7958,-1.9096,-1.9371,-1.9673,-2.0156,-2.0858,-2.1683,-2.3245,-2.5289,-2.7008,-2.8556,-2.9997,-3.1328,-3.2324,-3.3237,-3.4979,-3.7532,-4.0235,1.6107,0.0,0.0,0.0,0.0,0.0,0.0,1.2881,0.0,1.2881,0.0,1.5121,1.1514,1.2631,1.3624,1.3624,0.0,1.4438,1.6396,1.6522,1.6522,1.6522,1.6522,1.6522,1.6522,1.6522,0.0,0.0,1.6795,1.7867,1.9762,2.1493,2.1354,1.9782,2.1524,2.1462,0.0,2.1661,2.231,2.231,2.231,2.231,2.231,2.231,2.2624,2.3183,2.3917,2.419,2.419,2.419,2.419,2.419,2.419,2.419,2.419,2.419,2.4495,2.4828,2.4885,2.5145,2.5409,2.5409,2.5475,2.5539,2.5605,2.5608,2.5824,2.6646,2.6071,2.5582,0.0,0.0,0.0,0.0,0.0,0.0,0.0,0.0,0.0,0.0,0.0,0.0,0.0,0.0,1.8702,1.8048,1.7137,1.5985,1.4586,0.0,0.6481,0.2824,-0.3589,-0.8303,-1.1122,-1.4542,-1.6527,-1.7169,-1.845,-1.9359,-1.9798,-1.9901,-2.0295,-2.1006,-2.2918,-2.4207,-2.519,-2.8093,-2.9459,-2.9912,-3.1974,-3.3102,-3.3728,-3.5216,-3.7885,-4.0715,0.0,0.0,0.0,0.0,0.0,1.2881,1.2881,1.2881,1.2881,1.2881,1.5017,1.623,1.5496,1.5723,1.5903,1.5903,1.5903,0.0,0.0,0.0,0.0,1.6522,1.6522,1.6522,1.6522,1.6522,1.6522,0.0,1.8263,1.9332,1.9762,2.1493,2.1354,1.9782,2.1524,2.2135,2.184,2.218,0.0,2.231,2.231,2.231,2.231,2.231,2.2377,2.2598,2.3792,2.419,2.419,2.419,2.419,2.419,2.419,2.419,2.419,2.419,2.4524,2.4885,2.4892,2.5184,2.5486,2.5486,2.5568,2.5672,2.5672,2.564,2.5841,2.6704,2.666,2.6428,2.639,0.0,0.0,0.0,0.0,0.0,0.0,0.0,0.0,0.0,0.0,0.0,0.0,0.0,0.0,1.8196,1.7879,1.6603,1.4011,0.0,0.9011,0.0,-0.2773,0.0,0.0,0.0,-1.5786,-1.6508,-1.8631,-1.971,-1.9798,-2.0346,-2.0966,-2.1643,-2.3595,-2.5354,-2.7035,-2.8641,-3.0275,-3.1888,-3.2874,-3.3694,-3.4489,-3.6011,-3.7975,-3.9832,0.0,0.0,0.0,0.0,0.0,0.0,0.0,1.2881,0.0,1.4606,1.4709,1.4606,1.4606,1.5744,1.6522,1.6522,1.6522,1.6522,1.6522,1.6522,1.6522,1.6522,1.6522,0.0,1.6522,1.6522,1.6522,1.6522,1.865,1.969,1.9762,2.1493,2.1857,2.1103,2.1915,2.231,2.231,0.0,0.0,2.231,2.231,2.231,2.231,2.231,2.231,2.2432,2.3341,2.3896,2.419,2.419,2.419,2.419,2.419,2.419,2.419,2.419,2.4522,2.4879,2.4864,2.513,2.5409,2.5486,2.555,2.5607,2.5683,2.5654,2.5707,2.6102,2.6082,2.5932,2.5627,2.4982,0.0,0.0,0.0,0.0,0.0,0.0,0.0,0.0,0.0,0.0,0.0,0.0,0.0,0.0,0.0,1.5501,1.3725,0.0,0.9055,0.0,0.0,0.0,-1.2274,0.0,-1.6187,-1.684,-1.8572,-1.9687,-2.0346,-2.0646,-2.1532,-2.2843,-2.4732,-2.6479,-2.8072,-3.0029,-3.1412,-3.2391,-3.3525,-3.4184,-3.4675,-3.6214,-3.7671,-3.9047,0.0,1.3174,0.0,0.0,1.2881,0.0,1.2881,1.3344,1.4154,1.5567,1.4525,1.3658,1.3658,1.5377,1.6522,1.6522,1.6522,1.6522,1.6522,1.6522,1.6522,1.6522,1.6522,1.6522,1.6522,1.6522,1.6522,0.0,1.865,1.969,1.9762,2.1493,2.231,2.231,2.231,0.0,0.0,0.0,2.231,2.231,2.231,2.231,2.231,2.231,2.231,2.2349,2.2849,2.3432,2.3996,2.4054,2.4054,2.4074,2.417,2.4113,2.4074,2.417,2.4524,2.4858,2.4814,2.5075,2.537,2.5466,2.5518,2.557,2.5683,2.5639,2.5551,2.5515,2.5447,2.5308,2.5102,2.4782,0.0,0.0,0.0,0.0,0.0,0.0,0.0,0.0,0.0,0.0,0.0,0.0,0.0,0.0,0.0,1.4163,1.3172,1.1513,0.7656,0.0,0.0,-0.9915,-1.1886,0.0,-1.7073,-1.7678,-1.8931,-2.0067,-2.0979,-2.1309,-2.2242,-2.3815,-2.5966,-2.7694,-2.917,-3.1398,-3.2374,-3.2645,-3.3981,-3.4692,-3.5193,-3.6667,-3.787,-3.903,0.0,0.0,0.0,0.0,0.0,0.0,1.2881,1.4755,1.5478,1.3478,1.4926,1.6151,1.6151,1.638,1.6522,1.6522,1.6522,1.6522,1.6522,1.6522,1.6522,1.6522,1.6522,1.6522,1.6522,1.6522,1.6522,0.0,1.865,1.969,1.9762,2.1493,2.231,2.231,0.0,0.0,0.0,2.231,2.231,2.231,2.231,2.231,2.231,2.231,2.231,2.231,2.2349,2.279,2.3323,2.3482,2.3566,2.3649,2.4074,2.3917,2.3649,2.4074,2.4495,2.4818,2.4804,2.5132,2.5486,2.5505,2.5595,2.5683,2.5707,2.5605,2.5511,2.5495,2.5409,2.5431,2.5821,2.528,2.4941,0.0,0.0,0.0,0.0,0.0,0.0,0.0,0.0,0.0,0.0,1.2234,0.0,0.0,1.0919,1.3464,1.1707,0.9496,0.5094,-0.1917,-0.7923,-1.2553,-1.5728,-1.7296,-1.8267,-1.877,-2.0601,-2.1513,-2.1677,-2.288,-2.354,-2.3891,-2.6907,-2.9279,-3.1004,-3.1894,-3.2679,-3.3389,-3.4184,-3.5334,-3.6746,-3.805,-3.9371,-4.0654,0.0,0.0,0.0,0.0,0.0,0.0,0.0,1.3705,1.4525,1.4983,1.5876,1.6522,1.6522,1.6522,1.6522,1.6522,1.6522,1.6522,1.6522,1.6522,1.6522,1.6522,1.6522,1.6522,1.6522,1.6522,1.6522,0.0,0.0,0.0,1.9792,2.3293,2.4932,0.0,0.0,2.231,2.231,2.231,2.231,2.231,2.231,2.231,2.231,2.231,2.231,2.231,2.231,2.247,2.2712,2.3032,2.33,2.3522,2.3566,2.3544,2.3544,2.3816,2.4318,2.4804,2.4804,2.5113,2.5447,2.5483,2.5577,2.5656,2.5681,2.561,2.551,2.5495,2.539,2.5329,2.5387,2.5064,2.5039,0.0,0.0,0.0,0.0,0.0,0.0,0.0,0.0,0.0,0.0,0.0,0.7791,0.0,0.0,1.0689,0.7321,0.5375,0.1757,-0.4043,0.0,-1.4317,-1.5834,-1.8134,-1.9394,-1.9582,-2.1003,-2.1899,-2.2314,-2.3249,-2.4712,-2.6621,-2.864,-3.0154,-3.1275,-3.2459,-3.3136,-3.3525,-3.4709,-3.6014,-3.7403,-3.833,-3.9617,-4.0957,1.4668,0.0,1.2881,0.0,1.2881,1.2881,1.2881,1.3515,1.456,1.6293,1.6522,1.6522,1.6522,1.6522,1.6522,1.6522,1.6522,1.6522,1.6522,1.6522,1.6522,1.6522,1.6522,0.0,1.6522,1.6522,1.6522,1.6522,1.7105,0.0,0.0,0.0,0.0,0.0,2.3241,2.231,2.231,2.231,2.231,2.231,2.231,2.231,2.231,2.231,2.231,2.231,2.231,2.231,2.2349,2.2624,2.2908,2.3153,2.3206,2.33,2.3437,2.3631,2.4229,2.4804,2.4804,2.5113,2.5504,2.5807,2.5757,2.5703,2.6019,2.5785,2.5568,2.5784,2.5755,2.5618,2.5416,2.527,2.5257,2.5597,0.0,0.0,0.0,0.0,0.0,0.0,1.9017,1.5614,1.1917,0.7199,0.2386,0.0,0.0,0.0,0.3116,0.0899,-0.2751,0.0,0.0,0.0,-1.6465,-1.8982,-2.0327,-2.0469,-2.1695,-2.2591,-2.3246,-2.4283,-2.6197,-2.8742,-2.9835,-3.0658,-3.1309,-3.2797,-3.3406,-3.3558,-3.5205,-3.668,-3.8034,-3.8989,-4.0313,-4.1686,1.291,1.2891,1.2881,1.2881,1.2881,1.2881,1.2881,1.4926,1.6466,1.6522,1.6522,1.6522,1.6522,1.6522,1.6522,1.6522,1.6522,1.6522,1.6522,1.6522,1.6522,0.0,0.0,1.6522,1.6522,1.6522,1.6522,1.6522,0.0,0.0,2.349,0.0,2.0712,2.2361,2.2327,2.231,2.231,2.231,2.231,2.231,2.231,2.231,2.231,2.231,2.231,2.231,2.231,2.231,2.231,2.231,2.231,2.2432,2.3014,2.3189,2.3259,2.3588,2.4229,2.4804,2.4804,2.5132,2.5706,2.6576,2.6244,2.5916,2.679,2.6218,2.5698,2.6439,2.6582,2.6521,2.6314,2.6124,2.5729,2.4936,0.0,0.0,0.0,0.0,0.0,0.0,1.4882,0.8117,0.1687,-0.0898,0.0,0.0,0.0,0.0,0.0,0.0,0.0,-1.4686,-1.5107,0.0,-1.8734,-2.0165,-2.1101,-2.1586,-2.2936,-2.3879,-2.4436,-2.6392,-2.8046,-2.9435,-3.0021,-3.0658,-3.1309,-3.2797,-3.3406,-3.3584,-3.5597,-3.7317,-3.8841,-4.0326,-4.1842,-4.3254,1.2881,1.2881,1.2881,1.2881,1.2881,1.343,1.5107,1.4617,1.4663,1.6293,1.6522,1.6522,1.6522,1.6522,1.6522,0.0,1.6522,1.6522,0.0,1.6522,1.6522,1.6522,1.6522,1.6522,1.6522,1.6522,1.6522,1.6522,0.0,0.0,0.0,2.0079,1.998,2.0532,2.0532,2.0532,2.0614,2.1797,2.231,2.231,2.231,2.231,2.231,2.231,2.231,2.231,2.231,2.231,2.231,2.231,2.2426,2.2599,2.2797,2.3021,2.3259,2.348,2.4155,2.4832,2.4917,2.5658,2.6457,2.6732,2.7147,2.7556,2.7827,2.7575,2.6987,2.5919,2.6197,2.6399,2.5732,2.5454,2.5476,2.5948,2.5118,0.0,0.0,0.0,0.0,0.0,1.3142,0.7128,-0.251,-0.5569,0.0,0.0,0.0,0.0,0.0,0.0,0.0,0.0,-1.6642,0.0,-2.0893,-2.2135,-2.2834,-2.2995,-2.3749,-2.4911,-2.6433,-2.7454,-2.8666,-3.0038,-3.0658,-3.1301,-3.2019,-3.3,-3.3928,-3.4863,-3.6547,-3.8461,-4.0239,-4.0727,-4.2276,-4.4186,1.2881,1.2881,1.2881,1.2881,1.2881,1.343,1.4926,1.4652,1.4789,1.6293,1.6522,1.6522,1.6522,1.6522,0.0,1.6522,1.6522,1.6522,1.6522,1.6522,1.6522,1.6522,1.6522,1.6522,1.6522,1.6522,0.0,1.7706,1.9043,1.969,1.969,1.969,1.969,1.969,1.969,1.969,1.9782,2.0862,2.1691,2.231,2.231,2.231,2.231,2.231,2.231,2.231,2.231,2.231,2.231,2.231,2.249,2.2695,2.2695,2.3021,2.3419,2.3632,2.4207,2.4828,2.4962,2.5653,2.6476,2.7121,2.7303,2.7302,2.7262,2.7699,2.767,2.612,2.6486,2.6813,2.5947,2.5619,2.5631,2.6042,2.521,2.4746,2.5454,0.0,0.0,0.0,0.0,0.0,0.0,-0.8769,-1.2609,0.0,0.0,0.0,0.0,0.0,0.0,-1.5715,-1.8472,-2.0656,-2.2203,-2.3152,-2.3724,-2.3921,-2.4672,-2.5672,-2.691,-2.8003,-2.9031,-2.9955,-3.0801,-3.1715,-3.2667,-3.3396,-3.4438,-3.5714,-3.7075,-3.874,-4.0385,-4.1082,-4.2728,-4.465,1.2881,1.2881,1.2881,0.0,1.2881,0.0,1.3113,1.5062,1.6522,1.6522,1.6522,1.6522,1.6522,1.6522,1.6522,1.6522,0.0,0.0,0.0,1.6522,1.6522,1.6522,1.6522,1.6522,1.6522,1.6522,1.7544,1.969,1.969,1.969,1.969,1.969,1.969,1.969,1.969,1.969,1.969,1.969,2.0632,2.2123,2.2254,2.231,2.231,2.231,2.231,2.231,2.231,2.231,2.231,2.231,2.2473,2.2721,2.2746,2.3212,2.3801,2.3968,2.4383,2.4847,2.505,2.5393,2.6081,2.7768,2.7127,2.6013,2.5827,2.7063,2.7958,2.6832,2.7294,2.7621,2.6678,2.6359,2.6032,2.5398,2.4869,2.4575,2.4741,0.0,0.0,0.0,0.0,0.0,0.0,-1.0696,-1.6225,0.0,0.0,0.0,0.0,0.0,-1.6775,-1.8091,-2.046,-2.2028,-2.2783,-2.331,-2.3879,-2.4471,-2.5503,-2.615,-2.6447,-2.8198,-2.9101,-2.9402,-3.0656,-3.1965,-3.3217,-3.3908,-3.4944,-3.6238,-3.7363,-3.8492,-3.9695,-4.1521,-4.3246,-4.4757,0.0,0.0,1.2881,1.2881,1.2881,1.3525,1.5389,1.6107,1.6522,1.6522,1.6522,1.6522,1.6522,1.6522,1.6522,1.6522,1.6522,1.6522,1.6522,1.6522,1.6522,1.6522,1.6522,1.6522,1.6522,1.6522,1.7544,1.969,1.969,1.969,1.969,1.969,1.969,1.969,1.969,1.969,1.969,1.969,1.9945,2.0447,2.1751,2.231,2.231,2.231,2.231,2.231,2.231,2.231,2.231,2.231,2.2544,2.2915,2.3212,2.3806,2.4372,2.4259,2.4495,2.5007,2.5964,2.6842,2.7739,2.883,2.9374,2.9469,2.8666,2.9268,2.9368,2.7073,2.7294,2.7428,2.589,2.5571,2.5484,2.5341,2.4975,2.4663,2.446,2.1797,0.0,0.0,0.796,-0.0454,-0.7611,-1.2158,-1.5528,0.0,0.0,0.0,0.0,-1.9035,-1.9002,-1.9501,-2.0955,-2.2233,-2.337,-2.3535,-2.4074,-2.5028,-2.5689,-2.68,-2.8356,-2.8817,-2.9648,-3.0746,-3.1067,-3.2256,-3.3942,-3.4116,-3.541,-3.7399,-3.851,-3.9955,-4.1586,-4.2755,-4.4097,-4.54,1.3887,1.4033,1.4033,1.4033,1.4033,1.4215,1.4797,1.5788,1.6522,1.6522,1.6522,1.6522,1.6522,1.6522,1.6522,1.6522,1.6522,1.6522,1.6522,1.6522,1.6522,1.6522,1.6522,1.6522,1.6522,1.6522,1.7544,1.969,1.969,1.969,1.969,1.969,1.969,1.969,1.969,1.969,1.969,1.969,2.0139,2.0959,2.1915,2.231,2.231,2.231,2.231,2.231,2.231,2.231,2.231,2.231,2.2588,2.2982,2.3369,2.4241,2.5099,2.5073,2.4997,2.5133,2.6299,2.7035,2.7719,2.8657,2.9916,3.0426,2.8617,2.9453,2.9847,2.714,2.7294,2.7486,2.614,2.5572,2.5303,2.5303,2.5031,2.4674,2.4358,2.2374,0.0,1.4659,0.7249,-0.1053,-1.0045,-1.2683,-1.4764,-1.7028,-1.8003,0.0,-1.9413,-1.9936,-2.05,-2.1196,-2.1557,-2.2323,-2.3595,-2.4074,-2.4752,-2.5577,-2.6068,-2.7056,-2.8467,-2.8822,-2.9714,-3.0991,-3.1747,-3.3225,-3.5095,-3.5486,-3.7015,-3.9294,-4.0596,-4.1753,-4.2806,-4.4014,-4.4928,-4.5586,1.5127,1.541,1.541,1.541,1.541,1.4844,1.3145,1.4926,1.6522,1.6522,1.6522,1.6522,1.6522,1.6522,1.6522,1.6522,1.6522,1.6522,1.6522,1.6522,1.6522,1.6522,1.6522,1.6522,1.6522,1.6522,1.7544,1.969,1.969,1.969,1.969,1.969,1.969,1.969,1.969,1.969,1.969,1.969,2.0714,2.231,2.231,2.231,2.231,2.231,2.231,2.231,2.231,2.231,2.231,2.231,2.2535,2.2908,2.3432,2.4685,2.5937,2.5985,2.5734,2.5662,2.6705,2.716,2.7589,2.8467,2.9783,3.0255,2.7911,2.9038,2.991,2.7486,2.7563,2.7813,2.6967,2.6082,2.5495,2.5456,2.5051,2.4617,2.4302,0.0,2.0258,1.4166,0.7436,-0.071,-1.0943,-1.2299,-1.3761,-1.6548,-1.7422,-1.8109,-1.887,-2.0096,-2.1391,-2.2676,-2.2206,-2.257,-2.3837,-2.4831,-2.554,-2.6013,-2.647,-2.7148,-2.8027,-2.8742,-2.9795,-3.115,-3.2597,-3.4413,-3.6352,-3.7182,-3.8928,-4.1146,-4.2693,-4.345,-4.3821,-4.5111,-4.5586,-4.5603,1.5361,1.541,1.541,1.541,1.541,1.4844,1.3145,1.4926,1.6522,1.6522,1.6522,1.6522,1.6522,1.6522,1.6522,1.6522,1.6522,1.6522,1.6522,1.6522,1.6522,1.6522,1.6522,1.6522,1.6522,1.6522,1.7544,1.969,1.969,1.969,1.969,1.969,1.969,1.969,1.969,1.969,1.969,1.969,2.0714,2.231,2.231,2.231,2.231,2.231,2.231,2.231,2.231,2.231,2.231,2.231,2.2349,2.2588,2.3732,2.5448,2.6902,2.622,2.6702,2.7638,2.8486,2.9349,3.0086,3.0425,3.0619,3.0607,3.0115,3.0277,3.0179,2.8948,2.8813,2.8659,2.7852,2.6986,2.6329,2.6166,2.5158,2.4284,2.3997,0.0,1.5886,1.0063,0.4036,-0.2648,-1.0258,-1.0826,-1.1956,-1.4923,-1.6256,-1.7471,-1.8834,-2.0107,-2.1408,-2.2685,-2.3039,-2.3781,-2.4934,-2.5577,-2.5924,-2.6013,-2.647,-2.7435,-2.8842,-2.93,-3.0699,-3.2804,-3.3654,-3.5205,-3.7208,-3.8292,-3.9814,-4.1611,-4.2832,-4.4093,-4.5263,-4.551,-4.5586,-4.562,1.541,1.541,1.541,1.541,1.541,1.5146,1.4365,1.5513,1.6522,1.6522,1.6522,1.6522,1.6522,1.6522,1.6999,1.8179,1.8292,1.8292,1.8292,1.8292,1.7752,1.6572,1.6522,1.7074,1.8254,1.8229,1.8688,1.969,1.969,1.969,1.969,1.969,1.969,1.969,1.969,1.969,1.969,1.969,2.0139,2.0959,2.1915,2.231,2.231,2.231,2.231,2.231,2.231,2.231,2.231,2.231,2.3093,2.4086,2.4169,2.5928,2.7853,2.7384,2.7867,2.8651,2.9124,2.9926,3.0658,3.0856,3.0852,3.0658,3.0081,3.0286,3.0314,2.9313,2.9129,2.9033,2.8621,2.7852,2.714,2.6688,2.5502,0.0,0.0,1.859,1.292,0.8977,0.0835,-0.6083,-1.0174,-1.1093,-1.2344,-1.4464,-1.6033,-1.7295,-1.8298,-2.0197,-2.1685,-2.2579,-2.349,-2.4505,-2.5615,-2.5888,-2.612,-2.6367,-2.6994,-2.8015,-2.9351,-3.0387,-3.2015,-3.4087,-3.5339,-3.673,-3.8282,-3.9664,-4.1102,-4.2489,-4.3446,-4.4608,-4.5708,-4.5699,-4.5713,-4.5722,1.541,1.541,1.541,1.541,1.541,1.541,1.541,1.6486,1.7287,1.7287,1.7287,1.7287,1.7287,1.7287,1.7953,1.9648,1.9798,1.9798,1.9798,1.9798,1.9045,1.735,1.7287,1.8078,1.9761,1.925,1.9207,1.969,1.969,1.969,1.969,1.969,1.969,1.969,1.969,1.969,1.9726,2.0139,2.0085,1.9854,2.1584,2.231,2.231,2.231,2.2733,2.3241,2.2564,2.275,2.3325,2.3325,2.4694,2.6267,2.5552,2.6916,2.8707,2.8388,2.8823,2.944,2.9635,3.012,3.0658,3.0856,3.0857,3.0635,2.9852,3.0175,3.041,2.9602,2.9494,2.9502,2.9448,2.8756,2.7975,2.7248,0.0,0.0,0.0,1.6514,1.0425,0.6541,-0.2263,-0.8484,-0.9707,-1.1135,-1.2563,-1.4033,-1.5831,-1.7255,-1.8263,-2.0483,-2.2122,-2.3112,-2.4189,-2.5205,-2.6156,-2.6139,-2.6332,-2.6708,-2.7555,-2.8562,-2.9674,-3.1475,-3.3324,-3.522,-3.7108,-3.8517,-3.9585,-4.1285,-4.2544,-4.3451,-4.4325,-4.5109,-4.5809,-4.5825,-4.5809,-4.585,1.541,1.541,1.541,1.541,1.541,1.541,1.541,1.7759,1.956,1.956,1.956,1.956,1.956,1.956,1.9623,1.9786,1.9798,1.9798,1.9798,1.9798,1.9723,1.956,1.956,1.9635,1.9798,1.7764,1.7706,1.969,1.969,1.969,1.969,1.969,1.969,1.969,1.969,1.969,1.9818,2.1415,2.1166,1.9854,2.1584,2.231,2.231,2.231,2.4002,2.6015,2.3291,2.4069,2.637,2.637,2.7425,2.8727,2.8663,2.9093,2.9446,2.8559,2.9245,3.0333,3.0467,3.0548,3.0658,3.0856,3.0755,3.0598,3.0535,3.051,3.0487,3.041,3.0448,3.0487,3.041,2.9694,2.8823,2.7977,0.0,0.0,1.7811,1.3668,0.8143,-0.0062,-0.5178,-0.8068,-0.8172,-0.9654,-1.1327,-1.302,-1.5186,-1.7335,-1.9359,-2.0891,-2.27,-2.4941,-2.5561,-2.6139,-2.6657,-2.6657,-2.6657,-2.6708,-2.7889,-2.8828,-2.969,-3.2361,-3.4467,-3.615,-3.8761,-4.0367,-4.1284,-4.3251,-4.4126,-4.4295,-4.5307,-4.5725,-4.5803,-4.5862,-4.589,-4.5907,1.541,1.541,1.541,1.541,1.689,1.8155,1.8155,1.9085,1.9798,1.9798,1.9798,1.9798,1.9798,1.9798,1.9798,1.9798,1.9798,1.9798,1.9798,1.9798,1.9798,1.9798,1.9798,1.9798,1.9798,1.8982,1.8915,1.969,1.969,1.969,1.969,1.969,1.969,1.969,1.969,1.969,1.9818,2.1554,2.1291,1.9854,2.1584,2.231,2.231,2.231,2.3004,2.4069,2.478,2.5744,2.6691,2.6691,2.7701,2.8994,2.8994,2.9115,2.9322,2.9537,2.9985,3.0417,3.0564,3.0606,3.0658,3.0856,3.0835,3.0758,3.0679,3.07,3.0717,3.0585,3.0613,3.0642,3.0518,3.0227,2.9636,2.8532,0.0,2.3028,1.7714,1.4111,0.8303,-0.1678,-0.589,-0.8408,-0.9418,-1.1051,-1.2488,-1.3666,-1.6219,-1.8092,-1.8947,-2.1694,-2.3989,-2.5652,-2.6175,-2.6505,-2.6691,-2.6691,-2.7079,-2.7837,-2.8743,-3.0215,-3.2224,-3.4266,-3.6161,-3.7942,-3.9963,-4.1132,-4.1756,-4.3551,-4.4341,-4.452,-4.544,-4.5878,-4.5986,-4.6021,-4.608,-4.617,1.541,1.541,1.541,1.541,1.7829,1.9798,1.9798,1.9798,1.9798,1.9798,1.9798,1.9798,1.9798,1.9798,1.9798,1.9798,1.9798,1.9798,1.9798,1.9798,1.9798,1.9798,1.9798,2.0181,2.0988,2.0988,2.0567,1.969,2.0513,2.0483,1.969,1.969,2.0124,2.0917,2.0917,2.0453,1.9782,2.0959,2.1103,2.0632,2.1827,2.231,2.231,2.231,2.231,2.2699,2.5642,2.6099,2.5535,2.6957,2.8129,2.8994,2.8994,2.8994,2.9185,3.0128,3.0398,3.0417,3.0506,3.0588,3.0678,3.0853,3.0879,3.0813,3.0717,3.0771,3.0786,3.0621,3.0656,3.0662,3.0516,3.0444,2.9958,2.8588,2.604,2.272,1.8302,1.367,0.7321,-0.1835,-0.6539,-0.9497,-1.0711,-1.2728,-1.4297,-1.5056,-1.7462,-1.9227,-2.0077,-2.3273,-2.5349,-2.5977,-2.647,-2.686,-2.7265,-2.7265,-2.7669,-2.8528,-3.011,-3.1881,-3.3762,-3.5969,-3.7683,-3.9012,-4.0997,-4.2007,-4.2335,-4.4071,-4.4834,-4.4957,-4.5645,-4.5971,-4.6113,-4.6147,-4.6223,-4.6308,1.541,1.541,1.541,1.541,1.7884,1.9798,1.9798,1.9798,1.9798,1.9798,1.9798,1.9798,1.9798,1.9798,1.9798,1.9798,1.9798,1.9798,1.9798,1.9798,1.9798,1.985,1.9798,2.0988,2.3551,2.3595,2.2323,1.972,2.2323,2.2263,1.972,1.972,2.1096,2.3595,2.3595,2.2158,1.972,1.969,2.0714,2.231,2.231,2.231,2.231,2.2344,2.2344,2.2733,2.5642,2.4814,2.3021,2.7489,2.8994,2.8994,2.8994,2.8994,2.9185,3.0128,3.0398,3.0398,3.0398,3.0544,3.0723,3.0866,3.0801,3.0703,3.0703,3.0697,3.0691,3.0633,3.066,3.066,3.0525,3.0333,2.9678,2.804,2.4757,2.1495,1.8978,1.1655,0.4517,-0.105,-0.7418,-1.1358,-1.1591,-1.4291,-1.6347,-1.7191,-1.8785,-2.0846,-2.3404,-2.5672,-2.6627,-2.603,-2.6487,-2.7315,-2.8494,-2.8511,-2.8511,-2.8578,-3.2046,-3.3707,-3.3843,-3.7332,-3.8917,-3.9088,-4.1867,-4.3104,-4.3236,-4.5051,-4.5796,-4.5815,-4.6014,-4.6108,-4.6117,-4.6247,-4.6308,-4.6308,1.541,1.541,1.6073,1.8155,1.9202,1.9798,1.9798,1.9798,1.9798,1.9798,1.9798,1.9798,1.9798,1.9798,1.9798,1.9798,1.9798,1.9798,1.9798,1.9798,2.0607,2.2409,2.0756,2.0988,2.3551,2.3595,2.3221,2.2443,2.3221,2.3191,2.2443,2.2443,2.2847,2.3595,2.3595,2.3161,2.2308,2.0468,2.0714,2.231,2.231,2.231,2.2547,2.4611,2.5389,2.5507,2.637,2.6133,2.5774,2.8182,2.8994,2.8994,2.8994,2.8994,2.9185,3.0128,3.0398,3.0398,3.0398,3.0506,3.0646,3.0749,3.0801,3.084,3.084,3.0849,3.0837,3.0817,3.082,3.0775,3.0602,3.0173,2.9391,2.8021,2.458,2.1225,1.8951,1.0966,0.3288,-0.2281,-0.788,-1.1963,-1.3759,-1.5553,-1.7336,-1.9298,-2.1146,-2.3305,-2.5737,-2.6597,-2.6866,-2.6504,-2.7947,-2.8737,-2.8794,-2.8582,-2.9435,-3.1329,-3.2918,-3.4647,-3.6479,-3.8156,-3.9704,-4.1137,-4.2056,-4.298,-4.3905,-4.5253,-4.588,-4.601,-4.6089,-4.617,-4.6247,-4.6289,-4.6308,-4.6308,1.6436,1.6436,1.715,1.9401,1.9798,2.01,2.0978,2.1117,2.1117,2.1117,2.1117,2.1117,2.1117,2.1117,2.1117,2.1117,2.1117,2.1117,2.1117,2.2233,2.3597,2.512,2.3695,2.3083,2.3581,2.3595,2.3595,2.3595,2.3595,2.3595,2.3595,2.3595,2.3595,2.3595,2.3595,2.3595,2.349,2.1904,2.183,2.2894,2.3694,2.3551,2.3106,2.5715,2.6691,2.6691,2.6691,2.6691,2.6922,2.8489,2.8583,2.8084,2.8084,2.8515,2.9115,2.9678,2.9848,2.9931,3.0299,3.0398,3.043,3.0586,3.07,3.0782,3.0782,3.0782,3.0788,3.0781,3.0771,3.0715,3.0475,2.9952,2.8773,2.6444,2.2834,1.9785,1.8205,0.9269,0.0511,-0.5967,-1.013,-1.3445,-1.5846,-1.7817,-1.9866,-2.226,-2.4187,-2.5839,-2.7308,-2.7836,-2.8012,-2.7861,-2.926,-3.0119,-3.0342,-3.0268,-3.0921,-3.233,-3.4046,-3.5916,-3.7908,-3.9045,-4.0223,-4.1448,-4.2256,-4.3201,-4.4305,-4.5442,-4.5986,-4.6114,-4.6167,-4.6225,-4.6308,-4.6308,-4.6308,-4.6308,1.8008,1.8008,1.8451,1.9836,2.01,2.0778,2.2765,2.3078,2.3078,2.3078,2.3078,2.3078,2.3078,2.3078,2.3078,2.3078,2.3078,2.3185,2.3471,2.6065,2.7625,2.7625,2.7625,2.6437,2.4014,2.3714,2.3595,2.3595,2.3595,2.3595,2.3595,2.3595,2.3595,2.3595,2.3595,2.3595,2.3595,2.3595,2.3595,2.3752,2.564,2.5303,2.3837,2.5911,2.6691,2.6691,2.6691,2.6691,2.6922,2.8316,2.7862,2.6691,2.6691,2.7776,2.8994,2.8994,2.9021,2.9249,3.0114,3.022,3.0163,3.0417,3.0539,3.0581,3.0601,3.0601,3.0603,3.0614,3.0605,3.0528,3.0249,2.959,2.7822,2.3933,2.0302,1.7571,1.6315,0.6661,-0.3081,-1.091,-1.3395,-1.5405,-1.7728,-2.0723,-2.342,-2.5738,-2.7363,-2.8297,-2.8428,-2.9246,-2.9741,-2.9687,-3.0539,-3.1516,-3.2681,-3.3026,-3.2881,-3.2286,-3.5224,-3.7205,-3.8403,-3.9835,-4.0558,-4.0771,-4.2305,-4.3569,-4.4655,-4.5683,-4.6117,-4.612,-4.6247,-4.6308,-4.6308,-4.6308,-4.6308,-4.6328,1.8008,1.8008,1.8909,2.1871,2.241,2.2573,2.3002,2.3078,2.3078,2.3078,2.3078,2.3078,2.3078,2.3078,2.3078,2.3078,2.3078,2.4079,2.6453,2.724,2.7625,2.7625,2.7625,2.7355,2.6722,2.4672,2.3595,2.3595,2.3595,2.3595,2.3595,2.3595,2.3595,2.3595,2.3595,2.3595,2.3595,2.3595,2.3595,2.3638,2.4101,2.3991,2.3837,2.5911,2.6691,2.6691,2.6691,2.6691,2.6758,2.7098,2.6987,2.6691,2.6691,2.7776,2.8994,2.8994,2.9203,2.9494,2.9893,3.0009,3.0098,3.0355,3.0436,3.046,3.0576,3.0595,3.0616,3.0675,3.0681,3.0606,3.0326,2.8795,2.6455,2.2964,2.0329,1.6342,0.9432,0.2481,-0.465,-1.1861,-1.4484,-1.6419,-1.8354,-2.2674,-2.6206,-2.8243,-2.9026,-2.9623,-3.0123,-3.0693,-3.0858,-3.0453,-3.2083,-3.3327,-3.4047,-3.5059,-3.5135,-3.4282,-3.5856,-3.7414,-3.8953,-4.0024,-4.1119,-4.2179,-4.1409,-4.2898,-4.5915,-4.6149,-4.6268,-4.6268,-4.6289,-4.6308,-4.6308,-4.6308,-4.6308,-4.6562,1.8008,1.8008,1.8586,2.0386,2.0643,2.1215,2.2884,2.3078,2.3078,2.3078,2.3078,2.3078,2.3078,2.3078,2.3078,2.3078,2.4104,2.5548,2.7482,2.7625,2.7625,2.7625,2.7625,2.7625,2.7625,2.6213,2.5495,2.5495,2.4223,2.3595,2.3595,2.3595,2.3595,2.3595,2.3595,2.3595,2.3595,2.3595,2.3595,2.3595,2.3595,2.3595,2.3837,2.5911,2.6505,2.628,2.659,2.6691,2.6691,2.6691,2.6691,2.6691,2.6691,2.7238,2.8057,2.8773,2.9115,2.9334,2.9624,2.9712,2.9782,3.0007,3.0071,3.0147,3.0451,3.0506,3.0525,3.0621,3.0637,3.0372,2.9632,2.8,2.5288,2.0613,1.7243,1.2118,0.3257,-0.192,-0.7659,-1.5283,-1.716,-1.9192,-2.2509,-2.5974,-2.8575,-2.9969,-3.07,-3.1272,-3.1724,-3.2181,-3.2409,-3.2272,-3.3604,-3.4675,-3.5441,-3.6204,-3.668,-3.6853,-3.745,-3.8535,-3.9984,-4.0481,-4.1101,-4.1786,-4.1616,-4.3351,-4.6308,-4.6308,-4.6308,-4.6308,-4.6308,-4.6308,-4.6308,-4.6308,-4.6562,-4.7187,1.8787,1.8844,1.8844,1.8844,1.8844,1.9803,2.2689,2.3078,2.3078,2.3078,2.3464,2.3703,2.3703,2.3703,2.3703,2.3703,2.5936,2.7588,2.8226,2.8248,2.8248,2.8248,2.7814,2.7625,2.7625,2.7625,2.7625,2.7625,2.536,2.4044,2.3595,2.3595,2.3595,2.3595,2.3595,2.3595,2.3595,2.3595,2.3595,2.3595,2.3595,2.3595,2.3794,2.573,2.621,2.5944,2.6505,2.6691,2.6657,2.6298,2.6419,2.6758,2.7019,2.7098,2.733,2.8633,2.8994,2.9067,2.9334,2.9355,2.9357,2.9625,2.9605,2.9676,3.0327,3.051,3.0605,3.0737,3.0765,3.027,2.8625,2.7403,2.4353,1.7278,1.2555,0.6698,-0.212,-0.6692,-1.1757,-1.8678,-2.0341,-2.2706,-2.738,-2.9171,-3.0408,-3.1278,-3.2176,-3.2827,-3.3052,-3.3548,-3.3942,-3.4202,-3.4961,-3.582,-3.68,-3.7179,-3.8035,-3.9343,-3.9343,-3.9901,-4.0949,-4.0949,-4.093,-4.0968,-4.2598,-4.4455,-4.6308,-4.6308,-4.6308,-4.6308,-4.6308,-4.6308,-4.6328,-4.6465,-4.7168,-4.8203,2.1854,2.2433,2.2433,2.2433,2.2433,2.2567,2.3005,2.3078,2.3078,2.3078,2.482,2.6013,2.6013,2.6013,2.6013,2.6013,2.8997,3.0881,3.0959,3.1001,3.1001,3.1001,2.8801,2.7625,2.7625,2.7625,2.7625,2.7625,2.7265,2.5854,2.3595,2.3595,2.3595,2.3595,2.3595,2.3595,2.3595,2.3595,2.3595,2.3595,2.3595,2.3595,2.3709,2.4934,2.5892,2.659,2.6657,2.6691,2.6419,2.4641,2.5227,2.6922,2.8264,2.87,2.8725,2.8929,2.8994,2.9017,2.9044,2.8993,2.8993,2.9551,2.921,2.9098,3.0508,3.1007,3.124,3.1417,3.1636,3.0858,2.7799,2.7189,2.3659,1.2856,0.7531,0.2092,-0.5686,-1.2298,-1.6959,-1.847,-2.2543,-2.6372,-2.9265,-3.0356,-3.1331,-3.2545,-3.3125,-3.3576,-3.3833,-3.4353,-3.4766,-3.5028,-3.5919,-3.692,-3.8047,-3.884,-3.9747,-4.0725,-4.0725,-4.089,-4.1151,-4.1151,-4.1151,-4.1326,-4.4451,-4.5996,-4.6308,-4.6308,-4.6308,-4.6308,-4.6308,-4.6308,-4.6387,-4.7148,-4.8457,-4.9824,2.2433,2.3078,2.3078,2.3078,2.3078,2.3078,2.3078,2.4192,2.4996,2.4996,2.585,2.6533,2.6533,2.6533,2.6533,2.6533,2.9566,3.1482,3.1482,3.1482,3.0866,2.9385,2.8203,2.7625,2.7625,2.9026,2.9056,2.7625,2.7625,2.6961,2.5809,2.5809,2.5031,2.3595,2.3595,2.3595,2.3595,2.3595,2.3595,2.3595,2.3595,2.3595,2.3794,2.5433,2.5964,2.5944,2.6505,2.5947,2.4996,2.5265,2.5947,2.6954,2.8515,2.8994,2.8994,2.8994,2.8994,2.8994,2.8994,2.8957,2.8883,2.874,2.9208,2.9881,3.0485,3.1607,3.2357,3.1737,3.0834,2.9694,2.8158,2.3781,1.7621,0.9075,0.363,-0.1812,-0.8517,-1.378,-1.8427,-2.2498,-2.6465,-2.9372,-3.0708,-3.1854,-3.2719,-3.3247,-3.387,-3.4358,-3.4659,-3.4901,-3.5386,-3.6183,-3.6617,-3.7552,-3.9068,-3.9463,-4.0153,-4.1105,-4.1105,-4.1149,-4.1211,-4.168,-4.1973,-4.2246,-4.4062,-4.5391,-4.6308,-4.6308,-4.6308,-4.6308,-4.6308,-4.6894,-4.7851,-4.873,-4.9531,-5.0234]},{"header":{"parameterUnit":"m.s-1","parameterCategory":1,"la1":30.6,"la2":28.766,"lo1":-90.7593,"lo2":-88.6598,"dy":0.0162,"dx":0.0183,"nx":116,"ny":114,"refTime":"2024-04-30T06:00:00:Z","depth":0,"parameterNumber":3,"parameterNumberName":"V-component_of_WINDS"},"data":[0.0,0.0,0.0,0.0,0.0,0.0,0.0,0.0,0.0,0.0,0.0,0.0,0.0,0.0,0.0,0.0,0.0,0.0,0.0,0.0,0.0,0.0,0.0,0.0,0.0,0.0,0.0,0.0,0.0,0.0,0.0,0.0,0.0,0.0,0.0,0.0,0.0,0.0,0.0,0.0,0.0,0.0,0.0,0.0,0.0,0.0,0.0,0.0,0.0,0.0,0.0,0.0,0.0,0.0,0.0,0.0,0.0,0.0,0.0,0.0,0.0,0.0,0.0,0.0,0.0,0.0,0.0,0.0,0.0,0.0,0.0,0.0,0.0,0.0,0.0,0.0,0.0,0.0,0.0,0.0,0.0,0.0,0.0,0.0,0.0,0.0,0.0,0.0,0.0,0.0,0.0,0.0,0.0,0.0,0.0,0.0,0.0,0.0,0.0,0.0,0.0,0.0,0.0,0.0,0.0,0.0,0.0,0.0,0.0,0.0,0.0,0.0,0.0,0.0,0.0,0.0,0.0,0.0,0.0,0.0,0.0,0.0,0.0,0.0,0.0,0.0,0.0,0.0,0.0,0.0,0.0,0.0,0.0,0.0,0.0,0.0,0.0,0.0,0.0,0.0,0.0,0.0,0.0,0.0,0.0,0.0,0.0,0.0,0.0,0.0,0.0,0.0,0.0,0.0,0.0,0.0,0.0,0.0,0.0,0.0,0.0,0.0,0.0,0.0,0.0,0.0,0.0,0.0,0.0,0.0,0.0,0.0,0.0,0.0,0.0,0.0,0.0,0.0,0.0,0.0,0.0,0.0,0.0,0.0,0.0,0.0,0.0,0.0,0.0,0.0,0.0,0.0,0.0,0.0,0.0,0.0,0.0,0.0,0.0,0.0,0.0,0.0,0.0,0.0,0.0,0.0,0.0,0.0,0.0,0.0,0.0,0.0,0.0,0.0,0.0,0.0,0.0,0.0,0.0,0.0,0.0,0.0,0.0,0.0,0.0,0.0,0.0,0.0,0.0,0.0,0.0,0.0,0.0,0.0,0.0,0.0,0.0,0.0,0.0,0.0,0.0,0.0,0.0,0.0,0.0,0.0,0.0,0.0,0.0,0.0,0.0,0.0,0.0,0.0,0.0,0.0,0.0,0.0,0.0,0.0,0.0,0.0,0.0,0.0,0.0,0.0,0.0,0.0,0.0,0.0,0.0,0.0,0.0,0.0,0.0,0.0,0.0,0.0,0.0,0.0,0.0,0.0,0.0,0.0,0.0,0.0,0.0,0.0,0.0,0.0,0.0,0.0,0.0,0.0,0.0,0.0,0.0,0.0,0.0,0.0,0.0,0.0,0.0,0.0,0.0,0.0,0.0,0.0,0.0,0.0,0.0,0.0,0.0,0.0,0.0,0.0,0.0,0.0,0.0,0.0,0.0,0.0,0.0,0.0,0.0,0.0,0.0,0.0,0.0,0.0,0.0,0.0,0.0,0.0,0.0,0.0,0.0,0.0,0.0,0.0,0.0,0.0,0.0,0.0,0.0,0.0,0.0,0.0,0.0,0.0,0.0,0.0,0.0,0.0,0.0,0.0,0.0,0.0,0.0,0.0,0.0,0.0,0.0,0.0,0.0,0.0,0.0,0.0,0.0,0.0,0.0,0.0,0.0,0.0,0.0,0.0,0.0,0.0,0.0,0.0,0.0,0.0,0.0,0.0,0.0,0.0,0.0,0.0,0.0,0.0,0.0,0.0,0.0,0.0,0.0,0.0,0.0,0.0,0.0,0.0,0.0,0.0,0.0,0.0,0.0,0.0,0.0,0.0,0.0,0.0,0.0,0.0,0.0,0.0,0.0,0.0,0.0,0.0,0.0,0.0,0.0,0.0,0.0,0.0,0.0,0.0,0.0,0.0,0.0,0.0,0.0,0.0,0.0,0.0,0.0,0.0,0.0,0.0,0.0,0.0,0.0,0.0,0.0,0.0,0.0,0.0,0.0,0.0,0.0,0.0,0.0,0.0,0.0,0.0,0.0,0.0,0.0,0.0,0.0,0.0,0.0,0.0,0.0,0.0,0.0,0.0,0.0,0.0,0.0,0.0,0.0,0.0,0.0,0.0,0.0,0.0,0.0,0.0,0.0,0.0,0.0,0.0,0.0,0.0,0.0,0.0,0.0,0.0,0.0,0.0,0.0,0.0,0.0,0.0,0.0,0.0,0.0,0.0,0.0,0.0,0.0,0.0,0.0,0.0,0.0,0.0,0.0,0.0,0.0,0.0,0.0,0.0,0.0,0.0,0.0,0.0,0.0,0.0,0.0,0.0,0.0,0.0,0.0,0.0,0.0,0.0,0.0,0.0,0.0,0.0,0.0,0.0,0.0,0.0,0.0,0.0,0.0,0.0,0.0,0.0,0.0,0.0,0.0,0.0,0.0,0.0,0.0,0.0,0.0,0.0,0.0,0.0,0.0,0.0,0.0,0.0,0.0,0.0,0.0,0.0,0.0,0.0,0.0,0.0,0.0,0.0,0.0,0.0,0.0,0.0,0.0,0.0,0.0,0.0,0.0,0.0,0.0,0.0,0.0,0.0,0.0,0.0,0.0,0.0,0.0,0.0,0.0,0.0,0.0,0.0,0.0,0.0,0.0,0.0,0.0,0.0,0.0,0.0,0.0,0.0,0.0,0.0,0.0,0.0,0.0,0.0,0.0,0.0,0.0,0.0,0.0,0.0,0.0,0.0,0.0,0.0,0.0,0.0,0.0,0.0,0.0,0.0,0.0,0.0,0.0,0.0,0.0,0.0,0.0,0.0,0.0,0.0,0.0,0.0,0.0,0.0,0.0,0.0,0.0,0.0,0.0,0.0,0.0,0.0,0.0,0.0,0.0,0.0,0.0,0.0,0.0,0.0,0.0,0.0,0.0,0.0,0.0,0.0,0.0,0.0,0.0,0.0,0.0,0.0,0.0,0.0,0.0,0.0,0.0,0.0,0.0,0.0,0.0,0.0,0.0,0.0,0.0,0.0,0.0,0.0,0.0,0.0,0.0,0.0,0.0,0.0,0.0,0.0,0.0,0.0,0.0,0.0,0.0,0.0,0.0,0.0,0.0,0.0,0.0,0.0,0.0,0.0,0.0,0.0,0.0,0.0,0.0,0.0,0.0,0.0,0.0,0.0,0.0,0.0,0.0,0.0,0.0,0.0,0.0,0.0,0.0,0.0,0.0,0.0,0.0,0.0,0.0,0.0,0.0,0.0,0.0,0.0,0.0,0.0,0.0,0.0,0.0,0.0,0.0,0.0,0.0,0.0,0.0,0.0,0.0,0.0,0.0,0.0,0.0,0.0,0.0,0.0,0.0,0.0,0.0,0.0,0.0,0.0,0.0,0.0,0.0,0.0,0.0,0.0,0.0,0.0,0.0,0.0,0.0,0.0,0.0,0.0,0.0,0.0,0.0,0.0,0.0,0.0,0.0,0.0,0.0,0.0,0.0,0.0,0.0,0.0,0.0,0.0,0.0,0.0,0.0,0.0,0.0,0.0,0.0,0.0,0.0,0.0,0.0,0.0,0.0,0.0,0.0,0.0,0.0,0.0,0.0,0.0,0.0,0.0,0.0,0.0,0.0,0.0,0.0,0.0,0.0,0.0,0.0,0.0,0.0,0.0,0.0,0.0,0.0,0.0,0.0,0.0,0.0,0.0,0.0,0.0,0.0,0.0,0.0,0.0,0.0,0.0,0.0,0.0,0.0,0.0,0.0,0.0,0.0,0.0,0.0,0.0,0.0,0.0,0.0,0.0,0.0,0.0,0.0,0.0,0.0,0.0,0.0,0.0,0.0,0.0,0.0,0.0,0.0,0.0,0.0,0.0,0.0,0.0,0.0,0.0,0.0,0.0,0.0,0.0,0.0,0.0,0.0,0.0,0.0,0.0,0.0,0.0,0.0,0.0,0.0,0.0,0.0,0.0,0.0,0.0,0.0,0.0,0.0,0.0,0.0,0.0,0.0,0.0,0.0,0.0,0.0,0.0,0.0,0.0,0.0,0.0,0.0,0.0,0.0,0.0,0.0,0.0,0.0,0.0,0.0,0.0,0.0,0.0,0.0,0.0,0.0,0.0,0.0,0.0,0.0,0.0,0.0,0.0,0.0,0.0,0.0,0.0,0.0,0.0,0.0,0.0,0.0,0.0,0.0,0.0,0.0,0.0,0.0,0.0,0.0,0.0,0.0,0.0,0.0,0.0,0.0,0.0,0.0,0.0,0.0,0.0,0.0,0.0,0.0,0.0,0.0,0.0,0.0,0.0,0.0,0.0,0.0,0.0,0.0,0.0,0.0,0.0,0.0,0.0,0.0,0.0,0.0,0.0,0.0,0.0,0.0,0.0,0.0,0.0,0.0,0.0,0.0,0.0,0.0,0.0,0.0,0.0,0.0,0.0,0.0,0.0,0.0,0.0,0.0,0.0,0.0,0.0,0.0,0.0,0.0,0.0,0.0,0.0,0.0,0.0,0.0,0.0,0.0,0.0,0.0,0.0,0.0,0.0,0.0,0.0,0.0,0.0,0.0,0.0,0.0,0.0,0.0,0.0,0.0,0.0,0.0,0.0,0.0,0.0,0.0,0.0,0.0,0.0,0.0,0.0,0.0,0.0,0.0,0.0,0.0,0.0,0.0,0.0,0.0,0.0,0.0,0.0,0.0,0.0,0.0,0.0,0.0,0.0,0.0,0.0,0.0,0.0,0.0,0.0,0.0,0.0,0.0,0.0,0.0,0.0,0.0,0.0,0.0,0.0,0.0,0.0,0.0,0.0,0.0,0.0,0.0,0.0,0.0,0.0,0.0,0.0,0.0,0.0,0.0,0.0,0.0,0.0,0.0,0.0,0.0,0.0,0.0,0.0,0.0,0.0,0.0,0.0,0.0,0.0,0.0,0.0,0.0,0.0,0.0,0.0,0.0,0.0,0.0,0.0,0.0,0.0,0.0,0.0,0.0,0.0,0.0,0.0,0.0,0.0,0.0,0.0,0.0,0.0,0.0,0.0,0.0,0.0,0.0,0.0,0.0,0.0,0.0,0.0,0.0,0.0,0.0,0.0,0.0,0.0,0.0,0.0,0.0,0.0,0.0,0.0,0.0,0.0,0.0,0.0,0.0,0.0,0.0,0.0,0.0,0.0,0.0,0.0,0.0,0.0,0.0,0.0,0.0,0.0,0.0,0.0,0.0,0.0,0.0,0.0,0.0,0.0,0.0,0.0,0.0,0.0,0.0,0.0,0.0,0.0,0.0,0.0,0.0,0.0,0.0,0.0,0.0,0.0,0.0,0.0,0.0,0.0,0.0,0.0,0.0,0.0,0.0,0.0,0.0,0.0,0.0,0.0,0.0,0.0,0.0,0.0,0.0,0.0,0.0,0.0,0.0,0.0,0.0,0.0,0.0,0.0,0.0,0.0,0.0,0.0,0.0,0.0,0.0,0.0,0.0,0.0,0.0,0.0,0.0,0.0,0.0,0.0,0.0,0.0,0.0,0.0,0.0,0.0,0.0,0.0,0.0,0.0,0.0,0.0,0.0,0.0,0.0,0.0,0.0,0.0,0.0,0.0,0.0,0.0,0.0,0.0,0.0,0.0,0.0,0.0,0.0,0.0,0.0,0.0,0.0,0.0,0.0,0.0,0.0,0.0,0.0,0.0,0.0,0.0,0.0,0.0,0.0,0.0,0.0,0.0,0.0,0.0,0.0,0.0,0.0,0.0,0.0,0.0,0.0,0.0,0.0,0.0,0.0,0.0,0.0,0.0,0.0,0.0,0.0,0.0,0.0,0.0,0.0,0.0,0.0,0.0,0.0,0.0,0.0,0.0,0.0,0.0,0.0,0.0,0.0,0.0,0.0,0.0,0.0,0.0,0.0,0.0,0.0,0.0,0.0,0.0,0.0,0.0,0.0,0.0,0.0,0.0,0.0,0.0,0.0,0.0,0.0,0.0,0.0,0.0,0.0,0.0,0.0,0.0,0.0,0.0,0.0,0.0,0.0,0.0,0.0,0.0,0.0,0.0,0.0,0.0,0.0,0.0,0.0,0.0,0.0,0.0,0.0,0.0,0.0,0.0,0.0,0.0,0.0,0.0,0.0,0.0,0.0,0.0,-0.6704,0.0,0.0,0.0,0.0,0.0,0.0,0.0,0.0,0.0,0.0,0.0,0.0,0.0,0.0,0.0,0.0,0.0,0.0,0.0,0.0,0.0,0.0,0.0,0.0,-0.6599,-0.6749,-0.7137,-0.7162,-0.7488,-0.8273,-0.9613,-1.0348,-1.0286,-1.0893,-1.1415,-1.1805,-1.1805,-1.1805,-1.1805,-1.1191,-1.0734,-1.042,-1.0311,-1.0348,-1.0508,0.0,0.0,0.0,0.0,0.0,0.0,0.0,0.0,0.0,0.0,0.0,0.0,0.0,0.0,0.0,0.0,0.0,0.0,0.0,0.0,0.0,0.0,0.0,0.0,0.0,0.0,0.0,0.0,0.0,0.0,0.0,0.0,0.0,0.0,0.0,0.0,0.0,0.0,0.0,0.0,0.0,0.0,0.0,0.0,0.0,0.0,0.0,0.0,0.0,0.0,0.0,0.0,0.0,0.0,0.0,0.0,0.0,0.0,0.0,0.0,0.0,0.0,0.0,0.0,0.0,0.0,0.0,0.0,0.0,0.0,0.0,-0.6481,0.0,0.0,0.0,0.0,0.0,0.0,0.0,0.0,0.0,0.0,0.0,0.0,0.0,0.0,0.0,0.0,0.0,0.0,0.0,0.0,0.0,-0.6599,-0.6599,-0.6599,-0.6599,-0.6599,-0.6599,-0.6599,-0.6599,-0.9396,-1.0811,-1.026,-1.0859,-1.1384,-1.1805,-1.1805,-1.1745,-1.1625,-1.0689,-1.0214,-1.0172,-1.0693,-1.0846,-1.074,-1.1461,0.0,0.0,0.0,0.0,0.0,0.0,0.0,0.0,0.0,0.0,0.0,0.0,0.0,0.0,0.0,0.0,0.0,0.0,0.0,0.0,0.0,0.0,0.0,0.0,0.0,0.0,0.0,0.0,0.0,0.0,0.0,0.0,0.0,0.0,0.0,0.0,0.0,0.0,0.0,0.0,0.0,0.0,0.0,0.0,0.0,0.0,0.0,0.0,0.0,0.0,0.0,0.0,0.0,0.0,0.0,0.0,0.0,0.0,0.0,0.0,0.0,0.0,0.0,-1.3392,-1.2881,-1.29,-1.3603,-1.3748,-1.3393,-1.0663,-0.8423,-0.662,-0.5973,0.0,0.0,0.0,0.0,0.0,0.0,0.0,0.0,0.0,0.0,0.0,0.0,0.0,0.0,0.0,0.0,0.0,0.0,0.0,-0.6599,-0.6599,-0.6599,-0.6599,-0.6599,-0.6599,-0.6599,-0.6599,-0.9782,-1.1637,-1.1557,-1.1339,-1.1384,-1.1805,-1.1805,-1.1521,-1.0932,-1.1352,-1.1414,-1.1261,-1.3826,-1.4516,-1.351,-1.2266,-1.2808,-1.4701,0.0,0.0,0.0,0.0,0.0,0.0,0.0,0.0,0.0,0.0,0.0,0.0,0.0,0.0,0.0,0.0,0.0,0.0,0.0,0.0,0.0,0.0,0.0,0.0,0.0,0.0,0.0,0.0,0.0,0.0,0.0,0.0,0.0,0.0,0.0,0.0,0.0,0.0,0.0,0.0,0.0,-0.8569,-2.2673,0.0,0.0,0.0,0.0,0.0,0.0,0.0,0.0,0.0,0.0,0.0,0.0,0.0,-1.4901,-1.6697,-1.6837,-1.5664,-1.3162,-1.2978,-1.2881,-1.2881,-1.2998,-1.2364,-1.1209,-1.0802,0.0,-0.8451,-0.8365,0.0,0.0,0.0,0.0,0.0,0.0,0.0,0.0,0.0,0.0,0.0,0.0,0.0,0.0,0.0,0.0,0.0,0.0,0.0,0.0,0.0,-0.7162,-0.7288,-0.6649,-0.6599,-0.6599,-0.6599,-0.8026,-0.9756,-1.1709,-1.0544,-1.0552,-1.2056,-1.1257,-1.0878,-1.0963,-1.1866,-1.2575,-1.3116,-1.4656,-1.5491,-1.5714,-1.5163,-1.5234,-1.5813,-1.5774,0.0,0.0,0.0,0.0,0.0,0.0,0.0,0.0,0.0,0.0,0.0,0.0,0.0,0.0,0.0,0.0,0.0,0.0,0.0,0.0,0.0,0.0,0.0,0.0,0.0,0.0,0.0,0.0,0.0,0.0,0.0,0.0,0.0,0.0,0.0,0.0,0.0,0.0,0.0,-1.242,-1.0639,-1.7326,-1.9741,-2.1229,0.0,0.0,0.0,0.0,0.0,0.0,0.0,0.0,0.0,-1.7851,-1.6613,-1.614,-1.6509,-1.5152,-1.4606,-1.4926,-1.3573,-1.2881,-1.291,-1.3867,-1.3001,-1.0689,-1.0689,-1.0356,-0.9681,-0.8184,-0.6692,-0.5339,0.0,0.0,0.0,0.0,0.1246,0.1011,0.0,0.0,0.0,0.0,0.0,0.0,0.0,0.0,0.0,0.0,0.0,0.0,-0.7022,-0.8238,-0.88,-0.8233,-0.7299,-0.7001,-0.7592,-0.7078,-0.7914,-1.0505,-0.9821,-1.0176,-1.1925,-1.1189,-1.1099,-1.1778,-1.2744,-1.3872,-1.5065,-1.5706,-1.6697,-1.7934,-1.8205,-1.8007,-1.7453,-1.6849,-1.7577,-1.9147,0.0,0.0,0.0,0.0,0.0,0.0,0.0,0.0,0.0,0.0,0.0,0.0,0.0,0.0,0.0,0.0,0.0,0.0,0.0,0.0,0.0,0.0,0.0,0.0,0.0,0.0,0.0,0.0,0.0,0.0,0.0,0.0,0.0,0.0,0.0,0.0,0.0,-1.4963,-1.4813,-1.4791,-1.7384,-1.97,0.0,0.0,0.0,0.0,0.0,0.0,-1.7339,-1.7015,-1.6739,-1.6519,-1.6995,-1.7008,-1.6522,-1.4118,-1.38,-1.5567,-1.3752,-1.2881,-1.2939,-1.4639,-1.3657,-1.0624,-1.0624,-1.0624,-1.0362,-0.749,-0.5559,-0.4584,-0.5196,-0.5325,-0.4858,-0.2296,-0.1075,-0.0638,0.0,0.0,0.0,0.0,0.0,0.0,0.0,0.0,0.0,0.0,0.0,-0.7039,-0.819,-0.9946,-1.1446,-1.2398,-0.9232,-0.8095,-1.0261,-0.8376,-0.7235,-0.7423,-0.9654,-1.0925,-1.1071,-1.2047,-1.2894,-1.3568,-1.4323,-1.5411,-1.6795,-1.8095,-1.9337,-2.0438,-2.0713,-2.0483,-1.9847,-1.8877,-1.9072,-1.9993,-1.9506,0.0,0.0,0.0,0.0,0.0,0.0,0.0,0.0,0.0,0.0,0.0,0.0,0.0,0.0,0.0,0.0,0.0,0.0,0.0,0.0,0.0,0.0,0.0,0.0,0.0,0.0,0.0,0.0,0.0,0.0,0.0,0.0,0.0,0.0,0.0,0.0,0.0,0.0,-1.8318,-1.8115,0.0,0.0,0.0,0.0,-1.7697,-1.6896,-1.678,-1.7518,-1.6255,-1.5812,-1.6476,-1.556,-1.5535,-1.6509,-1.4118,-1.2978,-1.3065,-1.2978,-1.2881,-1.2939,-1.4639,-1.3657,-1.0624,-1.0624,-1.0624,-1.0358,-0.688,-0.5102,-0.4522,-0.4567,-0.4577,-0.4166,-0.1183,-0.1168,-0.2347,0.0,0.0,0.0,-0.539,-0.595,-0.6289,-0.6564,-0.6706,-0.6807,-0.6858,-0.7309,-0.7951,-0.8822,-1.0221,-1.1263,-1.1738,-1.0553,-0.9926,-1.0328,-0.8496,-0.8046,-0.9508,-0.9623,-1.0269,-1.1613,-1.264,-1.3633,-1.4586,-1.557,-1.6697,-1.802,-1.9311,-2.0705,-2.2091,-2.2312,-2.2417,-2.2291,-2.0434,-1.9614,-1.9565,-1.9387,-1.9169,0.0,0.0,0.0,0.0,0.0,0.0,0.0,0.0,0.0,0.0,0.0,0.0,0.0,0.0,0.0,0.0,0.0,0.0,0.0,0.0,0.0,0.0,0.0,0.0,0.0,0.0,0.0,0.0,0.0,0.0,0.0,0.0,0.0,0.0,0.0,0.0,0.0,-1.8161,-1.8132,0.0,-1.7712,-1.8115,-1.8223,-1.7727,-1.8209,-1.7991,-1.6688,-1.6216,-1.6368,-1.7187,-1.6384,-1.5727,-1.5332,-1.3705,-1.2881,-1.2881,-1.2881,-1.3447,-1.4531,-1.5137,-1.3657,-1.0624,-1.0624,-1.0624,-1.0498,-0.9256,-0.7267,-0.5102,-0.5102,-0.5102,-0.4662,-0.1263,-0.0403,-0.0855,0.0,-0.1952,0.0,-0.4806,-0.5657,-0.6213,-0.6547,-0.6774,-0.6924,-0.696,-0.769,-0.8562,-0.9526,-1.0556,-1.1413,-1.2014,-1.1465,-1.0879,-1.0432,-0.897,-0.8784,-1.0287,-1.0092,-1.0575,-1.1939,-1.341,-1.459,-1.5505,-1.655,-1.7679,-1.8848,-1.9361,-2.0674,-2.2621,-2.3082,-2.3437,-2.3605,-2.2227,-2.1073,-2.0094,-1.9597,-1.9405,-1.9429,0.0,0.0,0.0,0.0,0.0,0.0,0.0,0.0,0.0,0.0,0.0,0.0,0.0,0.0,0.0,0.0,0.0,0.0,0.0,0.0,0.0,0.0,0.0,0.0,0.0,0.0,0.0,0.0,0.0,0.0,0.0,0.0,0.0,0.0,0.0,-1.9167,-1.8371,-1.8218,-1.8134,-1.8059,-1.7737,-1.7607,-1.7762,-1.8302,-1.8016,-1.6685,-1.6454,-1.6625,-1.7212,-1.6773,-1.6107,-1.5344,-1.426,-1.3447,-1.2891,-1.3457,-1.4326,-1.541,-1.541,-1.3657,-1.0624,-1.0624,-1.0624,-1.0624,-1.0624,-0.8544,-0.5428,-0.5428,-0.5552,-0.5237,-0.1419,0.0,0.0,0.0,-0.3053,-0.3159,-0.4805,-0.5545,-0.6057,-0.6512,-0.6774,-0.6911,-0.6911,-0.7704,-0.8855,-1.0355,-1.1147,-1.2146,-1.3635,-1.1969,-1.0817,-1.0817,-0.9866,-0.9326,-0.9372,-1.1041,-1.1971,-1.1943,-1.4327,-1.5843,-1.635,-1.7335,-1.8285,-1.9221,-1.8273,-1.9349,-2.2104,-2.3093,-2.3588,-2.3756,-2.4284,-2.3484,-2.1763,-2.0327,-1.9694,-1.967,0.0,0.0,0.0,0.0,0.0,0.0,0.0,0.0,0.0,0.0,0.0,0.0,0.0,0.0,0.0,0.0,0.0,0.0,0.0,0.0,0.0,0.0,0.0,0.0,0.0,0.0,0.0,0.0,0.0,0.0,0.0,0.0,0.0,-1.7776,-1.735,-1.7681,-1.9197,-1.8396,-1.7981,-1.8672,-1.7869,-1.7505,-1.7885,-1.7036,-1.6795,-1.7544,-1.6879,-1.6547,-1.6622,-1.6559,-1.6547,-1.6622,-1.5775,-1.459,-1.2978,-1.4619,-1.541,-1.541,-1.5469,-1.37,-1.0624,-1.0624,-1.0624,-1.0624,-1.0624,-0.8544,-0.5428,-0.5428,-0.5657,-0.5631,-0.1331,0.0235,0.0157,-0.3041,-0.3678,-0.4025,-0.4634,-0.5385,-0.5948,-0.6075,-0.6805,-0.7334,-0.7334,-0.8815,-1.0129,-1.0853,-1.2169,-1.3093,-1.3282,-1.2097,-1.1278,-1.1237,-1.0113,-0.9883,-1.0847,-1.1191,-1.1861,-1.2957,-1.4384,-1.5971,-1.7746,-1.7778,-1.7935,-1.8194,-1.8333,-2.0245,-2.3608,-2.3866,-2.4016,-2.4075,-2.4374,-2.42,-2.3721,-2.3369,-2.1826,-2.0054,0.0,0.0,0.0,0.0,0.0,0.0,0.0,0.0,0.0,0.0,0.0,0.0,0.0,0.0,0.0,0.0,0.0,0.0,0.0,0.0,0.0,0.0,0.0,0.0,0.0,0.0,0.0,0.0,0.0,0.0,0.0,-1.8676,-1.8314,-1.9159,-1.8482,-1.8143,-1.88,-1.8605,-1.8687,-1.9346,-1.8701,-1.8186,-1.8037,-1.7109,-1.6595,-1.6795,-1.6595,-1.725,-1.8844,-1.735,-1.7287,-1.8882,-1.6577,-1.5176,-1.4727,-1.5186,-1.541,-1.5449,-1.6719,-1.4845,-1.0624,-1.0624,-1.0624,-1.0624,-1.0624,-0.8544,-0.5428,-0.5428,-0.3864,-0.1251,0.3044,0.4535,0.4144,-0.2999,-0.3939,-0.4635,-0.4604,-0.5319,-0.5918,-0.5973,-0.6845,-0.7502,-0.7502,-0.8988,-1.024,-1.0763,-1.1674,-1.2364,-1.2697,-1.1427,-1.0653,-1.0765,-1.014,-1.0221,-1.1291,-1.1797,-1.2748,-1.4212,-1.5193,-1.6623,-1.8522,-1.8313,-1.8214,-1.8235,-1.868,-2.0427,-2.3235,-2.4078,-2.4428,-2.4375,-2.462,-2.4731,-2.4749,-2.4847,-2.3693,-2.2067,-2.3707,-2.3598,-2.2542,-2.245,-2.1387,-2.0449,-2.3062,0.0,0.0,0.0,0.0,0.0,0.0,0.0,0.0,0.0,0.0,0.0,0.0,0.0,0.0,0.0,0.0,0.0,0.0,0.0,0.0,0.0,0.0,0.0,0.0,-1.8578,-1.8834,-1.9704,-1.8981,-1.847,-1.8691,-1.8957,-1.9271,-1.9645,-1.9043,-1.8535,-1.8341,-1.7188,-1.6522,-1.6522,-1.6522,-1.7526,-1.9736,-1.7376,-1.6661,-1.7915,-1.6234,-1.541,-1.541,-1.541,-1.4911,-1.4087,-1.4675,-1.3348,-1.0651,-1.1076,-1.1015,-1.0624,-1.0624,-0.8716,0.0,0.0,0.0,0.0,0.0,0.1007,0.0698,-0.3105,-0.4123,-0.5069,-0.4724,-0.5385,-0.6016,-0.6088,-0.6916,-0.7504,-0.7431,-0.8541,-0.9555,-1.0129,-1.0431,-1.0936,-1.1905,-1.0381,-0.9481,-0.976,-0.9908,-1.0378,-1.1316,-1.3101,-1.4623,-1.5819,-1.6606,-1.7629,-1.8858,-1.8825,-1.8824,-1.8859,-1.9162,-2.0296,-2.2151,-2.3967,-2.4749,-2.466,-2.4904,-2.5056,-2.5103,-2.526,-2.5139,-2.4763,-2.3672,-2.4101,-2.5303,-2.5253,-2.3099,-2.1124,-2.6606,0.0,0.0,0.0,0.0,0.0,0.0,0.0,0.0,0.0,0.0,0.0,0.0,0.0,0.0,0.0,0.0,0.0,0.0,0.0,0.0,0.0,0.0,0.0,0.0,-1.969,-1.969,-1.969,-1.9181,-1.8807,-1.8807,-1.9331,-1.969,-1.969,-1.9043,-1.8612,-1.8727,-1.7353,-1.6522,-1.6522,0.0,0.0,0.0,0.0,-1.541,-1.541,-1.541,-1.541,-1.542,-1.5172,-1.4003,-1.2071,-1.1169,-1.0819,-1.088,-1.185,-1.1717,-1.0819,-1.0819,-0.8997,-0.6283,-0.5741,-0.5861,-0.6338,-0.6338,-0.6338,-0.6338,-0.4144,-0.5232,-0.5593,-0.5098,-0.5818,-0.6384,-0.6132,-0.7036,-0.7544,-0.7015,-0.8131,-0.8961,-0.8886,-1.0503,-1.1382,-1.0809,-0.9672,-0.9024,-0.9098,-0.9109,-1.0275,-1.2837,-1.629,-1.8287,-1.8547,-1.846,-1.8661,-1.9198,-1.8929,-1.8946,-1.9193,-1.9274,-2.0886,-2.3768,-2.4492,-2.4884,-2.5016,-2.5056,-2.5086,-2.5115,-2.5359,-2.5411,-2.5322,-2.4985,-2.5041,-2.5264,-2.4987,-2.4431,-2.3944,-2.482,-2.252,-1.8816,-1.6022,-1.5278,0.0,0.0,0.0,0.0,0.0,0.0,0.0,0.0,0.0,0.0,0.0,0.0,0.0,0.0,0.0,0.0,0.0,0.0,0.0,-1.9401,-1.969,-1.969,-1.969,-1.957,-1.9495,-1.9495,-1.9615,-1.969,-1.969,-1.9043,-1.8855,-1.9442,-1.7626,-1.6522,-1.6522,-1.8204,-1.8287,-1.6337,-1.569,-1.541,-1.541,-1.541,-1.541,-1.5371,0.0,0.0,-1.0922,-1.1637,-1.1964,-1.1977,-1.2204,-1.2171,-1.1964,-1.1964,-0.9723,-0.6325,-0.6208,-0.6235,-0.6338,-0.6338,-0.6338,-0.6338,-0.3677,-0.4863,-0.5616,-0.5182,-0.5779,-0.6332,-0.6297,-0.7155,-0.7759,-0.762,-0.8038,-0.848,-0.8855,-0.988,-1.0022,-0.8661,-0.9015,-0.9179,-0.8913,-0.8891,-0.9988,-1.2432,-1.5343,-1.733,-1.8278,-1.827,-1.8592,-1.9305,-1.924,-1.9283,-1.9444,-1.9444,-2.0804,-2.3279,-2.3632,-2.4312,-2.5206,-2.5282,-2.5219,-2.5116,-2.521,-2.5351,-2.5487,-2.543,-2.5368,-2.5253,-2.4929,-2.4613,-2.4312,-2.4118,-2.3033,-2.1369,-1.9101,-1.736,-1.6081,0.0,0.0,0.0,0.0,0.0,0.0,0.0,0.0,0.0,0.0,0.0,0.0,0.0,0.0,-1.9428,-2.0575,0.0,-1.8224,-1.9479,-1.9724,-1.9759,-1.9692,-1.969,-1.969,-1.969,-1.9442,-1.9281,-1.9281,-1.8727,-1.8725,-1.9681,-1.8755,-1.8154,-1.8154,-1.9208,-1.8424,-1.5459,-1.541,-1.541,-1.541,-1.6279,-1.6709,-1.6709,-1.4785,-1.3296,-1.2245,-1.2317,-1.2305,-1.2305,-1.2305,-1.2305,-1.2305,-1.2305,-1.1093,-0.9135,-0.7096,-0.6338,-0.6338,-0.6338,-0.6338,-0.6338,-0.3347,-0.4471,-0.5576,-0.5305,-0.5916,-0.6523,-0.6765,-0.7475,-0.8083,-0.8303,-0.8194,-0.836,-0.8993,-0.9178,-0.8714,-0.7389,-0.877,-0.9517,-0.9078,-0.8957,-0.9903,-1.2149,-1.4362,-1.5913,-1.673,-1.7639,-1.8519,-1.9354,-1.955,-1.9638,-1.9682,-1.9682,-2.0646,-2.2441,-2.2681,-2.375,-2.5372,-2.5419,-2.5291,-2.5078,-2.5007,-2.5111,-2.5324,-2.5346,-2.5256,-2.5061,-2.4874,-2.4498,-2.4063,-2.3989,-2.4061,-2.3994,-2.2703,-2.0636,-1.8099,-1.5122,-1.5933,0.0,0.0,0.0,0.0,0.0,0.0,0.0,0.0,-1.898,-1.6478,-1.7559,-1.7345,-1.7522,-1.9346,-1.9723,-1.9739,-1.9708,-1.9771,-1.9749,-1.9715,-1.969,-1.969,-1.969,-1.9332,-1.8968,-1.8765,-1.8535,-1.8641,-1.9128,-1.9571,-1.9798,-1.9798,-1.9254,-1.7884,-1.5468,-1.541,-1.541,-1.541,-1.7139,-1.8008,-1.7988,-1.6321,-1.4872,-1.3572,-1.272,-1.2305,-1.2305,-1.2305,-1.2305,-1.2305,-1.2305,-1.2305,-1.1948,-0.8013,-0.6363,-0.6338,-0.6338,-0.6338,-0.6338,-0.4864,-0.5391,-0.5863,-0.583,-0.6814,-0.7682,-0.788,-0.8355,-0.8546,-0.8179,-0.8771,-0.8965,-0.831,-0.8924,-0.9385,-0.9362,-0.9573,-0.9683,-0.9617,-0.9159,-1.0475,-1.4039,-1.7408,-1.7831,-1.4873,-1.7931,-1.9576,-1.9581,-1.9717,-1.9832,-1.995,-1.995,-2.1015,-2.2923,-2.284,-2.385,-2.5622,-2.5281,-2.5136,-2.508,-2.4888,-2.4776,-2.4704,-2.4837,-2.4657,-2.4356,-2.4685,-2.4756,-2.4648,-2.4284,-2.4171,-2.3994,-2.2703,-2.209,-2.1228,-1.82,-1.7557,-1.8155,-1.9848,-1.9601,-1.898,-1.9462,-2.0362,-2.1166,0.0,-1.9231,-1.7537,-1.7666,-1.9481,-2.0767,-1.9854,-1.9731,-1.9708,-1.9698,-1.97,-1.9693,-1.9705,-1.969,-1.969,-1.969,-1.9639,-1.9244,-1.8302,-1.9006,-1.8784,-1.7016,-1.8667,-1.9798,-1.9798,-1.7335,-1.5738,-1.541,-1.541,-1.541,-1.541,-1.7139,-1.8008,-1.8008,-1.6688,-1.4755,-1.249,-1.2345,-1.2305,-1.2305,-1.2305,-1.2305,-1.2305,-1.2305,-1.2305,-1.1945,-0.8409,-0.6722,-0.6338,-0.6338,-0.6338,-0.6338,-0.4718,-0.5281,-0.5447,-0.5439,-0.675,-0.7981,-0.8489,-0.8993,-0.9234,-0.9008,-0.9348,-0.95,-0.9131,-0.9382,-0.9638,-0.9805,-0.9739,-0.9698,-0.9698,-0.9491,-1.0899,-1.4359,-1.8102,-1.9397,-1.79,-1.8232,-1.8875,-1.9823,-1.988,-1.996,-2.0002,-2.0116,-2.1132,-2.291,-2.3233,-2.4114,-2.5332,-2.5089,-2.4835,-2.4572,-2.4622,-2.4517,-2.4357,-2.4445,-2.4358,-2.4228,-2.4393,-2.285,0.0,-1.9955,-2.0616,-2.1657,-2.1139,-2.0948,-2.0694,-1.9444,-1.8894,-1.8795,-1.9354,-1.979,-1.9906,-1.9184,-1.989,-2.0868,-2.1296,-2.0096,-1.8867,-1.8867,-1.9346,-1.975,-1.969,-1.9706,-1.9732,0.0,-1.9737,-1.9737,-1.9701,-1.9169,-1.9006,-1.9639,-1.9169,-1.8574,-1.8145,-1.7947,-1.7463,-1.6552,-1.8555,-1.9798,-1.9798,-1.7002,-1.541,-1.541,-1.541,-1.541,-1.541,-1.7139,-1.7842,-1.7444,-1.7281,-1.6655,-1.5658,-1.5658,-1.4371,-1.2305,-1.2305,-1.3585,-1.5438,-1.323,-1.2712,-1.2891,-0.8755,-0.699,-0.6773,-0.6773,-0.6773,-0.6722,-0.4419,-0.5672,-0.5623,-0.3987,-0.4779,-0.6382,-0.8577,-0.9321,-0.9627,-0.9605,-0.9729,-0.9819,-0.9831,-0.9764,-0.9771,-0.9869,-0.9832,-0.9625,-0.914,-0.9492,-1.1181,-1.4558,-1.7388,-1.8888,-1.8888,-1.844,-1.8824,-2.0069,-2.0089,-2.0108,-2.0125,-2.048,-2.1444,-2.2884,-2.3413,-2.4191,-2.5072,-2.4822,-2.4524,-2.419,-2.4116,-2.3877,-2.3584,-2.4025,-2.3914,-2.3474,-2.3015,-1.9959,-1.6155,-1.626,-1.7445,-1.891,-1.9306,-1.9403,-1.9461,-1.9765,-1.9681,-1.9408,-1.912,-1.9908,-2.0548,-1.9355,-1.992,-2.0868,-2.1302,-2.0812,-2.0146,-1.9805,-1.9617,-1.9459,-1.9413,-2.0177,-2.0626,-1.9834,-1.974,-1.9754,-1.9708,-1.9043,-1.8612,-1.8817,-1.865,-1.8302,-1.7706,-1.6951,-1.6522,-1.6522,-1.8555,-1.9798,-1.9798,-1.7002,-1.541,-1.541,-1.5879,-1.6133,-1.6133,-1.7383,-1.7793,-1.7383,-1.7803,-1.8008,-1.8018,-1.8252,-1.6947,-1.4561,-1.4561,-1.5889,-1.7832,-1.5511,-1.4381,-1.3737,-1.0351,-0.8273,-0.7228,-0.8532,-0.9052,-0.8974,0.0,-0.7093,-0.6966,-0.1158,-0.0197,-0.2205,-0.8011,-0.9243,-0.9527,-0.9602,-0.9774,-0.9893,-0.9887,-0.9832,-0.9794,-0.9794,-0.9982,-0.9395,-0.7768,-0.8934,-1.1333,-1.5018,-1.5285,-1.5343,-1.5343,-1.8554,-2.0246,-2.0285,-2.0361,-2.0381,-2.0408,-2.1193,-2.2064,-2.3004,-2.3227,-2.3986,-2.5059,-2.4466,-2.4209,-2.4135,-2.3364,-2.2556,-2.2041,-2.3602,-2.3217,-2.1674,-2.0039,-1.6236,-1.2366,-1.495,-1.587,-1.6167,-1.7527,-1.7925,-1.808,-1.9199,-1.972,-1.974,-1.8623,-1.9345,-2.0235,-1.9404,-2.0212,-2.11,-2.0798,-2.1201,-2.1322,-2.0146,-2.1123,-2.145,-1.9065,-2.1269,-2.264,-2.0109,-1.9713,-1.9692,-1.969,-1.969,-1.8893,-1.6837,-1.8419,-1.8817,0.0,-1.6522,-1.6522,-1.6522,-1.8555,-1.9798,-1.9798,-1.7002,-1.541,-1.541,-1.7051,-1.793,-1.793,-1.7978,-1.7998,-1.7978,-1.8008,-1.8008,-1.8037,-1.8867,-1.9623,-2.0324,-2.0324,-1.9467,-1.8135,-1.972,-1.7848,-1.4088,-1.3913,-1.1128,-0.7661,-1.2174,-1.3913,-1.3906,0.0,0.0,-0.7011,-0.1034,-0.3269,-0.6707,-0.9072,-0.925,-0.9234,-0.9613,-0.9836,0.0,0.0,0.0,0.0,0.0,-0.9869,-0.9665,-0.9283,-0.762,-0.8187,-1.1671,-1.3997,-1.5189,-1.5189,-1.6413,-1.7046,-1.7046,-1.8223,-1.8756,-1.8697,-1.9546,-2.0389,-2.1235,-2.1875,-2.2825,-2.3846,-2.3205,-2.3033,-2.2978,-2.1253,-2.0636,-2.0823,-2.0908,-1.995,-1.8276,0.0,-1.3837,-1.1939,-1.2837,-1.4034,-1.5287,-1.6225,-1.6889,-1.7649,-1.9328,-1.9684,-1.9584,-1.9896,-2.0416,-2.0908,-2.0872,-2.1205,-2.1486,-2.1391,-2.1201,-2.0988,-2.0726,-2.0625,-2.0341,-1.9472,-2.0243,-2.0707,-1.9824,-1.969,-1.969,-1.969,-1.969,-1.8893,-1.6752,-1.7146,0.0,0.0,0.0,0.0,-1.6522,-1.7212,-1.8254,-1.9723,-1.8862,-1.7931,-1.7164,-1.7705,-1.7822,-1.7432,-1.7812,-1.7871,-1.7598,-1.7881,-1.8311,-1.8848,-1.8564,-1.9219,-2.0566,-2.0566,-2.0244,-1.9756,-2.0332,-1.8052,-1.4088,-1.4088,-1.313,-1.1912,-1.3561,-1.4088,-1.4088,0.0,0.0,0.0,-0.0677,-0.4928,0.0,0.0,0.0,0.0,0.0,0.0,0.0,0.0,0.0,0.0,0.0,0.0,-0.9925,-1.0119,-0.8096,-0.7306,-0.8268,-1.1574,-1.3374,-1.3374,-1.4702,-1.4783,-1.35,-1.5236,-1.614,-1.6281,-1.7546,-1.841,-1.8935,-2.0373,-2.1365,-2.1966,-2.1061,-2.0674,-2.046,-1.8617,-1.8172,-1.8548,-1.8356,-1.7337,0.0,-1.4031,-1.2962,-1.2336,-1.2154,-1.2811,-1.3943,-1.5133,-1.6241,-1.7379,-1.8799,-1.9244,-1.9518,-2.0499,-2.107,-2.1455,-2.1819,-2.2163,-2.2294,-2.2133,-2.1739,-2.1278,-2.0798,-2.0246,-1.9556,-1.8697,-1.9169,-1.969,-1.969,-1.9043,-1.8817,-1.9603,-1.969,-1.9179,-1.785,-1.8376,-1.8362,0.0,0.0,0.0,-1.5934,-1.6344,-1.7191,-1.864,-1.8999,-1.8774,-1.8037,-1.8008,-1.7832,-1.7451,-1.7822,-1.7871,-1.7607,-1.8357,-1.8775,-1.8828,-1.9073,-1.973,-2.0566,-2.0566,-2.0566,-2.0566,-2.0566,-1.8052,-1.4128,-1.4549,-1.4456,-1.4088,-1.4088,-1.4355,-1.4906,0.0,0.0,0.0,0.0,0.0,0.0,0.0,0.0,0.0,0.0,0.0,0.0,0.0,0.0,0.0,0.0,0.0,0.0,-1.0195,-1.0147,-0.8684,-0.5491,-0.8411,-1.0094,-1.0094,-1.3401,-1.3479,-1.0097,-1.1737,-1.2846,-1.3472,-1.537,-1.6243,-1.6331,-1.8677,-1.973,-1.9637,-1.8224,-1.7261,-1.6592,-1.5615,-1.5296,-1.547,-1.59,-1.54,-1.435,-1.3653,-1.343,-1.3379,-1.2818,-1.2369,-1.241,-1.4526,-1.6116,-1.7289,-1.7769,-1.861,-1.9553,-2.0526,-2.1249,-2.1842,-2.2184,-2.2867,-2.3256,-2.2703,-2.2539,-2.2031,-2.0337,-2.0021,-1.933,-1.6956,-1.8185,-1.953,-1.953,-1.7922,-1.7345,-1.9346,-1.9701,-1.9812,0.0,0.0,0.0,0.0,0.0,0.0,-1.5081,0.0,-1.6748,-1.6733,-1.7568,-1.8008,-1.8008,-1.8008,-1.8008,-1.8008,-1.8008,-1.8008,-1.8086,-1.9442,-1.9373,-1.8174,-2.0267,-2.0961,-2.0566,-2.0566,-2.0566,-2.0566,-2.0566,-1.8052,-1.4195,-1.5304,-1.5097,-1.4175,-1.4175,-1.5048,-1.6579,0.0,0.0,0.0,0.0,0.0,0.0,0.0,0.0,0.0,0.0,0.0,0.0,0.0,0.0,0.0,0.0,0.0,0.0,-1.0269,-1.0165,-0.9719,-0.8857,-0.9642,-1.0094,-1.0094,-1.0992,-1.0968,-0.9949,-1.1184,-1.2087,-1.2702,-1.3699,-1.4569,-1.532,-1.6744,-1.8403,-1.9944,-1.6752,-1.3702,-1.117,-1.3219,-1.4207,-1.4222,-1.2195,-1.2359,-1.3653,-1.3479,-1.3743,-1.4114,-1.3428,-1.4094,-1.5526,-1.729,-1.8079,-1.8487,-1.9159,-1.9712,-2.0368,-2.1589,-2.2072,-2.2163,-2.1903,-2.1365,-2.0896,-2.0699,-2.0185,-1.9735,-1.9834,-1.9812,-1.9127,-1.6888,-1.6951,-1.7312,-1.7312,-1.8234,0.0,-1.8616,-2.0013,0.0,-2.1054,0.0,-2.0809,-1.9099,-1.8464,0.0,0.0,-1.6597,-1.7012,-1.7646,-1.7891,-1.8008,-1.8008,-1.8008,-1.8008,-1.8008,-1.8008,-1.8337,-1.8988,-1.9771,-2.0038,-1.9908,-1.9173,-1.9528,-2.0566,-2.0566,-2.0566,-2.0566,-2.0566,-1.8052,-1.4115,-1.4416,-1.4883,-1.5384,-1.5384,-1.7827,-2.1346,0.0,0.0,0.0,0.0,0.0,0.0,0.0,0.0,0.0,0.0,0.0,0.0,0.0,0.0,0.0,0.0,0.0,0.0,0.0,-1.0171,-1.0094,-1.0094,-1.0094,-1.0094,-1.0094,-1.0044,-0.9993,-0.9943,-1.0376,-1.0745,-1.105,-1.136,-1.1817,-1.238,-1.2956,-1.4116,-1.5475,-1.2785,-1.0586,0.0,0.0,-1.1476,-1.1233,-0.9879,-1.0209,-1.1601,-1.2922,-1.3888,-1.4676,-1.5475,-1.608,-1.6784,-1.8871,-1.9167,-1.8872,-1.9286,-1.9902,-2.0752,-2.2259,-2.2474,-2.2318,-2.2421,-2.1732,-2.0885,-2.0216,-1.9673,-1.94,-1.9707,-1.9358,-1.8496,-1.6795,-1.6522,-1.6595,-1.6909,0.0,0.0,-1.932,-2.0168,-2.0991,0.0,-2.1788,0.0,-2.0135,-1.9613,-1.9065,0.0,-1.7805,-1.7695,-1.7988,-1.8008,-1.8184,-1.8564,-1.8936,-1.9363,-1.9839,-1.9431,-1.9703,-2.0573,-2.1051,-2.1096,-2.0673,-2.0224,-2.0088,-2.0215,0.0,-2.0566,-2.0566,-2.0566,-1.9396,-1.7287,-1.5014,-1.4803,-1.6103,-1.8211,-2.0764,-2.3135,0.0,0.0,0.0,0.0,0.0,0.0,0.0,0.0,0.0,0.0,-1.0078,-1.0094,0.0,0.0,0.0,0.0,0.0,0.0,0.0,0.0,-1.0082,-1.0052,-1.0078,-1.0086,-1.0055,-0.9965,-0.9935,-0.9952,-0.9586,-0.9359,-0.9269,-0.9106,-0.9024,-0.9012,-0.8937,-0.9125,-0.9385,-0.8335,-0.828,-0.8891,-0.8891,-0.8547,-0.8094,0.0,-0.8891,-0.9298,-1.2312,-1.3859,-1.4856,-1.7504,-1.766,-1.7158,-1.9553,-1.9685,-1.8915,-1.8915,-1.9612,-2.0782,-2.259,-2.2742,-2.2405,-2.2837,-2.2476,-2.1667,-2.0175,-1.9732,-1.9573,-1.9313,-1.8535,-1.7585,-1.668,-1.6522,-1.671,-1.7353,0.0,-1.83,-2.0276,-2.0169,-2.0426,-2.175,-2.2602,-2.2504,-2.1091,-2.043,-2.0006,-1.9713,-1.9143,-1.8623,-1.8203,-1.8223,-1.8744,-1.9853,-2.0502,-2.126,-2.2195,-2.1528,-2.155,-2.24,-2.2865,-2.2405,-2.1188,-2.2172,-2.1616,-1.9873,-2.0352,0.0,-2.0674,-2.0664,-2.1064,-2.1303,-1.6865,-1.5817,-1.7296,-2.1489,-2.3135,-2.3135,0.0,0.0,0.0,0.0,0.0,0.0,0.0,0.0,0.0,0.0,-0.9952,-1.0094,0.0,0.0,0.0,0.0,0.0,0.0,0.0,0.0,0.0,-0.9777,-0.9991,-0.9991,-0.9776,-0.9906,-0.9906,-0.9747,-0.9512,-0.9287,-0.9052,-0.8852,-0.8679,-0.8522,-0.8502,-0.8402,-0.8198,-0.7998,-0.828,-0.8891,-0.8891,-0.8835,-0.8738,-0.8858,0.0,0.0,-1.2312,-1.3497,-1.3878,-1.5701,-1.7121,-1.8283,-1.9441,-1.9703,-1.9541,-1.9541,-1.9666,-2.0327,-2.2498,-2.2997,-2.254,-2.0832,-2.0335,-1.9949,-1.8798,-1.7811,-1.7111,-1.7073,-1.6909,-1.671,-1.6522,-1.6522,-1.6552,-1.668,-1.7213,-1.7861,-1.8583,-1.975,-2.0778,0.0,-2.2498,-2.2457,-2.0848,-2.0815,0.0,0.0,0.0,-1.9512,-1.9092,-1.9297,-2.0417,-2.2736,-2.2215,-2.2018,-2.2195,-2.2811,-2.3212,-2.335,-2.3859,-2.3686,-2.296,-2.3239,-2.2285,-2.043,-2.0518,0.0,-2.126,-2.1162,-2.0996,-2.085,-2.0583,-2.1031,-2.1952,-2.2775,-2.3135,-2.3135,0.0,0.0,0.0,0.0,0.0,0.0,-0.9701,-0.9442,-0.9385,-0.9657,-0.9818,-0.9899,-0.9899,-1.0025,-1.0123,0.0,0.0,0.0,0.0,0.0,0.0,-0.9721,-0.9831,-0.9868,-0.98,-0.9869,-0.9825,-0.9635,0.0,-0.9099,-0.8883,-0.8591,-0.8335,-0.8137,-0.8137,-0.8243,-0.8422,-0.8422,-0.8607,-0.8925,-0.9199,-0.9321,-0.9293,-0.9011,0.0,0.0,-1.0143,-1.158,-1.3102,-1.3872,-1.5874,-1.8238,-1.9331,-1.969,-1.9959,-2.1321,-2.2697,-2.371,-2.3205,-2.3078,-2.2874,-2.1807,-2.0238,-1.8326,-1.5978,-1.598,-1.6522,-1.6522,-1.6522,-1.6522,-1.6522,-1.6522,-1.6522,-1.6522,-1.681,-1.7413,-1.848,-1.9547,-2.0639,-2.1782,-2.2636,-2.2935,0.0,0.0,0.0,0.0,0.0,-2.0039,-2.0409,-2.1188,-2.2692,-2.4981,-2.3991,-2.3746,-2.445,-2.4893,-2.5127,-2.5127,-2.4785,-2.4785,-2.4933,-2.293,-2.1451,-2.0566,-2.0566,0.0,-2.1006,-2.1406,-2.1445,-2.125,-2.1211,-2.1992,-2.3135,-2.3135,-2.3135,-2.3135,0.0,0.0,0.0,0.0,0.0,0.0,-1.0308,-0.9668,-0.9348,-0.9777,-0.9824,-0.9824,-0.9824,-1.0025,-1.0194,0.0,0.0,0.0,0.0,0.0,0.0,0.0,-0.9789,-0.9823,-0.9881,0.0,0.0,-0.951,-0.9148,0.0,0.0,0.0,0.0,0.0,-0.7899,-0.8267,-0.8891,-0.8891,-0.8891,0.0,0.0,-0.9698,-0.9625,0.0,0.0,0.0,0.0,-1.0154,-1.203,-1.203,-1.381,-1.6293,-1.7821,-1.8963,-2.0198,-2.2832,-2.4722,-2.5488,-2.3612,-2.3078,-2.2965,-2.2477,-1.9731,-1.6396,-1.3872,-1.4709,-1.5964,-1.5964,-1.6151,-1.6293,-1.6293,-1.6497,-1.668,-1.668,-1.668,-1.7188,-1.8659,-1.9371,-2.0338,0.0,-2.2661,0.0,-2.3679,0.0,0.0,0.0,0.0,0.0,-2.1502,-2.3021,-2.4552,-2.6094,-2.5358,-2.5429,-2.6465,-2.6533,-2.6533,-2.6465,-2.5844,-2.5844,-2.6383,-2.3505,-2.1849,-2.1113,-2.1113,0.0,0.0,-2.1523,-2.1992,-2.209,-2.1387,-2.1943,-2.3135,-2.3135,-2.3135,-2.3135,0.0,0.0,0.0,0.0,0.0,0.0,-1.0304,-1.0224,-1.0189,-1.0229,-1.0238,-1.0238,-1.0238,-1.026,-1.0293,0.0,0.0,0.0,0.0,0.0,0.0,0.0,0.0,0.0,0.0,0.0,0.0,-0.9233,-0.8957,0.0,0.0,0.0,0.0,0.0,0.0,-0.8267,-0.8891,-0.8891,0.0,0.0,0.0,0.0,0.0,0.0,0.0,0.0,0.0,-1.0892,-1.0147,-1.0147,-1.0367,-1.0985,-1.3141,-1.6515,-2.0198,-2.2832,-2.2147,-2.0898,-2.2631,-2.3078,-2.2589,-2.0614,-1.6711,-1.358,-1.4362,-1.4422,-1.4329,-1.4329,-1.505,-1.5676,-1.5676,-1.6544,-1.7229,-1.7229,-1.7229,-1.7479,-1.8144,-1.9159,-2.0049,-2.074,0.0,0.0,-2.2807,0.0,0.0,0.0,0.0,0.0,-2.1964,-2.3795,-2.4933,-2.5146,-2.5873,-2.6383,-2.6533,-2.6533,-2.6533,-2.6533,-2.6897,-2.6872,-2.649,-2.711,-2.5734,-2.29,-2.29,0.0,0.0,-2.1523,-2.2334,-2.3018,-2.293,-2.2998,-2.3135,-2.3135,-2.3135,-2.3135,0.0,0.0,0.0,0.0,0.0,0.0,-1.0293,-0.6778,-0.5594,-0.9755,-1.0296,-1.0296,-1.0296,-0.832,-0.7855,-1.0001,-1.0122,0.0,0.0,0.0,0.0,0.0,0.0,0.0,0.0,0.0,-0.9332,-0.9323,-0.884,0.0,0.0,0.0,0.0,0.0,0.0,0.0,-0.9385,-0.9385,0.0,0.0,0.0,0.0,0.0,0.0,0.0,0.0,0.0,0.0,-0.9764,-0.8871,-0.917,-1.0468,-1.3728,-1.5951,-1.7882,-2.0468,-2.1641,-2.2235,-2.2904,-2.3078,-2.2226,-1.8719,-1.5986,-1.4247,-1.4329,-1.4202,-1.4171,-1.4413,-1.505,-1.5808,-1.6489,-1.7008,-1.7435,-1.7747,-1.7528,-1.7517,-1.812,-1.8591,-1.9285,-2.0529,-2.1543,0.0,0.0,0.0,0.0,0.0,0.0,0.0,-2.3818,-2.5146,-2.5873,-2.5873,-2.6314,-2.6533,-2.6533,-2.7374,-2.7803,-2.7803,-2.8347,-2.8252,-2.7444,-2.7218,-2.6432,-2.5207,-2.6508,0.0,0.0,-2.3628,-2.2832,-2.3387,-2.6047,-2.5473,-2.3135,-2.3135,-2.3135,-2.3135,0.0,0.0,0.0,0.0,0.0,-1.0293,-1.0293,-0.6172,-0.474,-0.9505,-0.8446,-0.7246,-0.7246,-0.578,-0.6207,-0.9677,-1.0057,0.0,0.0,0.0,0.0,0.0,0.0,0.0,0.0,-0.9508,-0.9287,-0.922,-0.8711,-0.8518,0.0,0.0,0.0,0.0,0.0,0.0,0.0,0.0,0.0,0.0,0.0,0.0,0.0,0.0,0.0,0.0,0.0,0.0,0.0,0.0,0.0,-1.0586,-1.4569,-1.5799,-1.607,-1.7403,-2.0009,-2.2454,-2.263,-2.1393,-1.949,-1.7084,-1.5324,-1.4135,-1.41,-1.3815,-1.3674,-1.4159,-1.4954,-1.5905,-1.6844,-1.745,-1.7907,-1.8302,-1.8016,-1.7929,-1.8371,-1.8537,-1.9035,0.0,0.0,0.0,0.0,0.0,0.0,0.0,0.0,0.0,-2.5441,-2.6094,-2.6533,-2.6533,-2.6533,-2.6589,-2.685,-2.8046,-2.8637,-2.8532,-2.9402,-2.9065,-2.7607,-2.7494,-2.7444,-2.7532,-2.9114,0.0,0.0,-2.4967,-2.3887,-2.5378,-2.8542,-2.7879,-2.4882,-2.3551,-2.3135,-2.3135,0.0,0.0,0.0,0.0,0.0,-1.0293,-1.0293,-1.0234,-1.0082,-0.9752,-0.4109,-0.0098,-0.0098,-0.2914,-0.612,-0.9412,-0.9955,0.0,0.0,0.0,0.0,0.0,0.0,0.0,-0.9893,-0.9887,-0.9536,-0.8812,-0.8547,-0.8245,-0.7914,-0.7899,-0.8256,-0.8913,0.0,0.0,0.0,0.0,-0.9394,0.0,0.0,0.0,-0.6616,0.0,0.0,0.0,0.0,0.0,0.0,0.0,0.0,0.0,0.0,-1.5799,-1.5463,-1.3775,-1.6347,-2.0011,-2.1363,-1.746,-1.3559,-1.5853,-1.4201,-1.2387,-1.37,-1.3155,-1.2477,-1.3036,-1.4429,-1.5781,-1.6321,-1.7773,-1.8893,-1.8893,-1.8878,-1.8878,-1.8893,-1.9418,-1.9605,0.0,0.0,0.0,0.0,0.0,0.0,0.0,0.0,0.0,-2.6452,-2.6452,-2.6533,-2.6533,-2.6533,-2.6905,-2.767,-2.8371,-2.8492,-2.8155,-2.9764,-2.9184,-2.6622,-2.875,-2.9767,0.0,0.0,0.0,0.0,-2.4967,-2.5714,-2.9714,-2.9792,-2.9792,-2.9209,-2.4713,-2.3135,-2.3135,0.0,0.0,0.0,0.0,0.0,0.0,-1.0044,-1.0293,-0.8551,-0.3712,-0.1286,-0.0842,-0.3037,-0.4189,-0.612,-0.9404,-0.9955,0.0,0.0,0.0,0.0,0.0,0.0,-1.0001,-0.9775,-0.9411,-0.9277,-0.9421,-0.8498,-0.8243,-0.8583,-0.8583,-0.8987,-0.9694,-0.9323,-0.9358,0.0,-0.9312,-0.8801,0.0,0.0,-0.6841,-0.653,0.0,0.0,0.0,0.0,0.0,0.0,0.0,0.0,0.0,0.0,0.0,0.0,-1.4587,-1.5105,-1.5995,-1.9397,-1.6797,-1.31,-1.3133,-1.2307,-1.1857,-1.315,-1.2657,-1.2349,-1.393,-1.4959,-1.6013,-1.733,-1.8288,-1.9006,-1.9406,-1.9442,-1.9332,-1.8968,0.0,0.0,0.0,0.0,0.0,0.0,0.0,0.0,0.0,0.0,0.0,-2.7284,-2.7284,-2.7095,-2.6521,-2.704,-2.7667,-2.8384,-2.9652,-3.0587,-3.111,-3.3054,-3.346,-3.2691,-3.3357,-3.229,0.0,0.0,0.0,0.0,-2.4967,-2.5714,-2.9792,-2.9792,-2.9792,-2.9624,-2.8211,-2.7706,-2.7706,0.0,0.0,0.0,0.0,0.0,0.0,-0.8664,-0.9389,-0.7417,-0.0862,-0.2266,-0.4154,-0.4838,-0.4915,-0.5742,-0.7784,-0.9177,0.0,0.0,0.0,0.0,0.0,-1.0094,-0.9768,-0.9039,-0.8693,-0.8681,-0.9019,-0.8526,-0.8485,-0.8902,-0.9099,-0.9367,-0.9629,-0.9136,-0.9078,0.0,-0.8779,-0.8088,-0.7329,-0.6411,-0.6034,-0.6034,0.0,0.0,0.0,0.0,0.0,0.0,0.0,0.0,0.0,0.0,0.0,0.0,0.0,-1.2815,-1.273,-1.6285,-1.4995,-1.2506,-1.1853,-1.1535,-1.1662,-1.2443,-1.2294,-1.2485,-1.4134,-1.5284,-1.6359,-1.7765,-1.8682,-1.9332,-1.9639,-1.969,-1.9566,-1.9244,0.0,0.0,0.0,0.0,0.0,0.0,0.0,0.0,0.0,0.0,0.0,-2.767,-2.7986,-2.7986,-2.7484,-2.8199,-2.8928,-2.9624,-3.111,-3.2478,-3.3695,-3.4961,-3.5504,-3.5439,-3.4002,-3.2087,0.0,0.0,0.0,0.0,-2.6789,-2.729,-2.9792,-2.9792,-2.9792,-2.9792,-2.9792,-2.9792,-3.0011,0.0,0.0,0.0,0.0,0.0,0.0,0.0,-0.7972,-0.6944,-0.1456,-0.6309,-0.9072,-0.5833,-0.5249,-0.5197,-0.544,-0.8062,0.0,0.0,0.0,0.0,-1.0023,-1.001,-0.9356,-0.7927,-0.7899,-0.7928,-0.797,-0.8595,-0.8891,-0.8913,-0.9403,-0.9376,-0.8891,-0.8891,-0.883,-0.8698,-0.7994,-0.7237,-0.6413,-0.548,-0.5185,0.0,0.0,0.0,0.0,0.0,0.0,0.0,0.0,0.0,0.0,0.0,0.0,0.0,0.0,0.0,0.0,0.0,-1.2377,-1.1782,-1.1768,-1.1735,-1.1739,-1.1778,-1.22,0.0,-1.3883,-1.5345,-1.6754,-1.772,-1.8861,-1.963,-1.9675,-1.969,-1.969,-1.969,-1.9764,0.0,0.0,0.0,0.0,0.0,0.0,0.0,0.0,0.0,0.0,-2.7802,-2.8552,-2.9073,-2.924,-2.9889,-3.0595,-3.1224,-3.255,-3.4095,-3.5692,-3.5552,-3.5529,-3.5359,-3.1621,-2.9859,0.0,0.0,0.0,0.0,-2.9792,-2.9792,-2.9869,-3.0075,-3.0011,-2.9792,-2.9792,-2.9934,-3.0722,0.0,0.0,0.0,0.0,0.0,0.0,0.0,0.0,0.0,0.0,-0.9297,-0.998,-0.9171,-0.6705,-0.6169,0.0,0.0,0.0,0.0,0.0,0.0,-0.9206,-0.9186,-0.8773,-0.7928,-0.7899,-0.8149,-0.8667,-0.8824,-0.8891,-0.8902,-0.9033,-0.9033,-0.8891,-0.8891,-0.824,-0.7071,-0.6141,-0.5635,-0.5423,-0.5204,-0.5905,0.0,0.0,0.0,0.0,-0.6242,-0.6937,0.0,0.0,0.0,0.0,0.0,0.0,0.0,0.0,-0.9008,-1.0018,-1.0546,0.0,-1.1572,-1.1339,-1.1662,-1.218,0.0,-1.2849,-1.3352,-1.4706,-1.563,-1.6532,-1.767,-1.8493,-1.9091,-1.96,-1.969,-1.969,-1.969,0.0,0.0,0.0,0.0,0.0,0.0,0.0,0.0,0.0,0.0,-2.7548,-2.8862,-2.9118,-3.0031,-3.1675,-3.2367,-3.2229,-3.1224,-3.3065,-3.4484,-3.5544,-3.5691,-3.5639,-3.5429,-3.2465,-3.061,0.0,0.0,0.0,-2.9792,-2.9792,-2.9792,-3.0075,-3.3003,-3.2362,-2.9792,-2.9792,-3.1649,-3.4288,0.0,0.0,0.0,0.0,0.0,0.0,0.0,0.0,0.0,0.0,-1.0293,-1.0293,-1.0293,-0.8613,-0.808,0.0,0.0,0.0,-0.9691,-0.9599,-0.9355,-0.8925,-0.8891,-0.8583,-0.7914,-0.7055,-0.7372,-0.8891,-0.8891,-0.8891,-0.8891,-0.8891,-0.8891,-0.8841,-0.7671,-0.6694,-0.5852,-0.4815,-0.4366,-0.4366,-0.4366,0.0,0.0,0.0,0.0,0.0,-0.5723,-0.5907,0.0,-0.729,-0.8679,-0.979,0.0,0.0,0.0,0.0,-0.8512,-0.941,-0.9542,-1.0581,-1.169,-1.1992,-1.2199,-1.2461,-1.297,-1.3289,-1.3795,-1.498,-1.5663,-1.6535,-1.7881,-1.8308,-1.8791,-1.9797,-1.9481,-1.9176,0.0,0.0,0.0,0.0,0.0,0.0,0.0,0.0,0.0,0.0,0.0,-2.7769,-2.8771,-3.0104,-3.1343,-3.2571,-3.3224,-3.3135,-3.2288,-3.3664,-3.4789,-3.5616,-3.5253,-3.5065,-3.4927,-3.2291,-3.0047,0.0,0.0,0.0,-2.8335,-2.9365,-3.0797,-3.2648,-3.4721,-3.4221,-3.2434,-3.2434,-3.3713,-3.5668,0.0,0.0,0.0,0.0,0.0,0.0,0.0,0.0,0.0,0.0,0.0,0.0,0.0,0.0,0.0,0.0,0.0,-0.9119,-0.9675,-0.9189,-0.8858,-0.8749,-0.8738,-0.8351,-0.7487,-0.6194,-0.6597,-0.8738,-0.8846,-0.8891,-0.8891,-0.8801,-0.8513,-0.7976,-0.5826,-0.4853,-0.4785,-0.389,-0.3506,-0.3506,-0.3506,0.0,0.0,0.0,0.0,0.0,0.0,0.0,0.0,-0.681,-0.8132,-0.9043,-0.8269,0.0,0.0,0.0,0.0,0.0,-0.9383,-1.0624,-1.203,-1.2855,-1.2877,-1.2859,-1.331,-1.3749,-1.431,-1.5043,-1.5659,-1.6478,-1.7869,-1.8146,-1.853,-1.9857,0.0,0.0,0.0,0.0,0.0,0.0,0.0,0.0,0.0,0.0,0.0,0.0,0.0,-2.827,-2.839,-3.0863,-3.2377,-3.2594,-3.3137,-3.3395,-3.3341,-3.4026,-3.4698,-3.5374,-3.4321,-3.3983,-3.4219,-3.1797,-2.9188,-2.6565,0.0,0.0,-2.6672,-2.9048,-3.1956,-3.4936,-3.5355,-3.525,-3.4951,-3.5355,-3.5504,-3.5973,0.0,0.0,0.0,0.0,0.0,0.0,0.0,0.0,0.0,0.0,0.0,0.0,0.0,0.0,0.0,0.0,-0.8891,-0.9119,-0.9675,-0.9189,-0.8644,-0.8082,-0.8054,-0.7262,-0.5561,-0.6802,-0.7665,-0.8054,-0.862,-0.8891,-0.888,-0.8319,-0.6719,-0.4316,-0.3922,-0.3751,-0.3731,-0.3569,-0.3506,-0.3506,-0.3506,0.0,0.0,0.0,0.0,0.0,0.0,0.0,0.0,-0.5419,-0.5642,-0.6276,-0.8762,0.0,0.0,0.0,0.0,0.0,-1.0611,-1.177,-1.2721,-1.2413,-1.3111,-1.4006,-1.4645,-1.4876,-1.5074,-1.558,-1.5786,-1.6084,-1.6818,-1.7404,-1.802,0.0,0.0,0.0,0.0,0.0,0.0,0.0,0.0,0.0,0.0,0.0,0.0,0.0,0.0,-2.8598,-2.937,-3.0297,-3.1321,-3.2466,-3.2546,-3.2569,-3.2574,-3.3363,-3.3798,-3.3902,-3.2604,-3.2588,-3.365,-3.2107,-2.9561,-2.6327,0.0,-2.372,-2.6739,-2.9912,-3.1558,-3.2362,-3.4622,-3.4128,-3.2422,-3.4666,-3.5504,-3.5973,0.0,0.0,0.0,0.0,0.0,0.0,0.0,0.0,0.0,0.0,0.0,0.0,0.0,0.0,0.0,0.0,-0.8691,-0.9011,-0.9247,-0.8693,-0.7764,-0.644,-0.6384,-0.5994,-0.5127,-0.6945,-0.8082,-0.8434,-0.8738,-0.8715,-0.8316,-0.6415,-0.4466,-0.2589,-0.2589,-0.2912,-0.3506,-0.3506,-0.3506,-0.3506,0.0,0.0,0.0,0.0,0.0,0.0,0.0,0.0,0.0,0.0,-0.573,-0.691,-0.9176,0.0,0.0,0.0,0.0,0.0,-1.1227,-1.2027,-1.2694,-1.3219,-1.3822,-1.4438,-1.4968,-1.5256,-1.5728,-1.6953,-1.7062,-1.7267,-1.8282,0.0,-1.8515,0.0,0.0,0.0,0.0,0.0,0.0,0.0,0.0,0.0,0.0,0.0,0.0,0.0,0.0,0.0,-2.8936,-3.0293,-3.1451,-3.2432,-3.2784,-3.2944,-3.2944,-3.2924,-3.2805,-3.2446,-3.1455,-3.156,-3.2507,-3.1835,-3.0644,-2.9115,0.0,-2.7485,-2.9317,-3.0837,-3.1482,-3.1601,-3.2886,-3.2617,-3.1795,-3.4517,-3.5504,-3.5668,0.0,0.0,0.0,0.0,0.0,0.0,0.0,0.0,0.0,0.0,0.0,0.0,0.0,0.0,0.0,0.0,-0.8723,-0.8835,-0.8667,-0.7765,-0.6235,-0.4007,-0.3915,-0.4279,-0.5088,-0.6945,-0.8229,-0.8891,-0.8891,-0.7918,-0.6,-0.4032,-0.2498,-0.1383,-0.167,-0.2433,-0.3506,-0.3506,-0.3506,-0.3506,0.0,0.0,0.0,0.0,0.0,0.0,0.0,0.0,0.0,0.0,0.0,0.0,0.0,0.0,0.0,-0.979,-0.9893,-1.0161,-1.1521,-1.2239,-1.2858,-1.4016,-1.4471,-1.4794,-1.5352,-1.5669,-1.6337,-1.8053,-1.8026,-1.8086,-1.9284,-1.9115,0.0,0.0,0.0,0.0,0.0,0.0,0.0,0.0,0.0,0.0,0.0,0.0,0.0,0.0,0.0,0.0,-2.8619,-3.0415,-3.167,-3.213,-3.2612,-3.2882,-3.2882,-3.2383,-3.1925,-3.147,-3.0657,-3.051,-3.0949,-3.0688,-3.0941,-3.1482,-3.1482,-3.1482,-3.1482,-3.1482,-3.1482,-3.1482,-3.1482,-3.1482,-3.1795,-3.4517,-3.5504,-3.5504,0.0,0.0,0.0,0.0,0.0,0.0,0.0,0.0,0.0,0.0,0.0,0.0,0.0,0.0,-1.0126,-1.0126,-0.9371,-0.8632,-0.8012,-0.6286,-0.3824,-0.051,-0.0356,-0.1858,-0.502,-0.6945,-0.8229,-0.8891,-0.8891,-0.6048,-0.0594,-0.1502,-0.1292,-0.0179,-0.1292,-0.2433,-0.3506,-0.3506,-0.3506,-0.3506,-0.3506,0.0,0.0,0.0,0.0,0.0,0.0,0.0,0.0,0.0,0.0,0.0,0.0,0.0,-0.8138,-0.949,-0.9868,-1.0097,-1.1527,-1.2766,-1.3775,-1.4199,-1.4671,-1.5323,-1.6335,-1.6606,-1.6954,-1.8161,-1.7731,-1.7334,0.0,-1.8238,0.0,0.0,0.0,0.0,0.0,0.0,0.0,0.0,0.0,0.0,0.0,0.0,0.0,0.0,0.0,0.0,-2.9419,-3.0633,-3.1314,-3.1358,-3.1357,-3.136,-3.136,-3.1303,-3.1347,-3.147,-3.0172,-2.9383,-2.9094,-2.824,-2.9205,-3.1482,-3.1482,-3.1482,-3.1482,-3.1482,-3.1482,-3.1482,-3.1482,-3.1482,-3.1795,-3.4517,-3.5504,-3.5504,0.0,0.0,0.0,0.0,0.0,0.0,0.0,0.0,0.0,0.0,0.0,0.0,0.0,0.0,-1.0293,-1.0293,-0.9057,-0.6764,-0.3219,-0.033,0.1822,0.3107,0.2523,0.0213,-0.4019,-0.5463,-0.6844,-0.8267,-0.4975,-0.2202,-0.001,-0.046,-0.0447,-0.0045,-0.1269,-0.2433,-0.3464,-0.274,-0.2437,-0.2502,-0.3217,-0.3245,0.0,0.0,0.0,0.0,0.0,0.0,0.0,0.0,-0.9215,-0.9905,-0.9905,-0.9516,-0.9158,-0.9689,-1.0071,-1.0614,-1.2033,-1.3421,-1.4597,-1.5065,-1.6025,-1.6936,-1.7358,-1.7963,-1.8799,-2.0118,-2.0351,-2.028,0.0,0.0,0.0,0.0,0.0,0.0,0.0,0.0,0.0,0.0,0.0,0.0,0.0,0.0,0.0,0.0,0.0,0.0,-2.9299,-2.993,-3.0499,-3.0921,-3.0426,-3.0585,-3.1548,-3.087,-3.059,-3.0733,-2.9888,-2.8978,-2.8053,-2.7775,-2.8113,-2.9071,-2.9071,-3.0975,-3.3937,-3.2201,-3.2501,-3.3887,-3.2145,-3.2542,-3.4128,-3.513,-3.5504,-3.5504,0.0,0.0,0.0,0.0,0.0,0.0,0.0,0.0,0.0,0.0,0.0,0.0,0.0,-0.4219,-0.7042,0.0,-0.4761,-0.1784,0.1854,0.4263,0.5574,0.5574,0.3523,0.0537,-0.3415,-0.5125,-0.5795,-0.5411,-0.1769,-0.0196,-0.0558,-0.0176,0.0,-0.0045,-0.1269,-0.2241,-0.2912,-0.2128,-0.1803,-0.1869,-0.2654,-0.2955,0.0,0.0,0.0,0.0,0.0,0.0,0.0,0.0,-1.0494,-1.0494,-1.0494,-1.021,-0.9932,-1.017,-1.0416,-1.09,-1.2064,-1.3721,-1.5217,-1.5583,-1.7027,-1.84,-1.863,-1.9203,-2.0119,-2.1756,-2.2215,-2.202,-2.1055,0.0,0.0,0.0,0.0,0.0,0.0,0.0,0.0,0.0,0.0,0.0,0.0,0.0,0.0,0.0,0.0,0.0,0.0,-2.9516,-3.0022,-3.0488,-2.9983,-3.0193,-3.1255,-3.0364,-2.9976,-3.0028,-2.9453,-2.8704,-2.7894,-2.7894,-2.776,-2.7625,-2.7978,-3.0478,-3.4155,-3.3214,-3.3375,-3.4137,-3.2241,-3.3155,-3.5504,-3.5504,-3.5504,-3.5504,0.0,0.0,0.0,0.0,0.0,0.0,0.0,0.0,0.0027,0.0,0.0022,0.0,0.0,0.0,0.0,0.0,0.4106,0.6633,0.6621,0.6633,0.6616,0.6599,0.2353,-0.1108,-0.3457,-0.6344,-0.5261,0.0,0.0,-0.0611,-0.1764,-0.0558,0.0,-0.0045,-0.1247,-0.1803,-0.1825,-0.1781,-0.1781,-0.1781,-0.1781,-0.1781,-0.1913,0.0,0.0,0.0,0.0,0.0,0.0,0.0,-1.1805,-1.1805,-1.1805,-1.0949,-1.011,-1.0968,-1.0978,-1.0856,-1.1541,-1.3626,-1.5611,-1.5628,-1.748,-1.9502,-2.0235,-2.0217,-2.0621,-2.2808,-2.2745,-2.1797,-2.005,-1.9726,0.0,0.0,0.0,0.0,0.0,0.0,0.0,0.0,0.0,0.0,0.0,0.0,0.0,0.0,0.0,0.0,0.0,-2.9535,-3.0106,-3.0106,-3.0088,-3.0088,-3.0106,-2.9704,-2.9488,-2.9488,-2.8898,-2.8584,-2.8511,-2.8511,-2.8189,-2.7675,-2.8857,-3.0081,-3.1427,-3.4327,-3.3905,-3.1482,-3.1482,-3.3155,-3.5504,-3.5439,-3.5439,-3.5504,0.0,0.0,0.0,0.0,0.0,0.0,0.0,0.0,0.1868,0.0215,0.21,0.0,0.0,0.0,0.0,0.0,0.0,0.838,0.8763,0.844,0.7736,0.6638,0.2353,-0.1462,-0.4567,-0.3122,-0.1574,0.0,0.0,-0.0182,-0.0526,-0.0175,0.0,-0.0022,-0.0381,-0.146,-0.2891,-0.1242,-0.0537,-0.0537,-0.0537,-0.0537,-0.0846,0.0,0.0,0.0,0.0,0.0,0.0,0.0,0.0,0.0,-1.1805,-1.2203,-1.2549,-1.211,-1.2037,-1.2336,-1.3378,-1.4868,-1.632,-1.7216,-1.881,-2.0293,-2.0958,-2.1369,-2.2538,-2.582,-2.5073,-2.3375,-2.1812,0.0,0.0,0.0,0.0,0.0,0.0,0.0,0.0,0.0,0.0,0.0,0.0,0.0,0.0,0.0,0.0,0.0,0.0,-2.9426,-2.9751,-2.9743,-2.9205,-2.9446,-3.0592,-2.9619,-2.9278,-2.9488,-2.9317,-2.8941,-2.8376,-2.8591,-2.8304,-2.7625,-2.7993,-2.93,-3.1122,-3.0316,-3.0575,-3.1482,-3.1482,-3.3155,-3.5148,-3.2506,-3.3213,-3.5235,0.0,0.0,0.0,0.0,0.0,0.0,0.413,0.2978,0.2083,0.2032,0.3809,0.4598,0.0,0.0,0.0,0.9935,0.9637,0.9403,0.9838,0.9268,0.8214,0.6672,0.3666,-0.0526,-0.6007,-0.3491,-0.1413,0.0,0.0,0.0,0.0,0.0,0.0,0.0,0.0,-0.0778,-0.2025,-0.0601,0.0269,0.0715,0.0715,0.0425,-0.0297,0.0,0.0,0.0,0.0,0.0,0.0,0.0,0.0,0.0,-1.205,-1.266,-1.319,-1.2607,-1.2571,-1.3004,-1.4168,-1.5502,-1.6884,-1.8288,-1.9684,-2.0863,-2.1596,-2.2053,0.0,0.0,-2.5993,-2.4315,-2.2829,0.0,0.0,0.0,0.0,0.0,0.0,0.0,0.0,0.0,0.0,0.0,0.0,0.0,0.0,0.0,0.0,0.0,0.0,-2.8827,-2.8887,-2.8876,-2.8421,-2.8633,-2.9588,-2.9044,-2.8841,-2.9062,-2.8924,-2.8527,-2.7988,-2.8335,-2.855,-2.8575,-2.8888,-2.9876,-3.1099,-2.9707,-3.0088,-3.1482,-3.1482,-3.2512,-3.345,-2.9834,-3.0787,-3.3694,0.0,0.0,0.015,0.063,0.0,0.0,0.5438,0.2757,0.1837,0.4944,0.5356,0.6012,0.0,0.0,0.0,1.0293,0.9948,0.9832,1.0082,0.9421,0.8343,0.6868,0.5876,0.1677,-0.612,-0.5339,-0.3224,0.0,0.0,0.0,0.0,0.0227,0.0195,0.0,0.0,0.0,0.0,0.0109,0.0847,0.196,0.2065,0.1392,0.0179,-0.1134,0.0,0.0,0.0,0.0,0.0,0.0,0.0,0.0,-1.2514,-1.2805,-1.294,-1.2883,-1.295,-1.3339,-1.4538,-1.5908,-1.7401,-1.911,-2.0403,0.0,-2.2237,-2.2426,-2.3153,-2.5824,0.0,-2.4753,-2.3226,0.0,0.0,0.0,0.0,0.0,0.0,0.0,0.0,0.0,0.0,0.0,0.0,0.0,0.0,0.0,0.0,0.0,0.0,-2.7931,-2.7699,-2.7677,-2.7677,-2.7695,-2.7732,-2.8149,-2.8337,-2.8312,-2.8057,-2.7735,-2.7502,-2.7923,-2.886,-3.0149,-3.0878,-3.119,-3.1217,-3.142,-3.1456,-3.1482,-3.1482,-3.1278,-3.0703,-2.7986,-2.8876,-3.1482,0.0,0.0,0.1304,0.5471,0.0,0.0,0.8002,0.7006,0.6459,0.7209,0.7289,0.7441,0.7856,0.9337,0.0,1.0293,1.0127,1.0044,1.009,0.9944,0.9419,0.8441,0.7592,0.628,0.4416,0.0765,-0.0767,0.0,0.0,0.0,0.0031,0.1879,0.1772,0.0,0.0,0.0,0.0061,0.1003,0.208,0.3225,0.4168,0.3832,0.2526,0.0421,-0.2642,0.0,0.0,0.0,0.0,0.0,0.0,0.0,-1.3174,-1.4315,-1.547,-1.4885,-1.4989,-1.5646,-1.7221,-1.7705,-1.8337,-2.0745,-2.2356,-2.3321,-2.3265,-2.3325,-2.3466,-2.3685,-2.4425,0.0,0.0,0.0,0.0,0.0,0.0,0.0,0.0,0.0,0.0,0.0,0.0,0.0,0.0,0.0,0.0,0.0,0.0,0.0,-2.7241,-2.7135,-2.7021,-2.6851,-2.6869,-2.6958,-2.7175,-2.7679,-2.7866,-2.7773,-2.7844,-2.7689,-2.7371,-2.8013,-2.9289,-3.0958,-3.1112,-3.119,-3.1202,-3.124,-3.1355,-3.1482,-3.1482,-2.9889,-2.7802,-2.969,-3.0896,-3.1482,0.0,0.0,0.0,0.0,0.0,0.0,0.0,0.0,0.6985,0.4452,0.4122,0.5202,0.8071,0.9538,0.0,0.0,1.0176,1.0786,1.2421,1.2331,1.1865,1.1083,0.9585,0.8761,0.8761,0.6104,0.4742,0.4742,0.6504,0.6105,0.3721,0.4943,0.3539,0.0,0.0,0.1372,0.3722,0.4349,0.4955,0.5575,0.6199,0.6079,0.5115,0.1415,-0.2695,-0.6565,-0.7392,0.0,0.0,0.0,0.0,0.0,0.0,0.0,-1.7525,-1.6203,-1.6404,-1.7132,-1.7454,-1.7982,-1.8917,-2.091,0.0,-2.3312,-2.3229,-2.3547,-2.3771,-2.3319,0.0,0.0,0.0,0.0,0.0,0.0,0.0,0.0,0.0,0.0,0.0,0.0,0.0,0.0,0.0,0.0,0.0,0.0,0.0,-2.7399,-2.7062,-2.6669,-2.641,-2.6321,-2.6303,-2.6321,-2.637,-2.7424,-2.7856,-2.7716,-2.8008,-2.788,-2.743,-2.8302,-2.9327,-3.0497,-3.0987,-3.119,-3.1112,-2.9962,-2.956,-2.9639,-2.9639,-2.932,-2.9129,-3.0837,-3.1482,-3.1482,0.0,0.0,0.0,0.0,0.0,0.0,0.0,0.0,0.0,0.057,0.0,0.2341,0.8478,0.9836,1.0293,0.0,0.0,0.0,1.4978,1.4849,1.4308,1.3622,1.161,1.032,0.9905,1.0519,1.0842,1.0842,1.3911,1.3209,0.9022,0.9022,0.6749,0.2656,0.2423,0.4461,0.808,0.808,0.808,0.808,0.808,0.7918,0.713,0.196,-0.2659,-0.6503,-0.7393,-0.9589,-1.2215,-1.3104,0.0,0.0,0.0,0.0,-1.9201,-1.7521,-1.7731,-1.8298,-1.7369,-1.8216,-1.969,-2.091,-2.2145,0.0,-2.2876,-2.3477,-2.3958,-2.354,0.0,0.0,0.0,0.0,0.0,0.0,0.0,0.0,0.0,0.0,0.0,0.0,0.0,0.0,0.0,0.0,0.0,0.0,0.0,-2.704,-2.6836,-2.6197,-2.5823,-2.5778,-2.5778,-2.5734,-2.5589,-2.6991,-2.7618,-2.7506,-2.7961,-2.7959,-2.7522,-2.8545,-2.9066,-2.9282,-3.0598,-3.0958,-3.046,-2.8888,-2.7993,-2.7625,-2.7625,-2.8906,-3.0851,-3.0851,-3.0851,-3.0851,0.0,0.0,0.0,0.0,0.0,0.0,0.0,0.0,0.0,0.0,0.0,0.2572,0.9373,1.0211,1.0245,1.0148,1.011,1.1555,1.4978,0.0,0.0,1.4375,1.344,1.1974,0.9944,1.3034,1.4662,1.4662,1.5167,1.5046,1.4361,1.4361,1.3995,1.3299,1.2134,1.0849,0.9595,0.9595,0.9595,0.9595,0.9595,0.8844,0.713,0.196,-0.0434,-0.1607,-0.6081,-1.0059,-1.3208,-1.3346,-1.4239,0.0,0.0,0.0,-2.0314,-1.9703,-1.9619,-1.9726,-1.9571,-2.0402,-2.1523,0.0,-2.3752,-2.453,0.0,0.0,-2.372,0.0,0.0,0.0,0.0,0.0,0.0,0.0,0.0,0.0,0.0,0.0,0.0,0.0,0.0,0.0,0.0,0.0,0.0,0.0,-2.6696,-2.6373,-2.5433,-2.5225,-2.5069,-2.4955,-2.4959,-2.5021,-2.5181,-2.5731,-2.6116,-2.6338,-2.7023,-2.7424,-2.7535,-2.8543,-2.8302,-2.7249,-3.0006,-3.0005,-2.8207,-2.9962,-2.948,-2.7625,-2.7625,-2.7784,-2.8098,-2.8098,-2.8098,-2.8098,0.0,0.0,0.0,0.0,0.0,0.0,0.0,0.0,0.0,0.0,0.0,0.1152,0.4199,0.7988,1.1053,1.2909,1.2993,1.3594,1.5093,1.5272,1.5216,1.4999,1.4692,1.4042,1.3,1.3249,1.3673,1.4289,1.4684,1.5031,1.5297,1.5297,1.5158,1.4865,1.4285,1.3634,1.2989,1.2989,1.2549,1.1851,1.1851,1.0666,0.8678,0.6413,0.3246,-0.0876,-0.7592,-1.1459,-1.3506,-1.427,-1.4904,-1.5742,-1.7695,0.0,0.0,0.0,-1.9748,-1.9945,-2.0152,-2.0644,-2.1132,0.0,-2.2484,-2.3606,-2.3752,0.0,0.0,0.0,0.0,0.0,0.0,0.0,0.0,0.0,0.0,0.0,0.0,0.0,0.0,0.0,0.0,0.0,0.0,0.0,0.0,0.0,-2.6238,-2.5812,-2.5351,-2.5252,-2.5217,-2.5187,-2.5168,-2.5122,-2.5111,-2.5636,-2.6233,-2.6836,-2.7959,-2.8574,-2.8732,-2.8923,-2.8159,-2.6776,-2.84,-2.896,-2.8796,-2.9077,-2.9329,-2.9464,-2.8125,-2.7625,-2.7625,-2.7625,-2.7625,-2.7625,0.0,0.0,0.0,0.0,0.0,0.0,0.0,0.0,0.0,0.0,0.0,0.2828,0.3764,0.0,0.0,0.0,1.5302,1.5259,1.5259,1.5309,1.5356,1.5356,1.5234,1.5077,1.4891,1.3129,1.2475,1.298,1.4011,1.4747,1.5209,1.5087,1.514,1.5325,1.5325,1.516,1.4895,1.5099,1.4681,1.3925,1.3925,1.2856,1.1301,1.1301,0.6587,-0.1245,-1.0663,-1.4559,-1.5392,-1.6375,-1.6403,-1.6326,-1.8179,-1.9608,0.0,0.0,0.0,-1.9798,-1.9782,-1.9946,-1.9837,-1.8715,-1.9154,-2.0315,0.0,0.0,0.0,0.0,0.0,0.0,0.0,0.0,0.0,0.0,0.0,0.0,0.0,0.0,0.0,0.0,0.0,0.0,0.0,0.0,0.0,0.0,-2.5874,-2.5498,-2.549,-2.5456,-2.5455,-2.5505,-2.5446,-2.5346,-2.5202,-2.5627,-2.6242,-2.7056,-2.8334,-2.9211,-2.9729,-2.9037,-2.8113,-2.7002,-2.6902,-2.7574,-2.8632,-2.721,-2.7873,-2.9641,-2.8165,-2.7625,-2.7625,-2.7625,-2.7625,-2.7509,0.0,0.0,0.0,0.0,0.0,0.0,0.0,0.0,0.0,0.0,0.0,1.0525,1.4038,1.472,1.5059,1.537,1.539,1.539,1.539,1.5274,1.5218,1.5218,1.4784,0.0,1.3523,1.3379,1.2852,1.1876,1.3649,1.4747,1.5183,1.4729,1.5627,1.764,1.764,1.6087,1.3555,1.4241,1.4833,1.5307,1.5307,1.5226,1.5104,1.5104,0.8809,-0.1782,-1.531,-2.017,-2.0231,-2.0312,-1.9145,-1.7206,-1.4607,-1.6931,-2.0493,0.0,0.0,0.0,-1.843,-1.8413,0.0,-1.4254,-1.338,-1.4005,0.0,0.0,0.0,0.0,0.0,0.0,0.0,0.0,0.0,0.0,0.0,0.0,0.0,0.0,0.0,0.0,0.0,0.0,0.0,0.0,0.0,0.0,-2.5527,-2.5507,-2.5507,-2.5499,-2.5506,-2.5495,-2.5499,-2.5479,-2.5479,-2.5273,-2.547,-2.6086,-2.6927,-2.8212,-2.9855,-2.8553,-2.7954,-2.7825,-2.6059,-2.5664,-2.6083,-2.4468,-2.4642,-2.6012,-2.718,-2.7625,-2.7625,-2.7625,-2.7625,-2.7174,0.0,0.0,0.0,0.0,0.0,0.0,0.0,0.0,0.0,0.0,0.0,0.0,0.0,1.5018,1.5215,1.5268,1.5272,1.5135,1.4847,1.4782,1.4532,1.4062,1.3881,1.3669,1.3396,1.2724,1.2174,1.1805,1.3601,1.4581,1.4757,1.4571,1.5673,1.7749,1.6901,1.5363,1.304,0.7525,1.012,1.785,1.7191,1.6324,1.5227,1.3674,0.7629,-0.0664,-0.5591,0.0,-1.5841,-1.5841,-1.6725,-1.7625,-1.6559,-1.8237,-2.0546,-2.0276,-2.0915,-2.1386,-1.9776,-1.7647,0.0,-1.1598,-1.2616,-1.4507,0.0,0.0,0.0,0.0,0.0,0.0,0.0,0.0,0.0,0.0,0.0,0.0,0.0,0.0,0.0,0.0,0.0,0.0,0.0,0.0,0.0,0.0,0.0,-2.5371,-2.5074,-2.5332,-2.5511,-2.5553,-2.555,-2.5498,-2.5377,-2.5232,-2.5259,-2.5429,-2.6843,-2.8117,-2.918,-2.8834,-2.8577,-2.8288,-2.6386,-2.554,-2.5385,-2.4128,-2.3879,-2.4537,-2.6722,-2.7625,-2.7625,-2.7625,-2.6347,-2.4798,0.0,0.0,0.0,0.7152,0.0,0.6154,0.663,0.738,0.8135,0.8812,0.0,0.0,0.0,0.0,1.4973,1.4973,1.4973,1.4738,1.418,1.3786,1.3389,1.2873,1.2871,1.3274,1.4189,1.3505,1.2688,1.1805,1.4367,1.5238,1.4524,1.526,1.4252,1.1964,1.508,1.5613,1.3812,0.7843,1.0527,1.8699,1.758,1.6149,1.4613,1.356,0.91,0.3368,0.0,0.0,0.0,-0.8257,-1.2104,-1.6248,-1.627,-1.8031,-2.0099,-2.0024,-2.0899,-2.1605,-2.0135,-1.7806,-1.5121,0.0,-1.269,-1.3876,-1.3499,0.0,0.0,0.0,0.0,0.0,0.0,0.0,0.0,0.0,0.0,0.0,0.0,0.0,0.0,0.0,0.0,0.0,0.0,0.0,0.0,0.0,0.0,0.0,-2.5027,-2.5347,-2.5566,-2.5635,-2.5628,-2.5565,-2.5391,-2.5351,-2.5302,-2.5248,-2.6682,-2.7601,-2.7988,-2.7913,-2.7867,-2.7682,-2.5808,-2.513,-2.5297,-2.4074,-2.3595,-2.3864,-2.6527,-2.7625,-2.7458,-2.6453,-2.531,-2.4265,1.1988,1.0746,0.9384,0.8004,0.7725,0.8195,0.9686,0.8828,0.8259,0.8947,0.0,0.0,0.0,0.0,0.0,1.4634,1.4611,1.4298,1.3582,1.2427,1.1805,1.1805,1.1747,1.2999,1.5681,1.5712,1.4471,1.1925,1.5823,1.6666,1.4642,1.6786,1.162,0.1032,1.2635,1.7076,1.5856,1.5856,1.6591,1.7635,1.6313,1.4672,1.321,1.5027,1.3539,1.0175,0.7931,0.7078,0.0,0.1811,0.0,0.0,0.0,-1.5903,-1.9117,-1.9186,-1.9676,-2.001,0.0,0.0,0.0,-1.5874,0.0,0.0,-1.222,0.0,0.0,0.0,0.0,0.0,0.0,0.0,0.0,0.0,0.0,0.0,0.0,0.0,0.0,0.0,0.0,0.0,0.0,0.0,0.0,0.0,-2.5384,-2.5385,-2.5379,-2.5524,-2.5635,-2.5683,-2.5703,-2.5664,-2.5605,-2.5605,-2.5574,-2.5503,-2.632,-2.6592,-2.6355,-2.5761,-2.574,-2.6081,-2.4211,-2.4249,-2.5524,-2.4142,-2.3595,-2.3864,-2.6527,-2.756,-2.7137,-2.4274,-2.453,-2.5791,1.1854,0.9906,0.8523,0.917,0.841,0.8195,0.9686,1.0378,1.1079,0.0,0.0,0.0,1.4476,1.4488,1.5435,1.7766,1.7311,1.6787,1.6614,1.3584,1.1805,1.1805,1.0926,1.1521,1.3881,1.3934,1.417,1.4704,1.5806,1.654,1.6902,1.7514,1.6052,1.3024,1.6339,1.7572,1.7248,1.7248,1.6901,1.6313,1.5955,1.0941,0.4452,1.1317,1.4272,1.4322,0.0,0.8583,0.7509,0.0,0.2497,-0.4776,0.0,-1.4742,-1.6901,-1.8793,-1.9583,-1.9733,-1.9211,0.0,0.0,0.0,0.0,0.0,-1.0014,-1.0156,0.0,0.0,0.0,0.0,0.0,0.0,0.0,0.0,0.0,0.0,0.0,0.0,0.0,0.0,0.0,0.0,0.0,0.0,0.0,0.0,-2.5132,-2.5194,-2.4841,-2.5271,-2.557,-2.5625,-2.5664,-2.5684,-2.5664,-2.5664,-2.5632,-2.5586,-2.6243,-2.6381,-2.6013,-2.5523,-2.5501,-2.5831,-2.411,-2.3638,-2.3989,-2.3706,-2.3595,-2.3864,-2.6527,-2.6293,-2.4451,-2.5243,-2.412,-2.2113,1.1113,0.9715,0.8706,0.8953,0.8269,0.8195,0.9686,1.1373,1.2804,0.0,0.0,0.0,1.4488,1.571,1.7093,1.8539,1.8149,1.7811,1.7811,1.5082,1.3466,1.3466,1.2746,1.2617,1.3207,1.3198,1.3715,1.4721,1.5448,1.6203,1.6977,1.7526,1.7811,1.7811,1.7811,1.7479,1.6977,1.6977,1.6512,1.5799,1.5799,1.1178,0.4947,1.0924,1.3482,1.3597,0.0,0.0,0.8838,0.9121,0.5786,0.0,0.0,-1.1111,-1.3786,-1.6048,-1.7379,-1.8007,-1.7655,-1.7363,-1.6651,-1.4494,0.0,0.0,-0.903,-0.854,-0.8997,0.0,0.0,0.0,0.0,0.0,0.0,0.0,0.0,0.0,0.0,0.0,0.0,0.0,0.0,0.0,0.0,-2.5041,-2.4943,-2.4782,-2.5015,-2.5061,-2.4828,-2.5253,-2.5532,-2.5605,-2.5664,-2.5703,-2.5703,-2.5703,-2.5615,-2.5484,-2.5682,-2.5611,-2.5254,-2.4711,-2.4637,-2.4863,-2.3409,-2.3035,-2.3434,-2.2951,-2.2972,-2.3571,-2.5112,-2.4627,-2.3414,-2.5636,-2.4024,-2.0566,0.0,1.011,0.9661,0.8184,0.807,0.8601,0.9919,1.1989,1.3669,0.0,1.4488,1.4634,1.4983,1.7479,1.8771,1.7883,1.7658,1.7589,1.7589,1.6459,1.5799,1.5799,1.5799,1.5074,1.3514,1.3301,1.3198,1.3198,1.4937,1.5799,1.5827,1.7175,1.7811,1.7811,1.7811,1.7052,1.5799,1.558,1.5654,1.5874,1.5874,1.378,0.0,0.0,1.1945,1.0621,1.0621,1.0467,1.0049,0.8525,0.6195,0.0,-0.1677,-0.6184,-1.0024,-1.185,-1.3706,-1.5174,-1.498,-1.4933,-1.4605,-1.317,-1.1275,0.0,-0.8763,-0.7031,-0.6077,0.0,0.0,0.0,0.0,0.0,0.0,0.0,0.0,0.0,0.0,0.0,0.0,0.0,0.0,0.0,-2.4756,-2.4891,-2.4943,-2.4974,-2.4998,-2.5019,-2.5081,-2.536,-2.5524,-2.5584,-2.5664,-2.5703,-2.5703,-2.5681,-2.5543,-2.5245,-2.4855,-2.4545,-2.4274,-2.3543,-2.3416,-2.368,-2.247,-2.2564,-2.3378,-2.2206,-2.2248,-2.3078,-2.3078,-2.3228,-2.3679,-2.5228,-2.3588,-2.0566,1.149,1.1423,1.1029,0.9687,1.0319,1.1116,1.1386,1.2559,1.3669,1.4387,1.4488,1.549,1.8078,1.8215,1.8018,1.7833,1.6809,1.6176,1.6176,1.5955,1.5799,1.5799,1.5799,1.5639,1.5299,1.3934,1.3198,1.3198,1.4937,1.5799,1.5827,1.7175,1.7811,1.7811,1.7811,1.7052,1.5712,1.431,1.4735,1.6373,1.6373,1.4853,1.2496,1.1319,1.1616,1.2638,1.2638,1.1653,1.0234,0.9902,0.8236,0.542,0.0769,-0.3063,-0.6135,-0.7963,-0.9939,-1.161,-1.1988,-1.296,0.0,0.0,0.0,0.0,-0.8305,-0.7095,-0.6993,0.0,0.0,0.0,0.0,0.0,0.0,0.0,0.0,0.0,0.0,0.0,0.0,0.0,0.0,0.0,-2.4659,-2.4685,-2.4666,-2.4828,-2.4937,-2.5003,-2.5027,-2.531,-2.5503,-2.552,-2.5637,-2.5703,-2.5703,-2.5648,-2.5388,-2.4881,-2.4227,-2.3797,-2.3574,-2.2576,-2.2585,-2.3358,-2.2672,-2.252,-2.2818,-2.2951,-2.3044,-2.3078,-2.3078,-2.423,-2.55,-2.2783,-2.1231,-2.0566,1.1805,1.1805,1.1601,1.0973,1.1378,1.1982,1.2514,1.3034,1.4238,1.6584,1.6885,1.7509,1.9106,1.8397,1.7811,1.7811,1.6565,1.5799,1.5799,1.5799,1.5799,1.5799,1.5799,1.5799,1.5799,1.4084,1.3648,1.4501,1.5359,1.5799,1.5799,1.6485,1.6799,1.6847,1.8171,1.7787,1.6082,1.5222,1.4785,1.4789,1.602,0.0,1.2978,1.1019,1.0916,1.1763,1.1763,1.1132,1.0283,1.0283,0.827,0.0,0.2621,-0.0782,-0.4075,0.0,-0.6448,-0.7074,0.0,0.0,0.0,-0.7234,0.0,0.0,0.0,-0.674,-0.6474,0.0,0.0,0.0,0.0,0.0,0.0,0.0,0.0,0.0,0.0,0.0,0.0,0.0,0.0,0.0,-2.4335,-2.3916,-2.3897,-2.4741,-2.4911,-2.501,-2.501,-2.5318,-2.5498,-2.5508,-2.5633,-2.5673,-2.5644,-2.5512,-2.5145,-2.4582,-2.4091,-2.3677,-2.3368,-2.2801,-2.2871,-2.3425,-2.2807,-2.2699,-2.2972,-2.279,-2.2845,-2.3078,-2.3078,-2.4494,-2.6108,-2.3029,-2.0734,-1.9414,1.1805,1.1805,1.1805,1.1805,1.1982,1.2396,1.326,1.3511,1.4907,1.8547,1.9013,1.9013,1.9013,1.8296,1.7916,1.812,1.7174,1.6563,1.6563,1.6563,1.6563,1.6563,1.6068,1.5799,1.5799,1.4406,1.4406,1.5799,1.5799,1.5799,1.5799,1.5799,1.6068,1.6533,1.6084,1.6117,1.6522,1.6522,1.5389,1.3752,0.0,1.494,1.2461,1.0916,1.0283,1.0283,1.0283,1.003,0.9713,0.9954,0.7348,0.4036,0.3848,0.1123,0.0,0.0,0.0,0.0,0.0,0.0,0.0,0.0,0.0,-0.444,0.0,0.0,0.0,0.0,0.0,0.0,0.0,0.0,0.0,0.0,0.0,0.0,0.0,0.0,0.0,0.0,0.0,0.0,0.0,-2.2688,-2.2807,-2.436,-2.4534,-2.4623,-2.4726,-2.5217,-2.5498,-2.5508,-2.5624,-2.5639,-2.5528,-2.5298,-2.4891,-2.4327,-2.3925,-2.3614,-2.3377,-2.3382,-2.344,-2.3555,-2.3118,-2.3103,-2.3226,-2.2528,-2.2539,-2.3078,-2.3078,-2.423,-2.5532,-2.3067,-2.0386,-1.8252,1.1805,1.1805,1.1805,1.1805,1.2591,1.326,1.3379,1.3949,1.5243,1.7649,1.7975,1.7975,1.7975,1.7861,1.8241,1.9379,1.9331,1.9241,1.9241,1.9241,1.9241,1.9241,1.7043,1.5799,1.5799,1.561,1.561,1.5799,1.5799,1.5799,1.5799,1.5799,1.7043,1.8747,0.7316,0.7564,1.6522,1.6522,1.6337,0.0,1.638,1.4134,0.0,1.039,1.0283,1.0283,1.0283,0.9053,0.756,0.0,0.6085,0.2683,0.0,0.3023,0.116,0.0,0.0,0.0,0.0,0.0,0.0,0.0,-0.1486,0.0,0.0,0.0,0.0,0.0,0.0,0.0,0.0,0.0,0.0,0.0,0.0,0.0,0.0,0.0,0.0,0.0,0.0,0.0,0.0,-2.0719,-2.1379,-2.315,-2.3138,-2.3251,-2.3731,-2.4867,-2.5498,-2.5508,-2.5578,-2.5516,-2.5337,-2.4957,-2.4525,-2.4059,-2.3236,-2.3014,-2.3328,-2.3496,-2.357,-2.354,-2.4012,-2.3852,-2.3267,-2.3035,-2.3002,-2.3078,-2.3078,-2.3288,-2.3096,-1.9823,-1.8327,-1.8252,1.2104,1.1805,1.2556,1.4875,1.565,1.595,1.595,1.6228,1.6753,1.7686,1.7811,1.7811,1.7811,1.7101,1.6846,1.7405,0.0,1.4839,0.0,0.0,2.078,1.9747,1.1317,1.0223,1.7912,1.8077,1.8077,1.8077,1.8077,1.8077,1.8077,1.8077,1.7992,1.7556,1.0585,0.7276,0.7357,1.3797,1.57,0.0,0.0,0.0,0.0,1.1406,1.1162,1.0283,1.0283,0.8893,0.7101,0.0,0.6406,0.0,0.0,0.0,0.0,0.0,0.0,0.0,0.0,0.0,0.0,0.0,0.0,0.0,-0.1162,0.0,-0.5033,0.0,0.0,0.0,0.0,0.0,0.0,0.0,-0.8355,0.0,0.0,0.0,0.0,0.0,0.0,0.0,0.0,0.0,0.0,0.0,-2.1865,-2.2362,-2.3253,-2.4189,-2.4949,-2.5489,-2.5571,-2.5406,-2.5004,-2.443,-2.3768,-2.3076,-2.2857,-2.2732,-2.274,-2.3326,-2.3792,-2.4139,-2.3918,-2.3863,-2.3877,-2.3346,-2.3078,-2.3005,-2.2051,-2.2249,-2.2944,-2.1467,-2.0368,-1.959,1.3271,1.3176,1.4367,1.7289,1.7811,1.7811,1.7811,1.8481,1.9046,1.9046,1.9046,1.9046,1.9046,1.7729,0.0,0.0,1.7299,1.4109,0.0,0.0,2.1023,1.9747,1.0503,0.0,1.948,1.969,1.969,1.969,1.969,1.969,1.969,1.9095,1.7987,1.6423,1.4652,0.8717,0.0689,0.0,1.4916,1.3861,1.3315,1.1976,1.042,1.1734,1.1022,0.9381,0.9381,0.8366,0.6983,0.6899,0.704,0.0,0.555,0.0,0.0,0.0,0.0,0.0,0.4919,0.0,0.0,0.0,0.0,0.0,0.0,0.0,0.0,0.0,0.0,0.0,0.0,0.0,0.0,-0.7343,0.0,-0.8639,0.0,0.0,0.0,0.0,0.0,0.0,0.0,0.0,0.0,0.0,0.0,-2.0807,-2.2256,-2.3173,-2.4107,-2.5063,-2.5342,-2.5235,-2.469,-2.4005,-2.3236,-2.2402,-2.2703,-2.2718,-2.2424,-2.345,-2.4015,-2.4277,-2.4085,-2.4044,-2.4069,-2.3625,-2.3185,-2.2628,-2.1416,-2.1542,-2.2408,-2.2175,-2.1424,-2.0566,1.5694,1.6706,1.7648,1.7772,1.7811,1.7811,1.7811,2.0297,2.2175,2.2175,0.0,0.0,0.0,0.0,0.0,0.0,0.0,2.1229,1.92,0.0,1.9747,1.969,1.9271,1.9256,0.0,1.969,1.969,1.969,1.969,1.969,1.9639,1.7585,1.6552,1.6522,1.6423,1.0276,0.0589,0.9517,1.4487,1.6194,1.3867,1.1876,1.0332,0.0,0.9016,0.7105,0.7105,0.0,0.0,0.6713,0.7534,0.0,0.0,0.0,0.0,0.0,0.0,0.0,0.0,0.0,0.0,0.4639,0.0,0.0,0.0,0.0,-0.0669,0.0,0.0,0.0,0.0,0.0,-0.5814,-0.6529,-0.7235,0.0,0.0,0.0,0.0,0.0,0.0,0.0,0.0,0.0,0.0,0.0,-1.7615,-1.8077,-2.0286,-2.1768,-2.301,-2.4023,-2.482,-2.4968,-2.4431,-2.3806,-2.3137,-2.2406,-2.2806,-2.2876,-2.2724,-2.3999,-2.4204,-2.3607,-2.4891,-2.4643,-2.3379,-2.3984,-2.3327,-2.1939,-2.1877,-2.1365,-2.0573,-1.9757,-1.9954,-2.0566,1.5799,1.6163,1.7391,2.026,2.0788,2.0788,2.0788,2.1651,0.0,0.0,0.0,0.0,0.0,2.005,1.9351,0.0,0.0,1.9913,2.1332,2.1432,0.0,0.0,0.0,1.7942,0.0,1.969,1.969,1.969,1.969,1.8968,1.7585,1.6837,1.6522,1.6522,1.6522,1.4438,0.0,0.0,0.0,0.0,0.0,1.0851,1.0283,0.0,0.0,0.911,0.8421,0.7695,0.0,0.7835,0.7723,0.745,0.7883,0.7176,0.614,0.6303,0.6745,0.0,0.0,0.0,0.5332,0.465,0.0,0.0,0.0,0.0,0.0,0.0,0.0,0.0,0.0,0.0,-0.6312,-0.6534,-0.7616,-0.8586,0.0,0.0,0.0,0.0,0.0,0.0,0.0,0.0,0.0,0.0,-1.7273,0.0,-1.9699,-2.1434,-2.28,-2.3779,-2.4533,-2.4602,-2.3884,-2.3059,-2.2243,-2.1472,-2.1906,-2.21,-2.2069,-2.3355,-2.4045,-2.4217,-2.4187,-2.4123,-2.3974,-2.3101,-2.2427,-2.1815,-2.0655,-2.0333,-2.0607,-2.0709,-2.1383,-2.1824,1.7193,1.7193,1.7777,1.9654,0.0,2.231,2.231,0.0,0.0,0.0,2.1323,0.0,1.9139,0.0,1.8693,0.0,1.7811,1.864,2.0585,2.1114,0.0,1.9747,1.8092,0.0,0.0,0.0,1.969,1.969,1.969,1.8612,1.6522,1.6522,1.6522,1.6479,1.5611,1.5197,1.5027,1.2348,1.1201,0.0,0.0,1.0283,0.0,0.0,1.0628,0.9692,0.0,0.831,0.7682,0.7914,0.7723,0.7456,0.7883,0.7498,0.7004,0.7289,0.7402,0.7241,0.6416,0.5928,0.0,0.4705,0.3752,0.0,0.0448,0.0,0.0,0.0,0.0,0.0,0.0,0.0,-0.6588,-0.6588,-0.7616,-0.848,0.0,-0.9562,0.0,0.0,0.0,0.0,0.0,0.0,0.0,-1.6016,-1.6927,-1.8092,0.0,-2.1209,-2.2482,-2.3386,-2.4213,-2.4312,-2.3579,-2.2859,-2.2128,-2.1358,-2.1963,-2.2184,-2.2084,-2.3131,-2.3849,-2.4224,-2.3792,-2.3639,-2.3681,-2.2519,-2.1703,-2.1047,-1.9814,-1.9431,-1.9745,-2.0302,-2.083,-2.0905,1.969,1.969,1.8931,0.0,1.9565,0.0,0.0,0.0,2.231,0.0,2.2119,2.0911,1.8109,1.7811,1.7811,1.7811,1.7811,0.0,1.7811,1.8998,0.0,0.0,1.969,1.969,1.969,0.0,0.0,1.969,1.969,1.8612,1.6522,1.638,1.6337,1.6194,1.3931,1.2881,1.2881,1.2881,1.2832,1.2617,1.1045,1.041,1.0596,1.2256,1.125,0.891,0.8804,0.8804,0.8593,0.7182,0.7616,0.854,0.7128,0.767,0.8804,0.8804,0.8103,0.7348,0.7348,0.6603,0.5635,0.4639,0.0,0.0,0.0,0.0,-0.0507,0.0,0.0,0.0,0.0,0.0,0.0,-0.6642,-0.7289,-0.799,-0.8745,0.0,0.0,0.0,0.0,0.0,0.0,0.0,-1.4688,-1.6911,-1.6612,-1.7437,0.0,-2.1105,-2.2038,-2.2891,-2.3884,-2.4117,-2.3551,-2.3265,-2.2725,-2.2013,-2.2861,-2.3071,-2.2739,-2.331,-2.3595,-2.3538,-2.3606,-2.322,-2.251,-2.2116,-2.1093,-1.9754,-1.9392,-1.8741,-1.8125,-1.874,-1.8683,-1.8102,1.969,1.969,1.9905,0.0,2.1546,2.184,0.0,0.0,0.0,0.0,1.9488,1.7545,1.7765,1.7811,1.7811,1.7811,1.7811,0.0,0.0,0.0,0.0,1.969,1.969,1.969,1.969,1.969,0.0,1.969,1.969,1.8612,1.6479,1.4663,1.3836,1.38,1.3152,1.2881,1.2881,1.2881,1.2139,1.1025,1.1875,1.2207,1.2266,0.0,1.1801,1.0167,0.9159,0.8804,0.8752,0.8374,0.848,0.8752,0.8374,0.848,0.8804,0.8804,0.783,0.675,0.6362,0.6109,0.5407,0.3289,0.3644,0.4284,0.0,0.0,0.0,0.0,0.0,0.0,0.0,0.0,0.0,-0.7343,-0.8049,-0.8738,0.0,0.0,0.0,0.0,0.0,0.0,0.0,-1.3716,-1.4517,-1.6456,-1.7542,-1.8613,-1.9682,0.0,-2.2545,-2.2951,-2.3951,-2.4312,-2.3959,-2.3441,-2.2883,-2.2313,-2.2678,-2.2791,-2.2739,-2.331,-2.3377,-2.2934,-2.2958,-2.2456,-2.1495,-2.0787,-2.0087,-1.9327,-1.8613,-1.8468,-1.8779,-1.9766,-1.9299,-1.8205,1.969,2.0311,0.0,2.2123,0.0,0.0,2.1007,0.0,0.0,2.231,1.951,0.0,1.7769,1.7272,1.6926,1.6926,1.6926,0.0,1.8571,0.0,0.0,1.969,1.969,1.969,1.969,1.969,0.0,1.969,0.0,1.8612,1.6436,1.4025,1.3478,1.4433,1.3382,1.3478,1.4387,1.3344,1.2314,1.1504,1.249,1.2881,0.0,1.2881,1.2049,1.0618,0.9263,0.8804,0.8804,0.8804,0.8804,0.8804,0.8804,0.8804,0.8804,0.8804,0.7777,0.6475,0.6032,0.5614,0.4967,0.3572,0.3869,0.4507,0.4521,0.3207,0.1413,0.0,0.0,0.0,0.0,0.0,0.0,0.0,0.0,0.0,0.0,0.0,0.0,0.0,0.0,0.0,0.0,-1.5093,-1.5775,-1.7014,-1.8359,-1.9453,-2.0104,0.0,-2.2978,-2.3198,-2.3671,-2.3831,-2.358,-2.2779,-2.2377,-2.2364,-2.2576,-2.2858,-2.3086,-2.3445,-2.329,-2.2663,-2.2258,-2.1581,-2.0754,-1.9713,-1.9171,-1.8927,-1.8546,-1.8662,-1.9189,-2.0195,-1.9434,-1.7914,1.998,0.0,0.0,0.0,0.0,0.0,0.0,2.231,0.0,2.231,0.0,1.9267,1.8161,1.6992,1.6308,1.6308,0.0,1.7282,1.954,1.969,1.969,1.969,1.969,1.969,1.969,1.969,0.0,0.0,1.9406,1.8341,1.6436,1.4025,1.4201,1.638,1.3978,1.4071,0.0,1.38,1.2881,1.2881,1.2881,1.2881,1.2881,1.2881,1.2157,1.0872,0.9361,0.8804,0.8804,0.8804,0.8804,0.8804,0.8804,0.8804,0.8804,0.8804,0.7723,0.6421,0.6032,0.523,0.448,0.448,0.4206,0.3931,0.3884,0.3599,0.2203,-0.1688,-0.251,-0.3198,0.0,0.0,0.0,0.0,0.0,0.0,0.0,0.0,0.0,0.0,0.0,0.0,0.0,0.0,-1.7288,-1.797,-1.8867,-1.9828,-2.0831,0.0,-2.3173,-2.3424,-2.3319,-2.3125,-2.2803,-2.1971,-2.1833,-2.2375,-2.2682,-2.3071,-2.3595,-2.3508,-2.3143,-2.2526,-2.1559,-2.0767,-2.0037,-1.8949,-1.8498,-1.851,-1.8834,-1.9111,-1.9473,-2.0332,-1.9303,-1.7598,0.0,0.0,0.0,0.0,0.0,2.231,2.231,2.231,2.231,2.231,2.0764,1.9602,1.9394,1.9159,1.9036,1.9036,1.9036,0.0,0.0,0.0,0.0,1.969,1.969,1.969,1.969,1.969,1.969,0.0,1.7947,1.6879,1.6436,1.4025,1.4201,1.638,1.3978,1.3104,1.3515,1.3065,0.0,1.2881,1.2881,1.2881,1.2881,1.2881,1.2725,1.2206,0.9673,0.8804,0.8804,0.8804,0.8804,0.8804,0.8804,0.8804,0.8804,0.8804,0.7498,0.6032,0.5919,0.5238,0.4494,0.4494,0.2631,0.0784,0.0784,-0.1119,-0.3173,-0.3931,-0.4222,-0.466,-0.567,0.0,0.0,0.0,0.0,0.0,0.0,0.0,0.0,0.0,0.0,0.0,0.0,0.0,0.0,-1.7959,-1.8193,-1.9184,-2.1269,0.0,-2.2585,0.0,-2.343,0.0,0.0,0.0,-2.2756,-2.2722,-2.3214,-2.349,-2.3595,-2.3098,-2.2483,-2.1833,-2.0875,-1.9987,-1.9107,-1.8689,-1.8553,-1.8596,-1.9076,-1.9453,-1.9912,-2.0791,-1.9769,-1.8048,0.0,0.0,0.0,0.0,0.0,0.0,0.0,2.231,0.0,2.1055,2.1007,2.1055,2.1055,2.0243,1.969,1.969,1.969,1.969,1.969,1.969,1.969,1.969,1.969,0.0,1.969,1.969,1.969,1.969,1.7544,1.6522,1.6436,1.4025,1.3525,1.4571,1.343,1.2881,1.2881,0.0,0.0,1.2881,1.2881,1.2881,1.2881,1.2881,1.2881,1.2627,1.0576,0.9413,0.8804,0.8804,0.8804,0.8804,0.8804,0.8804,0.8804,0.8804,0.7439,0.5973,0.6199,0.5399,0.448,0.4494,0.2798,0.095,0.0168,-0.2357,-0.4475,-0.4485,-0.4599,-0.4982,-0.6034,-0.7046,0.0,0.0,0.0,0.0,0.0,0.0,0.0,0.0,0.0,0.0,0.0,0.0,0.0,0.0,0.0,-2.011,-2.1338,0.0,-2.2988,0.0,0.0,0.0,-2.2605,0.0,-2.228,-2.2551,-2.2935,-2.3152,-2.3098,-2.283,-2.2297,-2.1582,-2.0569,-1.9773,-1.9293,-1.8764,-1.8596,-1.8701,-1.9355,-1.9736,-2.0019,-2.0908,-2.0136,-1.8625,0.0,2.2818,0.0,0.0,2.231,0.0,2.231,2.1991,2.1385,2.0379,2.1134,2.1751,2.1751,2.0499,1.969,1.969,1.969,1.969,1.969,1.969,1.969,1.969,1.969,1.969,1.969,1.969,1.969,0.0,1.7544,1.6522,1.6436,1.4025,1.2881,1.2881,1.2881,0.0,0.0,0.0,1.2881,1.2881,1.2881,1.2881,1.2881,1.2881,1.2881,1.2774,1.1642,1.0372,0.9211,0.9113,0.9113,0.9061,0.8857,0.8956,0.9061,0.8857,0.7498,0.614,0.6475,0.5559,0.4473,0.449,0.3077,0.134,-0.0112,-0.23,-0.4104,-0.4442,-0.4487,-0.4919,-0.6375,-0.7106,0.0,0.0,0.0,0.0,0.0,0.0,0.0,0.0,0.0,0.0,0.0,0.0,0.0,0.0,0.0,-2.1097,-2.1707,-2.2718,-2.3388,0.0,0.0,-2.3077,-2.2591,0.0,-2.1658,-2.2325,-2.2461,-2.2484,-2.2498,-2.2455,-2.2145,-2.1537,-2.0378,-1.9663,-1.9307,-1.8773,-1.8691,-1.8848,-1.9619,-2.0029,-2.0216,-2.0745,-2.0136,-1.8931,0.0,0.0,0.0,0.0,0.0,0.0,2.231,2.0975,2.0447,2.1886,2.0829,1.9945,1.9945,1.9782,1.969,1.969,1.969,1.969,1.969,1.969,1.969,1.969,1.969,1.969,1.969,1.969,1.969,0.0,1.7544,1.6522,1.6436,1.4025,1.2881,1.2881,0.0,0.0,0.0,1.2881,1.2881,1.2881,1.2881,1.2881,1.2881,1.2881,1.2881,1.2881,1.2774,1.1801,1.0568,1.021,1.0064,0.9917,0.9061,0.9361,0.9917,0.9061,0.7723,0.6534,0.6588,0.5572,0.4494,0.4497,0.2352,-0.0168,-0.1685,-0.224,-0.2794,-0.4209,-0.448,-0.5001,-0.6558,-0.6774,-0.6975,0.0,0.0,0.0,0.0,0.0,0.0,0.0,0.0,0.0,0.0,-2.1735,0.0,0.0,-2.1201,-2.1134,-2.3101,-2.3211,-2.2977,-2.2477,-2.301,-2.2764,-2.1647,-2.1455,-2.1769,-2.2469,-2.1996,-2.1796,-2.1771,-2.1713,-2.1665,-2.1511,-2.0276,-1.9105,-1.8172,-1.8507,-1.8867,-1.9277,-1.9736,-2.04,-2.1002,-2.0338,-1.9522,-1.8742,0.0,0.0,0.0,0.0,0.0,0.0,0.0,2.1721,2.1134,2.0812,2.0139,1.969,1.969,1.969,1.969,1.969,1.969,1.969,1.969,1.969,1.969,1.969,1.969,1.969,1.969,1.969,1.969,0.0,0.0,0.0,1.6461,1.5054,1.4394,0.0,0.0,1.2881,1.2881,1.2881,1.2881,1.2881,1.2881,1.2881,1.2881,1.2881,1.2881,1.2881,1.2881,1.252,1.195,1.1233,1.0618,1.0167,1.0064,1.0115,1.0115,0.9562,0.8078,0.6588,0.6588,0.5567,0.4258,0.3355,0.2914,0.185,-0.1458,-0.2184,-0.2625,-0.4209,-0.4477,-0.4809,-0.5861,-0.6365,-0.6768,0.0,0.0,0.0,0.0,0.0,0.0,0.0,0.0,0.0,0.0,0.0,-2.2311,0.0,0.0,-2.2923,-2.3945,-2.3995,-2.3646,-2.2928,0.0,-2.2582,-2.1497,-2.1421,-2.154,-2.1844,-2.1749,-2.152,-2.1175,-2.1491,-2.1199,-2.0427,-1.9776,-1.8934,-1.8057,-1.874,-1.9131,-1.9355,-2.0039,-2.0272,-2.0098,-2.006,-1.9109,-1.8021,2.5406,0.0,2.231,0.0,2.231,2.231,2.231,2.184,2.1086,1.9854,1.969,1.969,1.969,1.969,1.969,1.969,1.969,1.969,1.969,1.969,1.969,1.969,1.969,0.0,1.969,1.969,1.969,1.969,1.908,0.0,0.0,0.0,0.0,0.0,1.3418,1.2881,1.2881,1.2881,1.2881,1.2881,1.2881,1.2881,1.2881,1.2881,1.2881,1.2881,1.2881,1.2881,1.2774,1.2157,1.1484,1.0981,1.0821,1.0618,1.0312,0.9909,0.8283,0.6588,0.6588,0.5567,0.4154,0.2599,0.2707,0.2249,-0.1364,-0.2199,-0.2631,-0.4257,-0.4541,-0.4748,-0.546,-0.6184,-0.6709,-0.6799,0.0,0.0,0.0,0.0,0.0,0.0,-1.5059,-1.719,-1.9932,-2.047,-2.1351,0.0,0.0,0.0,-2.449,-2.4241,-2.3688,0.0,0.0,0.0,-2.1265,-2.1175,-2.1234,-2.1476,-2.1226,-2.0792,-2.0207,-2.0648,-2.0559,-1.9939,-1.9468,-1.8787,-1.8076,-1.8936,-1.9287,-1.9375,-1.9918,-1.9916,-1.9484,-1.8701,-1.7738,-1.6948,2.2361,2.2327,2.231,2.231,2.231,2.231,2.231,2.0829,1.9711,1.969,1.969,1.969,1.969,1.969,1.969,1.969,1.969,1.969,1.969,1.969,1.969,0.0,0.0,1.969,1.969,1.969,1.969,1.969,0.0,0.0,1.971,0.0,1.5187,1.291,1.2891,1.2881,1.2881,1.2881,1.2881,1.2881,1.2881,1.2881,1.2881,1.2881,1.2881,1.2881,1.2881,1.2881,1.2881,1.2881,1.2881,1.2627,1.1225,1.0813,1.0661,1.0012,0.8283,0.6588,0.6588,0.5572,0.4129,0.2559,0.1146,-0.0339,-0.1873,-0.2179,-0.2701,-0.4365,-0.4687,-0.4915,-0.5653,-0.6392,-0.6834,-0.6623,0.0,0.0,0.0,0.0,0.0,0.0,-1.6456,-1.8556,-1.8811,-2.0566,0.0,0.0,0.0,0.0,0.0,0.0,0.0,-2.1569,-2.118,0.0,-2.0715,-2.052,-2.0827,-2.1586,-2.0382,-1.9423,-1.875,-1.8999,-1.9638,-2.0515,-1.9683,-1.8787,-1.8076,-1.8936,-1.9287,-1.9292,-1.9127,-1.9426,-1.9577,-1.5986,-1.5126,-1.553,2.231,2.231,2.231,2.231,2.231,2.1915,2.0698,2.1071,2.1039,1.9854,1.969,1.969,1.969,1.969,1.969,0.0,1.969,1.969,0.0,1.969,1.969,1.969,1.969,1.969,1.969,1.969,1.969,1.969,0.0,0.0,0.0,1.6848,1.6107,1.5332,1.5332,1.5332,1.5254,1.3621,1.2881,1.2881,1.2881,1.2881,1.2881,1.2881,1.2881,1.2881,1.2881,1.2881,1.2881,1.2881,1.2559,1.208,1.1616,1.1166,1.0661,0.9967,0.8258,0.648,0.5982,0.5162,0.4131,0.2574,0.1067,-0.0361,-0.1885,-0.3142,-0.4154,-0.4512,-0.4619,-0.4714,-0.4885,-0.5469,-0.5823,-0.5397,-0.6848,0.0,0.0,0.0,0.0,0.0,-1.6897,-1.8937,-2.1612,-2.1154,0.0,0.0,0.0,0.0,0.0,0.0,0.0,0.0,-2.0828,0.0,-2.0089,-2.0018,-2.0114,-2.0344,-1.949,-1.9029,-1.8942,-1.8431,-1.8794,-1.9694,-1.8787,-1.8438,-1.8486,-1.9053,-1.9001,-1.8635,-1.9127,-1.8037,-1.636,-1.6455,-1.5074,-1.2984,2.231,2.231,2.231,2.231,2.231,2.1915,2.0829,2.1023,2.0926,1.9854,1.969,1.969,1.969,1.969,0.0,1.969,1.969,1.969,1.969,1.969,1.969,1.969,1.969,1.969,1.969,1.969,0.0,1.8496,1.7146,1.6522,1.6522,1.6522,1.6522,1.6522,1.6522,1.6522,1.638,1.488,1.3752,1.2881,1.2881,1.2881,1.2881,1.2881,1.2881,1.2881,1.2881,1.2881,1.2881,1.2881,1.2403,1.1814,1.1814,1.1166,1.0305,0.9548,0.8041,0.6421,0.5706,0.4986,0.4134,0.2611,0.1073,-0.0357,-0.1847,-0.3585,-0.4817,-0.4606,-0.467,-0.4728,-0.4575,-0.5154,-0.539,-0.4709,-0.6344,-0.7507,-0.688,0.0,0.0,0.0,0.0,0.0,0.0,-2.0784,-2.0081,0.0,0.0,0.0,0.0,0.0,0.0,-2.0855,-1.9895,-1.9431,-1.9471,-1.9687,-1.9643,-1.9371,-1.834,-1.8227,-1.8843,-1.784,-1.7965,-1.8992,-1.8325,-1.8035,-1.8014,-1.8512,-1.8311,-1.7709,-1.8083,-1.7046,-1.5402,-1.5156,-1.3677,-1.1755,2.231,2.231,2.231,0.0,2.231,0.0,2.2152,2.0731,1.969,1.969,1.969,1.969,1.969,1.969,1.969,1.969,0.0,0.0,0.0,1.969,1.969,1.969,1.969,1.969,1.969,1.969,1.865,1.6522,1.6522,1.6522,1.6522,1.6522,1.6522,1.6522,1.6522,1.6522,1.6522,1.6522,1.5197,1.3162,1.2978,1.2881,1.2881,1.2881,1.2881,1.2881,1.2881,1.2881,1.2881,1.2881,1.2393,1.1765,1.1715,1.0762,0.9496,0.8842,0.7688,0.6426,0.5668,0.4993,0.4131,0.2613,0.1066,-0.0397,-0.1919,-0.3623,-0.4867,-0.4731,-0.4813,-0.487,-0.4704,-0.5243,-0.5474,-0.465,-0.6258,-0.7396,-0.6745,0.0,0.0,0.0,0.0,0.0,0.0,-1.9906,-1.925,0.0,0.0,0.0,0.0,0.0,-1.8877,-1.9316,-1.8666,-1.8566,-1.9033,-1.956,-1.9423,-1.8608,-1.7202,-1.7145,-1.8347,-1.7195,-1.74,-1.8551,-1.8148,-1.7628,-1.7108,-1.7557,-1.7327,-1.661,-1.6343,-1.6339,-1.6038,-1.2694,-1.1487,-1.1263,0.0,0.0,2.231,2.231,2.231,2.1857,2.0514,1.998,1.969,1.969,1.969,1.969,1.969,1.969,1.969,1.969,1.969,1.969,1.969,1.969,1.969,1.969,1.969,1.969,1.969,1.969,1.865,1.6522,1.6522,1.6522,1.6522,1.6522,1.6522,1.6522,1.6522,1.6522,1.6522,1.6522,1.6151,1.5478,1.3658,1.2881,1.2881,1.2881,1.2881,1.2881,1.2881,1.2881,1.2881,1.2881,1.2304,1.1425,1.0762,0.9377,0.7978,0.7882,0.7256,0.6351,0.5223,0.4673,0.4146,0.2586,0.109,-0.045,-0.2193,-0.3788,-0.4849,-0.4713,-0.4813,-0.4836,-0.4565,-0.4682,-0.4723,-0.4525,-0.5823,-0.6956,-0.7304,-1.069,0.0,0.0,-1.9217,-2.0815,-2.1795,-2.1059,-1.9965,0.0,0.0,0.0,0.0,-1.8302,-1.8755,-1.9501,-1.9541,-1.9584,-1.961,-1.9748,-1.915,-1.7852,-1.6922,-1.6746,-1.7123,-1.6806,-1.7203,-1.8111,-1.8027,-1.7788,-1.7575,-1.7665,-1.7175,-1.6359,-1.6545,-1.4939,-1.2615,-1.4098,-1.2229,-0.8825,2.4052,2.4306,2.4306,2.4306,2.4306,2.3541,2.1231,2.0208,1.969,1.969,1.969,1.969,1.969,1.969,1.969,1.969,1.969,1.969,1.969,1.969,1.969,1.969,1.969,1.969,1.969,1.969,1.865,1.6522,1.6522,1.6522,1.6522,1.6522,1.6522,1.6522,1.6522,1.6522,1.6522,1.6522,1.5876,1.4744,1.343,1.2881,1.2881,1.2881,1.2881,1.2881,1.2881,1.2881,1.2881,1.2881,1.2264,1.1334,1.0466,0.9003,0.7554,0.7367,0.6698,0.5918,0.4934,0.4706,0.4143,0.1753,0.0587,-0.0465,-0.2064,-0.3878,-0.5062,-0.4785,-0.4813,-0.4847,-0.4609,-0.4567,-0.4519,-0.4519,-0.5664,-0.6843,-0.7505,-1.1585,0.0,-1.8512,-2.1053,-2.2964,-2.3956,-2.2647,-2.1183,-1.9849,-1.8888,0.0,-1.8584,-1.9168,-1.9454,-1.9337,-1.9753,-1.9924,-1.9798,-1.915,-1.8232,-1.709,-1.6368,-1.6177,-1.6436,-1.6641,-1.6812,-1.709,-1.7417,-1.6747,-1.5534,-1.5614,-1.4955,-1.3722,-1.378,-1.2467,-1.0772,-1.1793,-1.0476,-0.8038,2.6201,2.6691,2.6691,2.6691,2.6691,2.571,2.2767,2.0829,1.969,1.969,1.969,1.969,1.969,1.969,1.969,1.969,1.969,1.969,1.969,1.969,1.969,1.969,1.969,1.969,1.969,1.969,1.865,1.6522,1.6522,1.6522,1.6522,1.6522,1.6522,1.6522,1.6522,1.6522,1.6522,1.6522,1.5119,1.2881,1.2881,1.2881,1.2881,1.2881,1.2881,1.2881,1.2881,1.2881,1.2881,1.2881,1.2363,1.1484,1.0372,0.8985,0.7683,0.7084,0.6178,0.5338,0.4889,0.4667,0.3816,0.0745,-0.039,-0.1057,-0.2074,-0.3887,-0.5274,-0.4847,-0.486,-0.4904,-0.4755,-0.4599,-0.4553,-0.4661,-0.5841,-0.7117,-0.8249,0.0,-1.6999,-1.986,-2.2885,-2.5029,-2.5781,-2.44,-2.2789,-2.1275,-2.0489,-1.9937,-1.9626,-2.045,-2.0388,-1.9282,-1.9733,-1.9793,-1.9475,-1.8124,-1.7146,-1.6492,-1.5748,-1.5674,-1.6182,-1.6427,-1.6346,-1.6043,-1.643,-1.5142,-1.2962,-1.3076,-1.2088,-1.0641,-1.025,-0.9931,-0.9615,-0.8463,-0.8038,-0.7939,2.6607,2.6691,2.6691,2.6691,2.6691,2.571,2.2767,2.0829,1.969,1.969,1.969,1.969,1.969,1.969,1.969,1.969,1.969,1.969,1.969,1.969,1.969,1.969,1.969,1.969,1.969,1.969,1.865,1.6522,1.6522,1.6522,1.6522,1.6522,1.6522,1.6522,1.6522,1.6522,1.6522,1.6522,1.5119,1.2881,1.2881,1.2881,1.2881,1.2881,1.2881,1.2881,1.2881,1.2881,1.2881,1.2881,1.2774,1.2264,0.9769,0.8207,0.7208,0.6964,0.5981,0.4998,0.5023,0.406,0.2566,0.0531,-0.2275,-0.4233,-0.29,-0.4053,-0.5321,-0.5104,-0.5081,-0.5053,-0.4911,-0.4758,-0.488,-0.5502,-0.6624,-0.854,-1.1704,0.0,-1.9882,-2.2736,-2.5483,-2.6882,-2.6209,-2.5661,-2.4787,-2.3424,-2.2374,-2.1866,-2.1954,-2.1281,-2.0764,-2.0515,-2.0028,-1.9172,-1.795,-1.709,-1.6595,-1.6492,-1.5748,-1.584,-1.6568,-1.5826,-1.5981,-1.6714,-1.5072,-1.3957,-1.3176,-1.235,-1.1229,-0.999,-1.0086,-0.9372,-0.8287,-0.8127,-0.8038,-0.7839,2.6691,2.6691,2.6691,2.6691,2.6691,2.6234,2.4881,2.185,1.969,1.969,1.969,1.969,1.969,1.969,2.0258,2.1665,2.1799,2.1799,2.1799,2.1799,2.1156,1.975,1.969,2.0348,2.1754,1.9293,1.7504,1.6522,1.6522,1.6522,1.6522,1.6522,1.6522,1.6522,1.6522,1.6522,1.6522,1.6522,1.5876,1.4744,1.343,1.2881,1.2881,1.2881,1.2881,1.2881,1.2881,1.2881,1.2881,1.2881,1.2604,1.1878,0.952,0.8113,0.7203,0.6828,0.586,0.4988,0.5004,0.3873,0.2278,0.0471,-0.128,-0.275,-0.3893,-0.4797,-0.5345,-0.5169,-0.5202,-0.5185,-0.5047,-0.4911,-0.5214,-0.6469,-0.8102,0.0,0.0,-1.8671,-2.2491,-2.4833,-2.7331,-2.8618,-2.7952,-2.6947,-2.5879,-2.4801,-2.377,-2.3161,-2.3004,-2.1945,-2.1124,-2.069,-1.971,-1.8466,-1.7034,-1.6652,-1.6322,-1.5921,-1.5822,-1.585,-1.5936,-1.5903,-1.5356,-1.4469,-1.3831,-1.2468,-1.0616,-1.0443,-0.9678,-0.8644,-0.8839,-0.8067,-0.6933,-0.6728,-0.6628,-0.6426,2.6691,2.6691,2.6691,2.6691,2.6691,2.6691,2.6691,2.3219,2.0602,2.0602,2.0602,2.0602,2.0602,2.0602,2.1395,2.3415,2.3595,2.3595,2.3595,2.3595,2.2697,2.0677,2.0602,2.1545,2.355,1.9419,1.6993,1.6522,1.6522,1.6522,1.6522,1.6522,1.6522,1.6522,1.6522,1.6522,1.6479,1.5876,1.5976,1.6293,1.3884,1.2881,1.2881,1.2881,1.3125,1.3418,1.3027,1.3135,1.3467,1.3467,1.2582,1.115,0.9681,0.8487,0.7491,0.675,0.5864,0.5125,0.5026,0.3899,0.2278,0.0471,-0.0337,-0.1338,-0.4129,-0.5117,-0.5362,-0.522,-0.5267,-0.5335,-0.5192,-0.507,-0.5628,-0.7429,0.0,0.0,0.0,-2.0855,-2.4559,-2.6731,-2.8759,-2.9833,-2.9437,-2.8088,-2.6941,-2.6117,-2.5091,-2.4302,-2.3801,-2.2451,-2.1178,-1.9914,-1.8814,-1.7567,-1.6265,-1.6255,-1.5979,-1.542,-1.567,-1.5589,-1.5283,-1.5352,-1.4317,-1.2472,-1.2326,-1.0863,-0.8595,-0.8775,-0.8366,-0.7662,-0.7417,-0.6842,-0.5929,-0.5322,-0.5118,-0.492,2.6691,2.6691,2.6691,2.6691,2.6691,2.6691,2.6691,2.4782,2.331,2.331,2.331,2.331,2.331,2.331,2.3385,2.358,2.3595,2.3595,2.3595,2.3595,2.3505,2.331,2.331,2.34,2.3595,2.0891,1.8496,1.6522,1.6522,1.6522,1.6522,1.6522,1.6522,1.6522,1.6522,1.6522,1.6337,1.4107,1.4479,1.6293,1.3884,1.2881,1.2881,1.2881,1.3857,1.5019,1.3447,1.3896,1.5225,1.5225,1.3228,1.0669,1.0504,0.9313,0.7752,0.6791,0.595,0.5348,0.5372,0.409,0.2278,0.0471,-0.1276,-0.2542,-0.2806,-0.422,-0.5376,-0.5362,-0.5369,-0.5376,-0.5362,-0.537,-0.6061,-0.8221,0.0,0.0,-1.9016,-2.2525,-2.5632,-2.8633,-2.9748,-3.011,-2.9717,-2.9063,-2.839,-2.7763,-2.6437,-2.546,-2.5002,-2.2898,-2.0529,-1.7872,-1.7079,-1.6255,-1.5468,-1.5468,-1.5468,-1.542,-1.4985,-1.5007,-1.521,-1.3075,-1.2375,-1.2713,-1.0114,-0.9042,-0.8964,-0.8211,-0.788,-0.7711,-0.6569,-0.6121,-0.5827,-0.4618,-0.4116,-0.3915,2.6691,2.6691,2.6691,2.6691,2.564,2.476,2.476,2.4101,2.3595,2.3595,2.3595,2.3595,2.3595,2.3595,2.3595,2.3595,2.3595,2.3595,2.3595,2.3595,2.3595,2.3595,2.3595,2.3595,2.3595,2.2622,2.0284,1.6522,1.6522,1.6522,1.6522,1.6522,1.6522,1.6522,1.6522,1.6522,1.6337,1.3931,1.4294,1.6293,1.3884,1.2881,1.2881,1.2881,1.3281,1.3896,1.4307,1.4863,1.541,1.541,1.3287,1.0624,1.0624,1.0168,0.9105,0.6548,0.5625,0.5432,0.5389,0.4097,0.2278,0.0471,-0.0538,-0.1612,-0.3835,-0.4931,-0.5071,-0.3959,-0.2813,-0.2479,-0.4018,-0.4923,-0.6367,-0.927,0.0,-1.5387,-2.1111,-2.4441,-2.7157,-2.9542,-2.9954,-2.9813,-2.9202,-2.8603,-2.8049,-2.756,-2.6597,-2.56,-2.4581,-2.1505,-1.8911,-1.6978,-1.6197,-1.569,-1.541,-1.541,-1.5243,-1.4958,-1.5042,-1.4412,-1.3101,-1.2641,-1.1575,-1.0078,-0.9318,-0.8649,-0.8022,-0.7875,-0.7321,-0.6554,-0.6184,-0.5024,-0.3417,-0.2916,-0.2213,-0.1411,2.6691,2.6691,2.6691,2.6691,2.4996,2.3595,2.3595,2.3595,2.3595,2.3595,2.3595,2.3595,2.3595,2.3595,2.3595,2.3595,2.3595,2.3595,2.3595,2.3595,2.3595,2.3595,2.3595,2.3216,2.2409,2.2409,2.0478,1.6522,1.7212,1.7187,1.6522,1.6522,1.6886,1.7551,1.7551,1.7162,1.638,1.4744,1.4571,1.5197,1.3573,1.2881,1.2881,1.2881,1.2881,1.3105,1.4805,1.5068,1.4521,1.4033,1.2451,1.0624,1.0624,1.0624,0.9907,0.6404,0.5428,0.5432,0.5379,0.4503,0.2954,0.0606,0.0,-0.0672,-0.3161,-0.4599,-0.5014,-0.3828,-0.2547,-0.2211,-0.3882,-0.5163,-0.6985,-1.0194,-1.334,-1.7199,-2.2601,-2.5846,-2.8307,-3.0002,-3.0118,-2.9669,-2.8649,-2.8091,-2.7612,-2.7161,-2.601,-2.461,-2.2893,-1.9877,-1.7667,-1.6549,-1.5748,-1.5352,-1.5191,-1.5191,-1.5023,-1.4693,-1.4362,-1.3369,-1.179,-1.16,-1.0362,-0.8381,-0.8527,-0.8165,-0.7465,-0.7276,-0.67,-0.5819,-0.4999,-0.3618,-0.1913,-0.1511,-0.0807,0.0,2.6691,2.6691,2.6691,2.6691,2.4957,2.3595,2.3595,2.3595,2.3595,2.3595,2.3595,2.3595,2.3595,2.3595,2.3595,2.3595,2.3595,2.3595,2.3595,2.3595,2.3595,2.3551,2.3595,2.2409,1.985,1.9798,1.8731,1.6547,1.8731,1.8681,1.6547,1.6547,1.7702,1.9798,1.9798,1.8593,1.6547,1.6522,1.5119,1.2881,1.2881,1.2881,1.2881,1.29,1.29,1.3125,1.4805,1.4326,1.2695,1.1106,1.0624,1.0624,1.0624,1.0624,0.9907,0.6404,0.5428,0.5428,0.5428,0.5386,0.4523,0.0876,0.0,0.0,0.0,-0.2753,-0.5343,-0.5333,-0.5406,-0.5406,-0.5382,-0.6378,-0.8091,-1.1045,-1.4656,-1.8768,-2.3436,-2.6645,-2.8927,-3.006,-3.0316,-2.9783,-2.8157,-2.7747,-2.7341,-2.6726,-2.4704,-2.2355,-1.9813,-1.8227,-1.7127,-1.6503,-1.5758,-1.5141,-1.4675,-1.4684,-1.4684,-1.464,-1.2704,-1.1771,-1.1736,-0.9394,-0.8361,-0.8308,-0.7854,-0.76,-0.7527,-0.6432,-0.6029,-0.5727,-0.3016,-0.2013,-0.1812,-0.0504,0.0,0.0,2.6691,2.6691,2.6229,2.476,2.4032,2.3595,2.3595,2.3595,2.3595,2.3595,2.3595,2.3595,2.3595,2.3595,2.3595,2.3595,2.3595,2.3595,2.3595,2.3595,2.2786,2.0988,2.2651,2.2409,1.985,1.9798,1.9484,1.8832,1.9484,1.9459,1.8832,1.8832,1.9171,1.9798,1.9798,1.9434,1.8719,1.7174,1.5119,1.2881,1.2881,1.2881,1.3018,1.4209,1.4658,1.4727,1.5225,1.5088,1.4213,1.153,1.0624,1.0624,1.0624,1.0624,0.9907,0.6404,0.5428,0.5428,0.5428,0.5379,0.4512,0.0872,0.0,0.0,0.0,-0.0808,-0.1616,-0.1615,-0.3648,-0.5426,-0.5396,-0.7593,-0.9906,-1.125,-1.5137,-1.945,-2.3508,-2.664,-2.8856,-2.9815,-3.02,-2.9797,-2.821,-2.8203,-2.7744,-2.632,-2.3589,-2.1169,-1.9394,-1.8024,-1.6788,-1.5768,-1.5491,-1.48,-1.358,-1.4328,-1.3961,-1.2499,-1.2063,-1.0924,-0.9264,-0.8634,-0.7628,-0.6332,-0.7132,-0.6807,-0.5878,-0.5657,-0.4822,-0.3621,-0.2415,-0.1411,-0.0504,-0.0101,0.0,0.0,2.8467,2.8467,2.7446,2.4173,2.3595,2.3954,2.5001,2.5166,2.5166,2.5166,2.5166,2.5166,2.5166,2.5166,2.5166,2.5166,2.5166,2.5166,2.5166,2.4052,2.2688,2.1171,2.2585,2.2291,1.9875,1.9798,1.9798,1.9798,1.9798,1.9798,1.9798,1.9798,1.9798,1.9798,1.9798,1.9798,1.971,1.838,1.6979,1.5515,1.4378,1.4574,1.5585,1.5451,1.541,1.541,1.541,1.541,1.4923,1.1655,1.1476,1.2504,1.2504,1.1593,1.0168,0.8091,0.7442,0.7186,0.5752,0.5428,0.4888,0.2676,0.1609,0.1075,0.1075,0.1075,0.0873,0.0134,-0.1747,-0.3703,-0.51,-0.7746,-1.0544,-1.2969,-1.6819,-2.094,-2.4942,-2.7503,-2.9253,-2.9998,-3.0058,-2.9503,-2.8151,-2.7833,-2.6726,-2.4293,-2.197,-2.0097,-1.8681,-1.7225,-1.6091,-1.5364,-1.4589,-1.3647,-1.2491,-1.277,-1.2415,-1.1449,-1.0816,-0.9792,-0.8491,-0.8033,-0.7183,-0.6102,-0.6504,-0.5688,-0.4071,-0.4076,-0.3417,-0.2316,-0.1511,-0.0706,0.0,0.0,0.0,0.0,3.119,3.119,2.9672,2.4826,2.3954,2.4762,2.725,2.7625,2.7625,2.7625,2.7625,2.7625,2.7625,2.7625,2.7625,2.7625,2.7625,2.7509,2.724,2.4627,2.3078,2.3078,2.3078,2.2184,2.015,1.9899,1.9798,1.9798,1.9798,1.9798,1.9798,1.9798,1.9798,1.9798,1.9798,1.9798,1.9798,1.9798,1.9798,1.9579,1.689,1.739,1.9475,1.6507,1.541,1.541,1.541,1.541,1.4923,1.202,1.2992,1.541,1.541,1.3174,1.0624,1.0624,1.0491,0.9716,0.647,0.5533,0.5522,0.5432,0.4156,0.2945,0.2947,0.2947,0.2476,0.0802,0.02,-0.1066,-0.4656,-0.7584,-1.0959,-1.5468,-1.9266,-2.3002,-2.7019,-2.885,-2.994,-3.0386,-2.9911,-2.9126,-2.8097,-2.6885,-2.4787,-2.1406,-2.0155,-1.8997,-1.7678,-1.6128,-1.5154,-1.5045,-1.3279,-1.2019,-1.1333,-1.0413,-1.0289,-1.1038,-0.9356,-0.8589,-0.8514,-0.7563,-0.6969,-0.664,-0.604,-0.4387,-0.2145,-0.1895,-0.1812,-0.1711,-0.0504,0.0,0.0,0.0,0.0,0.0,3.119,3.119,3.0261,2.725,2.6707,2.6901,2.7535,2.7625,2.7625,2.7625,2.7625,2.7625,2.7625,2.7625,2.7625,2.7625,2.7625,2.6625,2.4239,2.3471,2.3078,2.3078,2.3078,2.2852,2.2422,2.0702,1.9798,1.9798,1.9798,1.9798,1.9798,1.9798,1.9798,1.9798,1.9798,1.9798,1.9798,1.9798,1.9798,1.9747,1.9085,1.9254,1.9475,1.6507,1.541,1.541,1.541,1.541,1.5294,1.456,1.4805,1.541,1.541,1.3174,1.0624,1.0624,0.9913,0.8807,0.7177,0.6584,0.626,0.5557,0.5093,0.4824,0.4843,0.4846,0.4712,0.4311,0.1944,-0.1069,-0.4668,-1.0766,-1.5505,-1.6305,-2.0687,-2.4808,-2.72,-2.9094,-3.0211,-3.0111,-3.0029,-2.9621,-2.8672,-2.6199,-2.3493,-2.0804,-1.885,-1.7362,-1.6356,-1.5303,-1.4144,-1.3084,-1.2557,-1.1313,-0.9442,-0.8741,-0.8598,-0.8946,-0.8691,-0.7527,-0.5474,-0.6608,-0.5779,-0.3505,-0.582,-0.4414,-0.0501,-0.0503,-0.0404,-0.0404,-0.0101,0.0,0.0,0.0,0.0,0.0,3.119,3.119,3.0781,2.9524,2.9345,2.8934,2.776,2.7625,2.7625,2.7625,2.7625,2.7625,2.7625,2.7625,2.7625,2.7625,2.8727,2.7637,2.3368,2.3078,2.3078,2.3078,2.3078,2.3078,2.3078,2.1995,2.1393,2.1393,2.0326,1.9798,1.9798,1.9798,1.9798,1.9798,1.9798,1.9798,1.9798,1.9798,1.9798,1.9798,1.9798,1.9798,1.9475,1.6507,1.569,1.6026,1.5584,1.541,1.541,1.541,1.541,1.541,1.541,1.4255,1.2565,1.1045,1.0168,0.939,0.8215,0.7892,0.7702,0.6859,0.6666,0.6408,0.5575,0.5379,0.5382,0.5399,0.2546,-0.1525,-0.6569,-1.2834,-1.7789,-1.9647,-2.3516,-2.7059,-2.9154,-3.031,-3.072,-3.0157,-2.9424,-2.8188,-2.6238,-2.401,-2.1729,-1.9369,-1.7369,-1.5848,-1.4877,-1.3909,-1.2848,-1.1666,-1.0595,-0.9291,-0.7614,-0.6792,-0.6468,-0.6498,-0.6603,-0.5501,-0.3498,-0.4433,-0.4139,-0.3014,-0.4282,-0.3031,0.0,0.0,0.0,0.0,0.0,0.0,0.0,0.0,0.0,0.0,3.0658,3.0601,3.0601,3.0601,3.0601,2.9919,2.7894,2.7625,2.7625,2.7625,2.7964,2.8248,2.8248,2.8248,2.8248,2.8248,2.9704,2.8693,2.4001,2.3703,2.3703,2.3703,2.3339,2.3078,2.3078,2.3078,2.3078,2.3078,2.128,2.0175,1.9798,1.9798,1.9798,1.9798,1.9798,1.9798,1.9798,1.9798,1.9798,1.9798,1.9798,1.9798,1.9527,1.6789,1.614,1.6528,1.569,1.541,1.5468,1.5958,1.5796,1.5294,1.4746,1.456,1.4076,1.1351,1.0624,1.0364,0.939,0.9326,0.9256,0.8285,0.821,0.7952,0.6308,0.5792,0.5603,0.542,0.2151,-0.2915,-1.0207,-1.5504,-1.9986,-2.3781,-2.6772,-2.9303,-3.1295,-3.1484,-3.1031,-3.0037,-2.8386,-2.612,-2.2975,-2.1586,-1.9841,-1.7338,-1.5607,-1.4188,-1.3187,-1.2045,-1.0947,-0.9969,-0.8152,-0.672,-0.5746,-0.4895,-0.4334,-0.4048,-0.4048,-0.3316,-0.1967,-0.1967,-0.2324,-0.2955,-0.2232,-0.1261,0.0,0.0,0.0,0.0,0.0,0.0,0.0,0.0,0.0,0.0,2.848,2.8076,2.8076,2.8076,2.8076,2.7993,2.766,2.7625,2.7625,2.7625,2.9579,3.1001,3.1001,3.1001,3.1001,3.1001,2.862,2.6845,2.6093,2.6013,2.6013,2.6013,2.4167,2.3078,2.3078,2.3078,2.3078,2.3078,2.2777,2.1694,1.9798,1.9798,1.9798,1.9798,1.9798,1.9798,1.9798,1.9798,1.9798,1.9798,1.9798,1.9798,1.9631,1.795,1.6574,1.5584,1.5468,1.541,1.5796,1.8317,1.7501,1.4923,1.2143,1.1233,1.117,1.0744,1.0624,1.0561,1.0428,1.0338,0.9983,0.8404,0.907,0.9736,0.8317,0.7301,0.6427,0.561,0.0552,-0.663,-1.6457,-2.1822,-2.526,-2.6803,-2.912,-3.0886,-3.1443,-3.122,-3.0438,-2.8992,-2.7105,-2.47,-2.1655,-2.0379,-1.8272,-1.449,-1.3216,-1.2138,-1.1156,-0.9285,-0.7867,-0.6809,-0.5689,-0.4615,-0.3663,-0.3569,-0.3041,-0.2134,-0.2134,-0.1517,-0.0359,-0.0359,-0.0359,-0.0451,-0.0388,-0.0201,0.0,0.0,0.0,0.0,0.0,0.0,0.0,0.0,0.0,0.0,2.8076,2.7625,2.7625,2.7625,2.7625,2.7625,2.7625,2.8831,2.9789,2.9789,3.0806,3.1482,3.1482,3.1482,3.1482,3.1482,2.8427,2.6533,2.6533,2.6533,2.59,2.4657,2.3665,2.3078,2.3078,2.4356,2.4381,2.3078,2.3078,2.2623,2.1656,2.1656,2.1004,1.9798,1.9798,1.9798,1.9798,1.9798,1.9798,1.9798,1.9798,1.9798,1.9527,1.7235,1.6461,1.6528,1.569,1.6451,1.7829,1.7446,1.6451,1.4864,1.1593,1.0624,1.0624,1.0624,1.0624,1.0624,1.0624,1.0611,1.0584,1.0746,1.0776,1.0581,0.9832,0.6863,0.3615,0.1594,-0.2969,-0.9863,-2.0458,-2.4305,-2.6749,-2.9454,-3.1864,-3.3193,-3.2637,-3.2661,-3.1127,-2.6811,-2.4571,-2.2133,-1.8818,-1.7385,-1.5606,-1.3013,-1.1415,-0.9852,-0.8241,-0.7339,-0.616,-0.4523,-0.401,-0.3285,-0.2389,-0.2327,-0.1841,-0.0807,-0.0807,-0.0539,0.0,0.0,0.0,0.0,0.0,0.0,0.0,0.0,0.0,0.0,0.0,0.0,0.0,0.0,0.0,0.0]}]]